GFSSW_prec_cloud_003.txt.gz
Cloud_Cover
100 100 100 100 100 100 100 100 100 100 100 100 100 100 100 100 92 82 21 0 5 3 5 13 100 100 99 100 70 100 100 89 16 47 100 100 100 100 91 100 99 100 100 100 100
100 100 100 100 100 100 100 100 100 100 100 100 100 100 100 100 76 15 5 5 5 5 1 45 100 100 100 100 100 99 96 100 97 66 100 73 96 100 100 100 91 100 100 100 100
100 100 100 100 100 100 100 100 100 100 100 100 100 100 100 98 42 0 0 0 5 5 5 52 100 100 100 100 100 100 100 100 100 100 99 100 99 100 74 81 92 100 100 100 100
100 100 100 100 100 100 100 100 100 100 100 100 100 100 100 94 1 0 2 6 20 5 5 64 100 100 100 100 98 100 100 100 100 100 100 100 100 100 94 94 100 96 99 100 100
100 100 100 100 100 100 100 100 100 100 100 100 100 100 90 29 27 0 0 96 99 62 21 100 100 100 100 100 100 100 100 100 100 100 100 100 100 100 100 91 100 100 100 100 100
100 100 100 100 100 100 100 100 100 100 100 100 100 100 50 17 91 61 99 100 100 100 100 100 100 100 100 100 100 100 100 100 100 100 100 100 100 100 100 100 100 100 100 100 100
100 100 100 100 100 100 100 100 100 100 100 100 100 100 88 89 77 72 100 100 95 100 100 100 100 100 100 100 100 100 98 100 100 100 100 100 100 100 100 100 100 100 100 100 100
100 100 100 100 100 100 100 100 100 100 100 100 100 99 89 10 41 63 100 100 100 90 100 100 100 80 99 100 100 100 100 100 100 100 70 100 100 100 100 93 54 97 100 100 100
100 100 100 100 100 100 100 100 100 100 100 100 75 95 72 90 13 100 74 98 100 100 100 100 100 99 100 100 100 100 100 99 100 100 100 100 97 98 91 45 63 89 100 95 97
100 100 100 100 100 100 100 99 100 100 92 100 100 99 61 99 14 99 66 100 96 100 100 100 100 100 99 97 100 99 100 100 100 100 100 56 47 81 90 89 96 97 97 70 58
100 100 100 100 100 100 58 100 99 77 97 4 34 100 98 100 41 13 100 100 100 95 100 100 100 100 100 100 74 98 100 83 55 27 5 6 11 13 35 43 75 68 49 45 80
100 100 100 100 100 100 100 100 79 25 12 88 94 72 46 100 77 100 83 99 100 100 98 96 92 100 100 100 82 44 50 55 5 4 5 3 5 5 5 5 5 5 10 72 63
100 100 100 100 100 72 99 63 21 97 16 88 84 76 39 12 37 6 2 8 100 91 21 99 75 93 100 61 94 100 52 82 29 6 72 43 21 5 4 0 4 5 5 5 5
100 100 100 100 49 63 34 77 55 12 24 66 14 100 97 100 100 70 12 5 93 100 88 64 9 6 47 74 32 5 5 4 43 100 36 10 59 60 5 3 4 5 6 17 20
100 100 100 7 19 4 3 5 5 18 28 23 14 95 58 98 100 99 100 99 94 98 59 35 25 5 5 5 4 5 5 5 5 41 55 6 3 4 0 5 13 7 2 0 5
100 100 100 71 100 18 4 0 5 40 11 19 4 0 0 0 0 0 0 0 2 3 0 2 5 52 5 5 4 2 5 16 7 20 5 5 1 0 0 0 0 0 0 0 4
100 100 100 96 0 0 0 0 3 13 0 0 2 5 0 0 0 0 0 0 0 0 1 2 4 4 0 0 4 5 30 56 56 3 0 0 0 0 0 0 0 0 0 3 81
100 100 100 14 4 1 0 0 0 0 0 0 0 0 0 0 0 0 0 0 0 0 5 5 17 10 5 2 0 0 0 0 0 0 0 0 0 0 0 0 0 0 1 1 3
98 100 89 5 5 0 0 0 0 0 0 0 3 5 2 5 5 5 5 0 1 0 0 0 0 0 0 0 0 0 0 0 0 0 0 0 0 0 0 0 0 0 0 0 0
67 86 6 3 2 0 0 0 0 0 0 2 5 5 5 1 0 0 0 0 0 0 0 0 0 0 0 0 0 0 0 0 0 0 0 0 0 0 0 0 0 0 0 0 0
0 3 2 5 0 0 4 0 0 0 5 0 0 0 0 0 0 0 0 0 0 0 0 0 0 0 0 0 0 0 0 0 0 0 0 0 0 0 0 0 0 0 2 4 3
0 93 5 15 4 4 5 0 2 5 1 0 0 0 0 0 0 0 0 0 0 0 0 0 1 0 0 0 0 0 0 0 0 0 0 0 0 0 0 0 3 5 5 5 5
0 96 3 9 5 11 5 5 5 2 0 2 0 0 0 3 5 5 0 0 0 0 0 0 2 0 0 0 1 5 5 1 0 0 0 1 0 0 4 5 8 5 5 2 0
4 64 4 5 3 7 5 5 5 5 5 5 2 0 0 0 5 5 5 3 0 0 1 0 0 0 0 5 5 7 5 2 2 1 3 5 5 5 9 5 5 5 5 5 23
6 4 90 18 8 30 5 5 5 5 5 5 5 3 5 5 1 5 5 5 5 0 5 3 2 5 5 5 5 5 5 5 5 5 5 5 5 98 26 7 5 5 5 89 100
58 53 100 7 5 30 42 5 5 16 5 38 35 5 5 5 5 38 5 5 5 7 76 66 69 45 59 9 5 59 17 5 5 5 5 5 5 4 5 5 16 63 100 84 93
100 99 100 6 5 5 24 24 9 59 19 47 14 5 5 5 5 5 8 8 9 74 54 48 29 44 83 38 57 100 23 5 5 5 5 19 7 5 5 56 100 100 70 52 44

GFSSW_prec_cloud_006.txt.gz
Cloud_Cover
36 100 100 100 100 100 100 100 100 100 100 100 100 100 100 100 57 1 26 30 7 47 91 99 67 5 25 100 100 100 24 71 78 86 73 61 85 100 100 100 100 100 100 100 100
100 98 100 90 100 100 97 100 100 100 100 100 100 100 97 100 1 0 0 73 16 58 72 58 5 5 100 100 100 100 95 96 99 100 100 100 100 100 100 84 96 100 97 100 100
100 99 100 97 100 100 100 99 100 100 100 100 100 100 82 50 0 0 0 3 16 98 61 22 24 17 100 100 100 100 75 90 100 100 100 100 97 60 16 100 100 100 100 100 100
100 100 100 99 98 96 100 100 100 100 100 100 100 100 38 0 3 0 0 0 5 34 100 41 10 85 100 100 100 100 100 100 100 100 100 100 98 84 82 97 98 19 100 100 100
100 95 100 100 100 100 100 100 99 100 100 100 100 100 4 1 56 2 0 4 5 7 100 10 100 92 100 100 100 100 100 100 100 100 100 100 100 100 100 100 92 76 92 87 100
100 100 100 100 100 100 100 100 99 100 100 100 100 98 13 0 100 5 58 100 100 69 100 43 98 100 100 100 100 100 100 100 100 100 100 100 100 100 100 100 100 100 100 100 55
100 100 100 100 100 100 82 88 100 100 100 100 100 94 27 28 40 14 81 96 40 72 90 99 100 100 100 100 100 100 100 100 100 100 88 100 100 100 100 100 100 100 100 100 100
100 100 100 100 100 100 75 99 35 100 100 100 100 81 7 24 15 100 70 98 28 96 100 100 100 100 100 100 100 100 100 100 100 100 100 100 100 100 100 100 100 100 100 100 100
95 100 100 100 100 100 75 36 92 100 100 100 70 26 5 100 8 99 100 80 76 73 100 100 100 100 100 100 100 100 100 100 100 100 95 100 100 100 89 97 100 100 100 39 39
59 100 100 100 100 100 100 57 91 97 82 99 72 93 84 100 47 100 100 83 99 100 100 100 100 100 100 100 100 100 100 100 100 100 98 95 100 100 85 45 99 21 39 68 68
81 100 100 100 100 100 58 14 29 28 38 28 3 52 99 100 100 87 100 12 100 100 100 100 100 100 100 100 100 100 100 100 100 98 98 96 71 75 63 16 25 49 49 86 96
48 100 100 100 100 100 48 0 0 2 21 3 8 100 100 99 100 36 87 8 100 100 100 100 100 100 100 100 100 100 100 100 100 100 26 40 40 60 38 30 32 57 77 42 6
73 100 100 100 100 76 4 0 0 0 27 19 69 93 61 62 100 93 66 100 100 100 100 100 100 100 100 100 100 100 94 88 85 90 44 12 5 5 0 3 5 62 43 20 6
100 100 100 100 36 0 0 0 0 5 1 5 14 64 44 24 100 100 100 69 52 98 100 100 99 100 100 100 100 100 100 88 92 84 50 7 84 0 0 0 0 2 5 5 9
100 100 100 12 1 0 0 0 1 3 5 17 25 97 46 78 100 52 30 13 100 100 66 100 100 100 57 100 100 99 63 51 40 10 15 5 1 4 0 5 26 23 5 3 0
100 98 100 79 66 0 0 0 0 0 14 5 41 100 86 99 98 100 85 100 99 100 100 78 82 14 98 72 5 5 25 15 28 18 4 0 4 71 62 9 0 0 0 0 0
100 90 100 28 0 2 12 0 0 2 3 5 5 3 4 6 5 97 100 100 100 92 61 5 5 13 4 19 24 49 47 5 24 5 8 16 2 0 0 0 0 0 0 0 1
100 100 100 17 1 0 4 0 0 0 0 0 0 0 0 0 0 0 0 0 1 5 5 2 18 52 34 10 5 5 17 55 6 4 0 0 0 0 0 0 0 0 0 0 0
100 100 100 8 6 46 4 0 0 0 0 0 0 4 0 0 0 0 0 0 0 0 0 2 3 5 6 43 83 60 8 0 0 0 0 0 0 0 0 0 0 0 0 0 0
99 88 1 0 0 0 4 0 0 0 0 0 0 0 0 0 1 5 4 4 5 4 3 2 5 4 0 1 0 0 0 0 0 0 0 0 0 0 0 0 0 0 0 5 5
4 4 17 5 4 4 5 3 0 0 0 0 0 0 4 5 5 4 1 0 0 0 0 0 0 0 0 0 0 0 0 0 0 0 0 0 2 0 0 0 1 5 6 5 5
4 0 14 5 2 20 4 5 0 0 2 0 5 5 6 3 0 0 0 0 0 0 0 0 0 0 2 0 0 0 0 0 3 4 0 0 5 2 0 0 5 5 5 5 5
70 1 5 4 13 9 5 5 5 0 5 3 4 0 1 0 0 0 0 0 0 0 0 0 1 2 0 0 0 0 2 5 5 5 5 28 0 3 5 5 5 5 4 3 2
98 2 4 4 8 38 5 5 5 5 5 5 0 0 0 0 0 1 0 0 0 0 0 2 0 0 3 5 5 31 79 89 81 6 5 4 2 5 6 5 9 19 5 5 5
57 0 1 82 5 86 6 5 5 5 5 5 0 0 0 2 0 4 5 2 1 3 5 4 5 5 5 40 48 86 99 23 5 5 5 5 4 5 89 56 100 78 6 5 63
3 71 5 100 87 89 15 44 81 17 5 5 4 5 5 2 4 3 5 5 5 5 14 19 68 75 77 68 70 99 50 5 5 5 5 13 6 5 5 84 18 8 5 82 100
10 92 16 68 80 8 65 100 100 14 5 5 5 5 5 0 3 5 5 18 5 5 5 11 5 5 41 62 96 100 13 5 5 5 5 5 5 6 16 5 58 18 69 100 91

GFSSW_prec_cloud_009.txt.gz
Cloud_Cover
97 100 100 100 100 90 2 0 2 100 100 100 100 100 62 100 55 0 0 3 1 95 85 46 18 100 100 80 99 91 43 98 100 85 36 96 73 63 25 8 100 99 81 100 100
8 100 100 100 100 14 5 0 52 100 43 100 99 6 0 100 0 0 0 0 0 12 100 84 80 100 100 19 64 100 100 100 51 44 98 98 73 98 47 15 56 69 46 37 100
5 91 100 100 94 71 30 0 41 100 97 100 95 40 21 20 0 0 0 0 0 4 36 32 58 100 95 7 98 100 100 97 99 100 100 99 95 90 100 82 100 91 26 99 97
5 86 100 100 100 95 39 1 36 82 100 100 16 13 7 5 1 1 0 0 0 5 100 88 77 55 5 31 100 100 100 100 100 100 100 100 99 63 74 100 100 70 5 5 96
5 14 100 100 100 71 80 36 66 100 100 100 71 22 39 47 8 23 0 0 4 5 100 96 66 98 100 100 100 99 100 100 84 100 100 76 100 100 45 97 100 76 40 100 11
5 20 100 100 100 81 100 100 100 99 100 100 50 5 100 1 0 3 59 27 26 6 100 100 100 12 90 100 98 100 100 100 100 100 100 100 100 97 84 80 86 13 8 100 100
5 9 100 100 100 100 100 98 98 72 100 96 2 100 5 0 38 1 100 100 61 100 75 75 100 64 100 100 100 100 100 100 100 100 100 100 100 100 100 100 100 100 100 86 100
5 7 100 93 100 100 99 100 78 95 62 1 59 37 0 10 100 5 37 21 96 22 98 97 99 81 100 100 100 100 100 100 100 100 100 84 100 82 88 100 100 100 16 58 97
38 5 79 97 100 100 95 99 70 40 6 18 16 1 1 61 68 2 5 100 98 52 71 91 100 100 100 100 100 100 100 100 100 100 91 93 100 100 35 100 97 58 100 100 100
51 84 5 47 96 100 89 62 6 3 4 2 3 1 2 93 23 2 1 100 84 76 100 99 100 100 100 100 100 100 100 100 100 91 67 93 100 100 79 66 100 95 100 100 100
100 14 5 34 100 100 32 0 2 0 0 0 0 0 4 57 100 51 68 100 100 92 100 100 100 100 100 100 100 100 100 100 98 100 100 100 100 19 11 97 97 65 75 61 74
35 19 54 44 100 100 14 4 4 3 0 0 0 0 4 50 61 100 96 99 100 100 100 100 100 100 100 100 100 100 100 98 100 100 100 82 85 38 13 19 50 88 72 60 40
28 17 96 100 100 82 3 5 2 4 0 0 0 1 21 3 51 54 15 71 100 100 100 100 100 100 100 100 100 100 100 100 100 100 79 100 76 81 80 45 7 2 5 10 10
10 10 100 100 100 100 6 5 5 0 1 0 0 1 5 5 5 99 26 49 100 100 100 100 100 100 100 100 95 100 100 100 100 74 96 9 97 94 44 1 5 5 4 1 0
34 100 100 100 100 100 91 5 5 5 33 63 4 0 5 3 35 93 60 89 100 100 100 99 100 100 100 100 100 100 100 100 100 6 100 100 4 100 99 1 5 4 3 8 51
100 100 100 100 100 100 100 12 8 13 44 4 0 0 5 5 3 4 45 63 95 78 100 100 90 94 99 100 100 100 100 100 47 98 66 6 100 100 90 92 20 5 3 1 0
100 100 100 100 100 100 100 81 16 5 2 1 0 2 97 5 22 99 19 11 100 86 98 100 100 100 100 99 100 100 100 68 83 99 12 67 6 73 84 70 4 0 0 0 0
100 100 100 100 100 100 96 100 74 3 24 0 0 0 5 5 1 11 90 96 100 100 100 100 100 69 78 98 95 13 99 16 100 94 89 48 4 46 0 0 0 0 0 0 0
100 100 100 100 100 100 25 67 6 5 5 0 0 0 5 3 5 5 5 50 11 8 100 77 100 100 89 70 51 63 5 6 29 45 1 0 19 75 0 0 0 1 0 0 0
100 100 100 100 100 86 95 100 5 3 0 0 0 0 5 0 0 3 5 43 5 5 5 38 91 8 52 74 10 5 5 3 0 0 3 63 80 31 0 0 0 2 0 0 0
100 100 99 100 100 49 93 100 19 0 0 0 0 0 26 5 0 5 66 2 0 3 5 24 27 19 6 5 9 3 0 0 1 13 5 2 28 0 0 0 0 0 2 0 5
73 100 99 100 53 94 97 100 8 1 0 0 0 0 3 5 5 5 27 5 13 18 5 6 2 3 1 1 0 0 5 5 0 0 0 0 0 0 4 2 5 5 5 8 6
100 100 100 100 77 100 100 96 3 5 0 0 0 0 5 7 5 16 5 5 2 0 0 0 0 5 5 0 0 1 0 0 0 0 4 23 4 0 4 0 5 9 5 5 5
100 100 100 100 100 100 100 12 4 3 4 0 3 3 60 49 4 5 5 0 0 0 0 0 0 1 5 88 5 5 5 5 5 5 5 0 0 0 4 6 19 4 2 2 5
72 100 100 100 100 96 25 5 0 1 5 0 2 48 60 8 5 5 5 0 0 0 0 0 0 5 5 1 3 11 40 69 5 5 5 0 0 2 5 12 5 10 5 4 5
35 50 96 80 5 99 14 3 5 5 5 1 7 93 31 5 3 8 2 5 1 3 2 0 5 3 0 3 14 77 65 2 3 5 5 1 4 5 4 5 5 5 5 5 5
72 99 100 98 6 66 8 5 5 32 4 5 62 100 20 5 5 5 5 4 6 5 5 5 3 5 5 5 5 79 5 5 0 0 4 5 5 5 4 4 5 5 5 5 5

GFSSW_prec_cloud_012.txt.gz
Cloud_Cover
5 0 40 100 28 100 26 0 0 0 0 2 44 84 7 0 0 0 0 0 0 0 0 34 28 100 100 100 73 29 40 100 100 96 100 100 100 73 94 100 43 23 45 100 100
5 1 3 99 92 98 100 81 0 0 0 57 9 2 0 0 0 5 0 0 0 0 0 70 28 100 100 100 100 100 100 95 78 100 100 100 100 100 100 94 72 5 100 100 100
5 5 0 40 100 100 100 53 51 0 0 65 39 0 0 0 4 22 0 0 0 0 0 70 38 51 98 100 92 100 79 100 24 89 100 100 100 100 75 94 95 100 77 100 100
23 5 5 0 100 100 100 100 0 1 99 85 50 0 0 0 14 0 16 2 0 0 72 100 98 100 100 100 79 100 98 100 93 100 100 100 92 100 95 34 100 100 100 100 25
100 91 5 2 99 100 100 99 99 0 100 90 38 0 0 2 0 0 0 1 0 5 92 93 50 96 100 100 57 100 100 98 100 100 100 66 87 62 32 100 100 100 100 100 100
100 100 5 0 93 94 100 100 90 21 100 0 0 0 0 0 0 0 3 25 54 5 83 84 92 100 99 75 66 100 100 100 100 100 100 100 100 4 18 100 100 100 100 84 100
100 90 5 5 54 47 77 100 89 97 31 0 0 0 0 0 0 31 13 99 26 24 100 100 90 53 40 99 100 100 100 100 100 100 100 100 97 36 11 59 94 100 100 100 100
100 20 32 5 5 46 23 100 83 30 33 0 0 0 0 0 0 49 91 4 46 88 72 66 94 43 100 100 100 100 100 100 100 100 100 100 99 43 99 99 28 40 93 99 84
100 100 97 30 68 17 5 0 5 0 0 0 0 0 0 0 1 0 2 99 96 5 43 25 98 90 100 100 100 100 100 100 100 100 100 55 100 100 92 100 100 100 87 18 85
100 100 100 100 6 5 5 2 0 0 3 0 0 0 0 0 22 3 3 10 87 46 96 77 97 99 100 100 100 100 100 100 85 45 100 57 100 100 100 99 100 99 7 12 28
100 100 100 100 22 5 14 2 3 2 0 0 2 0 1 0 0 81 30 99 35 82 52 100 100 100 100 100 100 100 100 78 100 74 68 92 19 5 99 100 100 100 100 73 91
100 100 100 100 89 71 18 4 39 16 4 0 5 0 0 0 0 0 18 43 28 97 100 89 100 100 100 100 100 100 100 100 81 92 97 100 100 100 100 76 13 16 33 5 5
100 100 100 100 100 74 13 6 5 5 5 5 5 0 0 0 0 0 28 21 98 99 100 100 100 100 100 100 100 100 100 88 84 67 100 100 100 100 18 5 36 30 24 6 6
100 100 100 100 100 46 5 5 33 62 57 34 5 0 0 0 0 3 5 49 97 95 96 100 100 100 100 100 100 100 25 90 96 100 100 100 98 99 97 88 79 1 1 5 56
100 100 100 57 100 22 85 5 48 96 83 16 5 0 0 0 27 0 2 47 100 100 100 99 98 100 100 100 94 96 98 48 100 95 100 100 67 84 73 98 36 2 3 0 0
100 100 100 100 49 5 5 5 34 95 100 24 14 0 3 0 3 17 26 20 36 88 100 100 97 100 100 97 100 60 87 21 84 100 100 100 100 83 100 100 98 100 99 33 34
100 100 100 100 8 99 5 47 18 83 39 55 3 5 2 4 7 0 45 84 2 96 92 100 98 100 100 100 97 100 100 92 95 100 99 85 100 100 100 100 100 100 100 11 0
100 100 100 100 98 100 99 97 22 100 67 6 3 5 5 61 4 5 0 0 6 46 100 100 93 95 100 100 100 86 98 100 100 85 57 63 47 100 71 35 19 100 58 0 25
100 100 100 100 100 100 91 87 100 73 88 20 5 10 5 100 4 5 3 0 3 98 74 66 65 100 100 100 100 19 100 49 62 98 76 91 67 5 4 3 37 0 0 0 0
100 100 100 100 100 95 100 100 100 100 81 97 5 5 82 71 1 2 5 2 32 22 70 100 100 96 62 28 57 88 51 14 22 9 12 52 24 72 41 21 0 0 0 0 0
100 64 100 6 31 29 44 100 100 100 97 84 3 5 25 46 2 2 21 98 37 5 77 100 100 100 41 99 24 11 63 9 5 32 53 0 26 73 3 0 0 0 4 0 0
100 100 100 9 5 5 87 100 100 95 18 5 5 60 3 100 5 3 64 52 4 5 3 7 5 97 74 98 22 26 73 9 2 0 1 4 0 0 0 0 0 0 0 0 0
97 10 100 43 2 16 100 100 100 100 100 90 2 19 2 97 70 3 75 67 2 1 3 22 56 83 92 43 8 4 0 1 90 3 0 25 0 0 0 0 0 0 0 2 0
94 42 100 80 14 54 80 100 93 78 100 69 5 43 5 1 5 5 5 51 8 5 5 4 1 0 0 4 92 65 4 5 5 0 0 0 0 0 0 0 0 0 0 4 5
91 14 78 97 33 90 95 100 99 97 100 67 5 1 5 5 5 24 49 68 5 3 1 0 0 0 1 27 21 98 22 14 5 0 0 0 0 0 0 0 0 0 5 4 2
100 100 100 100 100 100 100 100 100 100 99 35 57 5 5 5 5 18 93 6 0 0 0 0 0 0 0 1 5 5 5 4 0 3 5 0 0 0 0 0 5 5 3 5 5
74 77 100 100 100 100 100 100 100 100 18 5 7 55 49 87 29 23 10 87 22 8 1 2 0 0 0 5 5 5 0 0 0 0 0 4 1 0 0 5 0 2 5 5 60

GFSSW_prec_cloud_015.txt.gz
Cloud_Cover
88 70 66 95 31 100 100 100 97 0 0 0 0 1 0 0 0 0 0 0 0 0 0 0 0 19 96 88 100 100 100 100 100 100 99 97 100 100 100 97 100 100 84 100 80
99 100 100 100 100 100 100 100 100 32 0 0 0 25 0 0 3 0 0 0 0 0 0 0 2 54 100 99 100 100 100 100 89 83 96 100 100 100 100 100 84 6 53 98 100
86 100 100 100 100 100 100 100 100 0 0 0 0 5 0 0 0 0 0 0 0 0 0 0 77 95 100 100 100 100 100 100 92 90 100 100 99 99 100 100 49 85 100 100 100
92 100 100 100 100 100 100 100 100 96 0 0 17 0 0 0 0 0 0 2 1 0 0 46 82 94 100 100 100 100 100 100 100 100 100 100 100 100 46 33 66 100 100 100 100
100 100 100 100 100 100 100 100 100 61 0 0 0 0 0 0 0 0 0 9 27 4 0 98 100 35 100 100 100 100 100 100 69 100 100 100 100 100 100 100 10 99 60 100 100
100 100 100 100 100 100 66 24 48 8 0 0 0 0 11 0 0 0 0 7 17 42 2 89 100 82 100 100 91 100 100 100 100 100 100 100 100 100 100 95 100 89 100 100 100
100 100 100 100 100 100 14 5 19 0 3 0 0 0 0 0 0 0 0 1 4 0 2 5 100 60 100 100 91 98 98 100 100 100 100 100 100 100 100 100 77 100 86 100 67
100 100 100 100 100 100 57 5 5 5 0 0 0 1 0 0 0 0 0 1 58 5 5 5 25 86 100 100 100 100 100 100 100 100 100 100 100 100 12 2 2 79 100 100 100
100 100 100 100 100 100 100 9 42 6 0 0 0 0 1 0 0 0 0 2 0 0 3 28 59 62 96 25 95 100 100 100 100 100 100 100 97 81 48 85 10 73 100 100 100
100 100 100 100 100 76 72 17 5 2 1 0 0 0 4 0 0 2 1 0 5 24 60 19 92 79 80 91 100 100 100 100 100 100 35 97 67 100 100 100 100 100 82 57 29
100 100 100 100 100 100 100 85 5 4 0 0 0 0 1 0 0 0 1 5 0 32 5 30 49 60 100 100 100 100 100 100 100 87 24 100 100 23 100 100 100 100 100 100 100
100 100 100 100 100 100 100 72 15 3 0 0 0 0 0 0 0 0 0 5 10 5 89 55 96 100 100 100 100 100 94 93 100 100 46 100 100 98 100 100 100 100 100 100 100
100 100 100 100 100 100 98 28 5 5 0 5 0 0 0 0 0 0 0 3 3 56 95 100 50 66 74 79 82 92 98 100 100 100 85 28 56 99 100 100 100 90 50 96 5
100 100 100 100 100 100 81 100 0 22 0 3 4 0 0 0 0 0 0 0 5 57 57 94 67 54 99 89 97 69 82 96 82 34 88 34 100 94 99 42 52 94 81 5 5
100 100 100 100 100 100 93 3 29 83 11 2 5 0 0 0 0 0 3 49 5 98 97 100 95 100 100 12 12 81 74 46 54 97 93 100 99 21 42 100 100 68 2 27 57
100 100 100 100 100 44 99 97 55 78 75 0 3 0 0 0 0 0 2 5 56 16 100 78 100 98 90 98 100 100 89 98 99 38 94 100 59 85 73 90 91 100 98 96 70
100 100 100 100 100 100 100 76 36 60 32 0 0 4 5 2 0 3 7 0 0 10 29 84 100 100 100 83 100 100 95 18 100 100 99 39 100 100 55 40 96 100 100 37 34
100 100 100 100 100 100 100 85 99 52 40 2 3 2 5 0 0 0 5 0 0 0 5 60 58 90 95 91 84 100 75 85 98 100 100 100 100 81 22 50 100 100 63 11 65
100 100 100 100 100 100 97 100 2 100 9 4 5 5 4 1 6 0 1 0 1 2 2 23 90 91 66 21 68 99 98 60 97 100 100 92 98 99 15 34 24 38 8 90 13
100 100 100 100 98 100 100 61 28 100 53 12 17 5 3 47 38 100 3 0 0 0 1 81 59 98 100 100 75 100 93 84 32 99 100 100 66 3 33 9 10 0 0 36 82
100 100 100 100 70 100 71 72 100 99 37 50 63 40 5 38 30 5 0 3 2 29 90 38 91 100 100 100 51 6 40 9 5 69 100 45 62 31 5 5 1 0 0 0 0
100 100 100 100 54 100 62 100 100 78 5 20 90 96 5 64 97 1 0 54 12 100 97 82 68 100 100 99 29 5 24 5 53 5 60 5 8 2 4 5 4 0 0 0 0
100 99 96 99 82 24 98 86 100 100 73 100 100 100 5 100 97 89 0 100 95 92 45 90 100 42 54 34 5 5 7 71 82 5 5 1 0 0 0 0 0 0 0 0 0
100 85 100 59 16 52 84 100 100 100 17 100 100 94 25 100 100 80 1 72 80 6 28 5 4 24 18 61 5 41 22 31 20 2 2 0 0 0 0 0 0 0 0 0 0
100 59 97 100 80 4 27 100 95 11 50 100 100 100 29 9 100 100 47 5 5 20 22 32 5 5 8 10 10 5 8 15 30 0 0 0 0 0 0 4 4 4 0 1 9
100 8 32 70 90 0 7 50 81 100 25 86 100 69 5 3 1 5 2 2 5 5 5 5 5 0 0 0 0 4 3 5 4 3 5 3 0 0 0 5 3 0 7 40 20
100 96 74 49 22 0 0 3 97 59 6 98 100 34 1 2 1 0 7 0 5 30 14 2 0 1 0 0 0 0 0 0 0 0 0 0 0 0 1 4 1 3 4 5 5

GFSSW_prec_cloud_018.txt.gz
Cloud_Cover
100 100 100 100 100 100 100 100 100 100 29 0 0 0 0 0 0 0 0 0 0 0 0 0 0 0 0 5 34 16 100 100 100 97 100 86 98 100 100 100 100 100 99 91 100
100 100 100 100 100 100 66 94 100 100 24 0 0 12 5 0 0 0 0 0 0 0 0 0 0 0 2 28 80 99 100 100 100 96 68 47 100 100 100 100 100 100 100 100 100
100 100 100 100 100 100 40 100 100 100 78 0 0 4 0 0 2 0 0 0 0 0 0 0 0 4 26 100 98 100 100 100 100 53 100 100 100 100 100 100 41 100 100 100 100
100 100 100 100 100 100 30 100 96 100 26 2 0 0 0 0 0 0 0 0 3 5 0 2 0 7 100 100 100 100 100 100 100 100 100 100 100 100 97 90 30 100 100 100 100
100 100 100 100 100 100 100 100 100 99 2 5 28 2 0 0 0 0 0 0 1 3 0 3 37 62 100 93 96 100 100 100 100 100 100 100 100 100 99 74 100 100 100 100 100
100 100 100 100 100 100 100 100 100 60 5 100 5 1 0 0 0 0 0 0 0 0 0 6 100 31 100 99 79 60 100 100 100 100 100 100 94 100 100 100 100 100 100 100 100
100 100 100 100 100 100 100 100 100 100 44 27 5 5 0 0 0 0 0 0 0 0 0 0 100 73 100 100 100 99 100 100 100 100 100 100 100 100 94 100 100 100 100 100 100
100 100 100 100 100 100 100 100 100 100 62 5 5 2 0 0 0 0 0 0 0 0 2 0 95 99 79 100 100 100 100 100 100 100 100 100 100 100 100 98 41 100 100 100 100
100 100 100 100 100 100 100 100 100 100 44 5 5 0 1 0 0 0 0 0 0 0 5 2 26 74 100 94 91 100 100 100 100 99 100 100 100 100 100 100 77 80 100 100 100
100 100 100 100 100 100 100 100 99 75 34 5 5 0 0 0 0 0 0 0 0 0 2 1 13 34 100 100 100 94 100 100 100 95 98 100 100 100 100 79 7 80 54 100 100
100 100 100 100 100 100 100 96 100 93 53 5 5 0 2 0 0 0 0 0 0 0 2 5 18 5 100 64 100 98 87 100 100 100 98 100 100 100 40 100 83 100 96 85 100
100 100 100 100 100 100 100 91 100 99 65 8 5 2 5 4 0 0 0 0 0 0 20 5 34 59 88 49 100 100 99 89 70 100 100 45 86 100 71 94 99 100 97 99 29
100 100 100 100 100 100 100 100 100 98 96 21 5 2 5 2 0 0 0 0 0 0 42 48 67 66 100 99 100 99 67 100 100 100 98 97 96 98 100 100 100 100 100 100 79
100 100 100 100 100 100 100 100 100 100 100 15 5 5 4 2 0 0 0 0 0 4 92 75 98 100 99 100 100 100 100 100 100 100 100 100 91 72 68 67 95 100 100 100 100
100 100 100 100 100 100 100 100 100 100 100 19 19 2 0 5 0 0 0 0 0 12 16 94 99 100 100 99 100 100 100 84 65 90 71 89 79 38 100 98 96 80 99 100 10
100 100 100 100 100 100 100 100 100 100 100 99 19 0 0 4 0 0 0 0 0 0 5 29 70 98 71 100 92 29 30 100 100 81 9 5 28 47 67 100 95 100 99 100 69
100 100 100 100 100 100 100 100 100 100 100 43 5 2 0 5 0 0 0 0 3 0 5 5 32 100 98 83 55 55 92 99 76 59 13 7 6 94 82 74 17 21 24 24 5
100 100 100 100 100 100 100 100 100 100 100 34 5 5 0 2 0 0 0 0 0 2 8 54 5 12 90 22 61 93 24 71 27 38 33 35 5 29 49 100 96 71 0 2 5
100 100 100 100 100 100 100 100 100 100 98 5 5 0 3 5 2 0 0 0 0 0 0 5 2 27 57 98 100 92 13 70 95 71 5 87 12 99 8 66 86 12 10 5 1
100 100 100 100 100 100 100 100 100 100 9 0 1 0 0 0 1 5 0 0 0 0 0 1 90 49 18 5 31 8 6 89 98 91 23 37 5 40 33 22 5 4 3 0 0
100 100 100 100 100 100 100 100 100 100 7 5 0 0 0 0 5 0 0 0 0 0 0 0 0 90 70 97 99 34 12 12 5 32 12 29 3 98 47 5 47 13 0 1 5
100 93 100 100 100 44 100 100 100 100 5 1 2 5 1 5 2 5 3 0 0 2 0 1 15 30 67 24 90 100 98 5 5 4 14 92 0 5 3 60 6 5 5 4 0
100 100 100 100 100 56 100 100 100 92 5 0 5 5 41 6 52 5 26 2 6 3 0 1 28 67 100 4 92 8 29 5 5 5 47 5 0 5 0 0 0 1 2 0 0
100 100 100 100 27 48 16 100 100 100 6 5 12 100 17 93 54 5 5 1 91 67 100 100 44 54 100 90 7 6 53 12 5 54 5 5 1 0 0 0 0 0 0 0 5
100 97 87 100 99 99 87 100 100 9 4 51 5 96 73 98 5 5 19 4 36 64 100 78 35 61 100 100 25 99 95 54 15 17 5 0 0 0 0 0 5 2 0 0 1
100 97 90 48 100 75 82 32 100 100 26 45 99 100 63 36 5 5 88 6 56 5 5 90 11 5 5 47 14 82 46 16 2 2 0 0 0 0 40 74 12 1 2 5 5
100 92 87 67 100 82 96 100 98 99 49 67 93 81 86 95 29 45 13 100 88 1 0 0 0 0 0 0 0 0 0 0 0 94 5 22 5 5 5 4 5 5 5 4 5

GFSSW_prec_cloud_021.txt.gz
Cloud_Cover
100 100 100 100 100 100 100 100 100 100 100 100 100 5 1 0 3 0 0 0 0 0 0 0 0 0 0 0 0 0 1 0 58 100 100 94 62 1 100 100 100 100 100 83 100
100 100 100 100 100 97 82 100 100 100 100 100 100 100 4 1 35 0 0 0 0 0 0 0 0 0 0 0 0 43 9 4 61 97 95 100 90 98 100 100 100 100 100 100 100
100 100 100 100 100 100 98 100 100 100 100 100 100 100 5 2 7 0 0 0 0 0 0 0 0 0 0 3 5 84 100 5 61 90 100 100 100 100 100 100 100 100 100 100 100
100 100 100 100 100 100 100 65 100 100 100 100 100 100 26 6 0 0 0 0 0 0 0 0 0 2 49 51 100 35 12 98 99 100 100 100 100 100 100 98 74 100 100 86 100
100 93 100 100 100 95 96 40 15 100 100 100 100 100 100 5 1 0 0 0 0 0 0 0 0 3 100 100 46 100 100 45 100 100 100 100 100 100 100 100 98 87 100 100 100
100 100 100 100 100 100 100 66 90 100 100 100 100 100 100 5 0 0 0 0 0 0 0 0 4 5 87 76 100 100 99 82 100 100 100 100 100 100 100 100 93 100 100 100 100
100 100 100 100 100 100 100 7 100 100 100 100 100 100 99 5 0 0 0 0 0 0 0 0 9 12 56 17 100 94 100 100 100 100 100 100 100 100 100 100 100 100 100 100 100
100 100 100 100 100 100 100 90 100 100 100 100 100 43 6 2 0 0 0 0 0 0 0 0 2 18 64 88 97 100 100 100 100 100 100 100 100 100 94 100 100 100 100 100 100
100 100 100 100 100 100 100 74 95 100 100 100 77 5 5 5 0 0 0 0 0 0 0 3 0 30 59 100 96 90 100 100 100 100 100 100 100 100 100 100 100 100 100 100 100
100 100 100 100 100 94 97 96 100 100 100 100 51 90 7 5 4 0 0 0 0 0 0 0 1 5 79 64 96 62 19 100 100 100 100 100 100 89 100 100 100 100 100 100 100
100 100 100 100 100 100 100 100 100 100 100 93 66 100 84 5 5 0 0 0 0 0 0 0 1 2 51 100 100 100 96 93 100 100 100 100 100 84 100 100 100 100 100 100 100
94 90 100 100 100 97 85 91 100 100 81 78 95 100 82 5 5 0 4 0 0 0 0 0 4 3 14 36 96 100 100 94 100 100 61 100 100 100 100 99 8 44 100 97 87
77 100 100 100 100 100 84 100 100 85 100 99 100 100 100 22 5 5 2 0 0 0 3 0 23 98 100 85 77 99 100 100 100 100 100 100 100 100 100 100 99 90 100 100 89
45 95 100 100 92 95 100 100 100 100 100 100 100 100 100 64 5 5 2 0 0 0 1 1 5 21 100 88 100 100 99 82 100 99 100 94 100 100 98 39 67 100 100 100 100
100 100 100 100 100 100 100 100 100 100 100 100 87 100 100 87 5 11 5 0 0 0 0 66 25 6 5 88 100 100 100 58 62 27 76 98 76 99 65 100 100 96 56 34 69
100 100 100 100 100 100 100 100 100 100 100 100 100 100 100 91 7 8 4 0 0 0 0 92 28 49 6 83 88 66 100 100 89 89 62 95 100 100 84 100 78 84 51 6 59
100 100 100 100 96 100 100 100 100 100 100 99 100 100 100 100 6 43 3 5 0 0 0 42 48 30 24 57 99 100 100 100 90 98 58 100 66 8 87 94 83 24 5 39 5
100 100 100 100 86 83 100 100 100 100 100 100 100 100 100 100 25 5 4 5 0 0 2 5 6 23 80 62 100 83 100 100 100 100 99 95 95 11 83 35 43 82 98 87 68
89 100 100 100 100 100 99 100 100 100 100 100 100 100 100 83 28 0 4 4 0 0 0 5 5 5 28 91 90 98 46 7 5 97 81 18 62 5 27 14 5 5 28 26 6
89 100 100 100 100 100 95 100 100 100 100 100 100 100 100 5 4 0 2 5 0 0 0 2 5 4 56 30 95 100 5 5 5 10 5 45 66 100 41 88 5 43 6 5 6
100 100 100 100 100 100 76 100 100 100 100 100 100 100 80 5 1 0 0 2 3 0 0 0 0 22 12 53 98 99 30 25 25 8 5 7 99 68 8 30 98 44 2 5 5
100 88 100 37 100 100 100 100 100 100 100 100 100 100 100 32 5 2 2 0 0 2 0 0 0 1 1 94 70 97 73 89 23 50 5 4 5 0 5 5 97 7 0 4 0
100 96 100 16 100 90 100 100 100 100 100 100 100 100 98 68 36 5 5 0 0 0 0 0 0 0 0 4 100 99 75 95 83 4 5 4 3 32 5 14 99 79 0 0 0
100 100 100 56 100 100 100 100 100 100 100 100 100 100 72 5 7 5 5 4 1 4 5 0 0 0 0 45 58 7 5 5 5 1 18 25 5 52 42 94 23 0 7 4 0
100 78 98 100 100 100 100 100 100 100 98 100 42 100 80 76 57 81 6 3 5 0 4 3 2 39 5 5 5 2 1 4 5 5 5 8 5 4 89 34 0 5 6 0 0
100 94 70 100 100 100 100 100 100 100 100 72 100 98 100 100 100 100 5 0 2 3 5 1 45 98 99 64 5 5 0 5 5 91 5 5 1 0 0 0 0 3 3 0 5
100 100 83 100 34 99 54 100 100 100 100 100 100 100 100 100 86 11 5 0 81 100 14 26 38 3 1 3 5 5 92 100 43 11 3 1 0 0 0 3 1 0 0 5 5

GFSSW_prec_cloud_024.txt.gz
Cloud_Cover
100 100 100 100 100 100 100 100 100 67 99 24 45 100 100 100 99 6 66 0 0 0 0 0 0 0 0 0 0 0 0 1 1 32 100 100 90 100 99 68 76 100 100 99 100
100 100 100 100 100 100 100 100 100 100 100 21 24 72 100 100 100 80 14 0 0 0 0 0 0 0 0 0 0 78 5 5 5 89 100 92 100 100 81 70 100 100 100 100 100
100 100 100 100 100 100 100 100 100 100 45 10 23 89 100 100 100 42 5 1 0 0 0 0 0 0 0 0 4 93 54 66 5 97 100 100 100 100 100 100 100 100 100 100 100
99 100 100 100 100 100 100 95 75 61 79 12 73 66 100 100 100 24 5 0 0 0 0 0 0 0 0 5 100 100 86 100 100 100 100 100 100 100 100 100 100 99 100 100 100
100 100 100 100 98 100 100 99 99 100 99 13 63 98 100 100 87 85 11 0 0 0 0 0 0 0 1 8 23 91 99 86 100 100 100 100 100 100 100 100 100 100 100 100 100
100 100 100 100 100 100 97 100 100 100 11 5 37 100 100 100 90 6 0 0 0 0 0 0 0 2 2 94 48 13 100 88 100 100 100 100 100 100 100 100 100 100 100 98 100
100 100 100 100 100 100 100 100 100 100 41 53 95 100 100 95 14 1 0 0 0 0 0 0 0 3 0 30 16 63 100 100 100 100 100 100 100 100 98 100 100 100 100 100 100
100 100 100 100 100 100 100 100 100 100 100 100 60 100 100 100 5 6 2 0 0 0 0 0 0 0 4 15 78 86 88 100 100 99 100 100 96 100 100 100 100 100 100 100 100
100 100 100 100 100 100 100 100 100 100 100 100 98 99 100 58 96 5 2 0 0 0 0 0 0 1 5 77 87 98 100 85 97 100 100 100 84 100 100 100 100 100 100 100 100
100 100 100 99 100 100 100 100 100 100 100 100 100 99 100 100 100 92 5 0 0 0 0 0 0 0 5 20 89 65 100 27 96 100 100 51 50 100 100 100 100 100 100 100 100
100 100 100 81 100 100 100 100 100 100 100 100 73 19 100 100 100 100 6 0 0 0 0 0 0 0 0 5 10 54 99 94 100 87 100 100 89 100 100 100 100 100 100 100 100
100 98 93 94 100 100 95 100 100 98 72 100 100 100 99 100 97 100 34 5 0 0 0 0 0 0 0 6 100 92 93 79 100 100 53 100 100 100 100 100 100 100 100 100 100
100 100 100 100 100 100 93 87 100 96 98 100 100 100 61 100 93 100 68 5 2 0 0 0 0 4 3 51 88 98 99 100 96 74 70 100 98 100 49 100 87 12 84 100 100
100 100 100 100 100 22 75 98 90 95 94 99 29 100 99 60 99 100 100 7 5 0 0 0 0 0 4 3 33 98 93 100 100 100 100 100 70 100 100 97 50 6 69 79 98
100 100 58 100 88 21 95 41 100 96 84 98 96 92 100 100 80 100 100 21 5 0 0 2 0 0 5 1 4 98 53 100 100 100 100 100 47 64 44 95 38 71 27 45 60
100 77 92 99 100 100 88 100 62 100 81 29 40 98 100 94 93 62 70 79 3 4 1 0 0 5 5 4 5 5 92 78 100 100 100 99 99 94 23 69 98 87 87 84 85
100 72 34 100 100 34 100 93 94 80 99 94 47 42 100 100 87 10 100 100 8 2 5 0 0 14 5 5 26 100 81 82 92 86 100 100 100 100 97 100 100 95 41 33 8
100 98 17 98 100 66 53 100 95 98 100 100 100 100 81 73 8 100 100 100 28 2 2 1 1 7 5 13 4 34 90 86 85 100 99 87 100 97 99 99 100 88 26 43 36
100 100 4 53 100 100 95 89 100 100 100 100 100 100 66 29 14 100 100 100 18 3 1 0 2 5 5 30 43 10 6 57 83 99 66 66 18 100 23 99 100 100 57 31 21
100 100 36 89 100 100 100 15 100 100 100 100 100 98 100 60 31 100 100 100 7 5 0 5 0 39 96 94 65 89 34 5 29 5 6 19 14 100 11 54 9 57 100 100 98
100 100 5 9 100 100 100 54 100 100 100 100 100 100 100 8 75 100 100 84 5 5 2 2 0 48 30 10 87 100 86 10 5 95 38 5 40 16 97 74 67 49 30 23 26
100 94 23 5 100 100 100 80 100 100 100 100 100 100 100 100 100 100 100 61 31 5 0 3 1 8 5 5 54 43 99 36 25 5 60 58 91 59 100 100 100 42 8 5 5
100 94 30 41 89 90 56 100 100 100 100 100 100 100 100 100 100 100 100 98 17 5 4 1 5 3 4 8 4 5 37 100 100 3 5 5 26 5 5 30 90 100 98 15 5
100 99 98 38 0 4 97 100 100 100 100 100 100 100 100 100 100 100 100 87 6 5 1 30 2 0 0 2 63 31 37 16 86 5 57 18 4 0 1 18 78 28 24 1 0
100 99 96 100 95 4 100 100 100 100 100 100 100 100 100 100 100 100 100 99 14 3 5 47 16 3 0 0 0 0 4 5 4 7 15 70 81 2 30 75 100 100 8 0 0
100 96 71 24 69 76 100 100 100 100 100 100 100 100 100 100 100 100 100 68 5 4 0 58 5 5 5 5 5 4 5 4 5 5 11 23 91 5 5 5 19 21 5 0 0
100 68 91 19 100 98 5 100 100 100 100 100 100 100 100 100 100 100 100 8 6 5 5 1 1 3 15 100 27 3 9 1 4 5 4 37 100 9 0 5 5 1 2 0 5

GFSSW_prec_cloud_027.txt.gz
Cloud_Cover
99 46 68 6 74 100 99 100 100 100 100 100 81 83 64 12 12 100 90 46 0 0 0 0 0 0 0 0 0 0 0 10 70 49 11 72 98 100 100 100 100 100 50 97 100
99 100 90 90 73 75 100 100 100 100 100 100 92 52 5 8 32 96 100 20 0 0 0 0 0 0 0 0 0 4 4 21 18 50 60 98 92 100 100 81 74 100 100 100 100
100 100 100 100 99 100 94 100 92 100 100 100 58 13 5 6 70 100 100 5 4 0 0 0 0 0 0 0 5 0 11 10 5 38 95 100 100 100 74 95 100 100 100 100 100
100 100 100 100 100 100 100 100 100 100 100 81 13 5 5 6 40 100 100 81 2 0 0 0 0 0 0 0 2 4 100 89 6 100 99 100 100 100 100 100 100 100 100 100 100
100 100 100 100 100 100 100 100 99 100 100 60 14 6 5 12 23 100 24 5 1 5 0 0 2 0 0 0 5 2 26 98 100 100 100 100 100 100 100 100 100 100 100 100 100
33 100 100 100 100 99 100 100 100 100 100 92 100 42 8 97 80 100 41 5 5 0 0 0 3 0 0 0 2 5 83 14 99 100 100 100 100 100 100 100 100 100 100 67 99
5 53 100 100 100 100 100 100 100 100 100 100 100 99 89 100 91 100 14 5 2 0 0 0 0 0 0 3 0 4 74 94 100 100 100 100 100 100 100 100 100 83 91 71 100
6 10 25 100 100 100 100 100 100 100 100 100 98 91 100 92 10 42 5 5 0 1 2 0 0 0 0 1 2 45 94 100 100 100 98 97 100 100 100 100 67 100 100 99 100
35 96 60 99 64 84 100 100 100 100 100 100 46 28 26 5 5 57 6 5 1 5 0 0 0 0 0 2 5 5 51 85 100 99 94 72 98 98 100 100 100 100 100 100 99
100 94 48 78 88 89 63 100 97 100 100 100 98 33 87 52 34 10 12 5 5 2 1 0 0 0 0 4 5 5 27 40 98 57 8 99 100 100 100 100 100 100 100 100 100
100 100 100 100 100 57 70 33 77 73 100 71 90 100 100 55 12 100 27 5 5 3 5 0 0 0 0 0 2 4 5 47 5 14 22 100 97 100 100 100 100 100 100 100 100
100 100 100 100 100 77 100 54 5 71 81 100 100 100 100 94 9 78 79 5 5 5 5 2 3 0 0 0 0 5 5 5 18 70 44 91 100 100 95 93 100 100 100 95 100
100 100 100 100 100 100 99 52 92 100 76 100 100 100 88 7 72 76 7 5 4 5 2 0 2 0 0 0 2 5 88 74 74 100 100 100 100 100 88 95 100 100 100 84 68
100 100 100 100 100 100 100 100 100 100 100 100 100 85 36 100 80 95 92 5 25 3 5 3 3 5 0 1 70 15 10 82 100 96 100 99 100 100 100 100 100 100 100 94 90
100 100 100 100 100 100 100 100 100 100 100 100 99 100 100 96 100 100 100 100 67 1 5 0 5 5 0 0 8 9 10 91 100 96 100 100 100 100 100 100 100 100 95 100 100
100 100 76 85 100 100 100 100 100 100 100 100 100 99 100 98 91 100 100 95 5 2 5 3 2 5 0 0 0 4 5 10 82 100 99 98 100 100 70 79 100 100 100 100 100
100 100 100 55 82 100 100 100 100 100 100 78 99 14 100 99 100 32 100 5 5 4 5 0 0 2 1 0 0 18 50 8 27 100 100 100 100 100 96 79 82 90 96 100 95
100 100 100 36 100 6 99 92 98 34 5 6 41 13 78 100 100 100 100 27 5 5 5 1 4 5 5 1 1 5 74 33 94 84 100 100 100 99 45 94 97 100 100 59 86
100 100 100 26 100 98 96 100 0 4 5 5 52 9 48 100 99 100 100 95 10 5 5 0 10 5 5 5 5 5 48 91 87 50 100 100 100 100 33 70 34 100 96 100 100
99 100 100 100 100 99 100 76 3 0 0 20 83 90 100 100 100 100 100 99 16 16 7 3 5 2 5 5 5 5 23 4 20 67 85 100 100 100 100 100 100 100 95 57 100
100 100 44 100 100 100 92 5 4 3 0 41 93 98 100 100 100 100 100 85 94 41 5 5 5 4 5 5 5 60 60 45 8 5 36 81 100 100 100 100 100 100 100 100 100
100 96 6 5 100 100 73 5 2 0 0 9 100 100 100 100 100 100 100 100 7 100 98 5 5 1 5 24 34 5 5 65 58 100 61 25 100 100 26 100 95 54 100 71 76
100 86 32 5 100 98 57 8 3 0 4 98 100 100 100 99 100 100 100 46 68 100 100 78 19 3 1 5 4 3 5 8 72 59 26 16 100 100 5 21 60 37 100 98 100
100 100 100 62 6 45 87 9 25 0 76 87 100 100 100 100 100 100 100 32 100 100 100 99 6 1 5 0 2 0 5 5 67 4 18 46 100 100 5 4 5 8 77 100 32
100 94 71 91 100 65 5 5 5 3 100 100 100 100 100 100 100 100 100 71 100 100 100 97 5 3 5 0 1 0 0 0 1 0 0 90 100 100 3 5 26 22 16 14 5
100 28 19 5 6 100 98 44 15 53 100 5 100 100 100 100 100 100 100 100 100 100 100 95 10 3 5 5 0 0 0 0 0 0 0 5 91 97 5 49 88 100 76 10 5
83 8 10 5 57 100 67 85 67 99 92 59 100 100 100 100 100 100 100 100 100 100 90 99 10 5 5 5 5 0 7 27 5 0 5 84 85 83 74 80 100 28 20 50 6

GFSSW_prec_cloud_030.txt.gz
Cloud_Cover
100 100 100 94 88 100 89 98 85 83 96 100 100 76 31 17 50 5 4 5 4 0 0 0 0 0 0 0 0 0 1 88 12 2 0 57 95 100 95 100 100 8 75 78 100
100 100 100 100 98 100 95 81 43 88 100 100 95 58 25 6 49 5 6 5 2 3 0 0 0 0 0 0 0 0 0 12 11 82 95 74 74 92 78 100 98 83 100 100 100
34 12 80 100 100 100 98 100 99 94 100 100 96 25 87 22 7 9 5 5 0 0 0 0 0 0 0 0 0 0 7 0 2 7 7 100 100 100 92 100 100 99 100 100 100
20 77 92 98 99 100 100 98 67 56 83 93 99 78 56 18 4 5 4 5 0 0 0 0 0 0 0 0 0 3 14 93 23 4 38 79 100 100 100 100 100 100 100 100 100
5 46 72 69 80 96 100 100 96 100 100 99 70 60 96 50 5 0 5 8 0 0 0 0 0 0 0 0 0 2 4 70 59 77 84 30 98 100 100 100 100 100 100 100 98
90 8 5 5 34 75 100 100 100 100 100 100 98 100 100 55 5 12 46 46 0 0 0 0 0 0 0 0 0 0 5 5 83 100 100 100 100 100 100 100 100 100 100 100 100
93 96 5 5 5 88 100 100 100 100 100 100 100 100 100 96 32 5 1 5 0 0 0 1 0 0 0 0 0 0 38 0 98 100 100 100 100 100 100 100 100 100 100 100 100
100 100 90 10 8 69 99 100 100 100 100 100 100 100 100 79 85 5 0 5 0 0 0 0 4 2 0 0 0 0 39 98 100 99 99 71 100 94 79 100 72 89 54 45 100
100 100 100 100 14 49 10 88 100 100 74 100 100 100 82 23 8 4 3 32 5 0 0 0 5 4 0 0 1 1 100 93 66 100 98 45 16 99 71 99 59 88 98 58 16
100 100 99 99 100 100 89 85 95 98 96 90 44 82 32 9 25 99 80 78 16 0 0 1 5 5 4 0 57 100 100 90 100 50 64 65 76 41 50 88 100 84 99 100 99
100 85 100 100 100 100 100 83 56 10 32 5 87 76 24 61 100 100 100 64 64 1 3 4 8 5 5 4 1 0 2 100 53 5 5 7 61 100 54 55 82 100 100 100 100
100 100 100 13 98 99 100 99 100 100 100 30 39 39 5 6 86 100 92 29 92 7 3 5 5 5 5 5 0 0 0 23 9 6 9 91 99 85 82 53 100 6 59 100 55
100 100 100 68 54 97 80 100 100 100 100 100 84 6 5 32 100 100 85 49 100 17 5 5 13 3 5 4 0 0 25 9 24 58 96 82 80 81 49 85 80 80 96 100 13
100 100 100 100 98 100 77 100 100 100 100 100 100 100 23 97 100 100 100 100 92 87 76 6 24 19 5 5 4 5 2 3 30 100 100 100 100 100 100 100 50 85 100 100 100
100 100 100 100 100 100 100 98 100 100 100 100 100 100 100 100 100 100 100 91 90 100 100 63 8 23 5 5 5 72 5 6 100 93 100 100 100 58 98 23 15 41 100 100 58
100 100 100 100 100 100 100 100 100 100 100 100 98 100 100 100 100 100 100 100 100 100 82 10 26 23 5 4 5 0 5 5 54 50 98 100 100 100 91 22 8 66 100 100 93
100 99 88 100 41 96 100 100 100 100 99 100 100 100 100 100 100 100 100 100 100 100 100 5 65 25 41 5 5 5 2 99 100 95 100 100 100 100 100 38 54 11 53 62 100
7 100 50 97 62 100 100 100 100 100 100 100 100 100 100 100 100 100 100 94 91 100 98 4 15 66 88 5 8 25 6 87 100 97 100 100 100 100 99 100 100 39 21 73 79
2 72 100 18 100 100 100 96 94 100 100 100 100 100 100 100 100 100 100 100 100 100 29 5 30 6 57 6 5 16 2 89 83 99 96 73 100 100 97 69 95 5 5 72 7
5 65 100 60 51 96 100 25 10 25 100 100 91 100 100 100 100 100 100 100 100 100 100 11 18 16 8 5 37 72 75 10 22 97 100 100 100 100 94 77 98 45 27 63 70
89 100 100 62 77 99 98 53 2 100 100 100 92 100 78 100 100 24 100 79 100 100 100 5 5 5 14 7 98 84 30 6 74 20 100 97 100 100 90 17 5 78 95 100 100
97 100 100 99 100 100 88 1 2 5 100 100 100 76 42 100 99 80 100 91 100 100 64 5 1 5 21 5 31 98 100 92 99 84 4 18 100 100 70 23 6 67 99 100 100
87 100 100 100 89 100 1 1 37 90 8 30 100 65 32 95 100 94 100 96 100 100 80 97 6 40 100 6 5 60 51 35 23 5 6 62 98 100 92 20 5 5 5 5 5
100 100 100 100 5 27 0 0 11 84 9 79 28 99 6 100 100 100 100 100 100 100 53 25 1 5 100 69 12 4 5 5 5 5 1 1 3 97 75 14 5 7 5 5 5
100 100 64 100 82 1 0 0 5 80 12 94 42 6 30 100 100 100 100 100 100 100 100 100 43 6 100 86 7 8 5 5 9 0 5 4 5 100 46 5 5 4 5 5 92
100 92 94 35 20 5 1 0 5 5 99 5 47 93 99 100 100 100 100 100 100 100 20 100 18 18 100 84 6 5 5 4 0 1 0 0 1 51 70 5 5 5 12 59 42
98 98 92 94 73 23 4 2 0 5 97 78 100 100 97 100 100 100 100 100 100 100 100 100 60 91 100 15 25 21 5 34 0 4 5 0 1 0 5 5 5 5 5 56 78

GFSSW_prec_cloud_036.txt.gz
Cloud_Cover
5 5 70 98 100 99 10 7 13 98 100 64 100 100 76 5 5 5 5 82 96 23 1 0 0 0 0 0 0 0 1 72 80 94 3 68 42 100 100 100 100 100 100 100 100
26 5 64 2 5 0 0 0 7 0 3 8 5 5 3 5 5 17 52 100 84 0 2 0 0 0 0 0 0 0 39 76 86 23 7 3 1 100 100 100 100 100 100 100 100
94 5 87 33 38 5 2 0 18 31 0 0 3 5 5 0 0 30 72 100 24 1 4 0 0 0 0 0 0 0 35 93 73 1 0 17 100 100 100 100 100 100 100 100 100
100 11 100 100 100 71 88 4 2 59 7 0 0 5 3 7 63 97 100 100 39 3 12 0 0 0 0 3 58 0 26 5 5 0 98 89 100 100 100 100 100 100 98 97 100
100 100 92 91 98 5 81 21 5 37 22 5 5 2 7 5 26 100 100 100 46 5 47 0 0 0 4 80 5 3 2 8 5 6 18 2 73 100 100 100 100 100 100 99 100
100 100 100 100 100 100 80 15 24 2 5 10 6 75 97 58 37 100 100 62 65 98 33 6 0 4 0 0 4 84 9 0 2 48 41 3 29 78 63 26 93 90 95 96 100
100 100 100 100 100 100 100 73 65 14 3 24 14 87 96 69 100 100 100 99 100 100 36 11 0 5 4 5 4 5 0 6 97 49 35 100 87 66 98 68 26 68 25 3 100
100 100 100 100 100 100 100 72 60 91 6 13 84 8 100 100 100 100 100 100 100 100 95 3 0 4 5 5 0 0 0 15 48 100 100 100 100 100 100 99 95 52 7 6 86
100 100 100 100 100 100 100 31 4 31 92 36 16 100 100 100 100 100 100 100 100 100 16 1 0 3 5 5 0 0 2 44 92 54 11 93 100 100 100 100 92 17 5 6 100
100 100 100 100 100 100 100 93 86 5 96 76 4 69 83 95 100 100 100 100 99 6 0 2 4 9 10 2 4 100 26 95 89 88 97 62 100 100 100 100 79 45 72 42 94
100 100 100 100 100 100 100 100 96 22 8 7 24 94 100 41 100 100 100 93 0 0 0 0 5 34 100 12 5 86 23 85 91 87 25 95 100 97 100 100 40 43 62 69 37
100 99 100 100 100 100 100 100 98 93 56 6 83 57 75 96 29 100 100 31 5 2 2 3 7 98 100 100 5 5 5 73 53 2 3 0 99 97 100 100 2 6 100 100 100
100 98 98 100 100 100 100 100 100 100 100 83 9 86 81 49 94 49 89 12 2 5 2 42 100 94 100 100 25 5 5 4 97 97 31 0 1 70 99 51 100 72 72 36 100
100 100 100 100 12 32 24 100 100 100 56 90 5 5 35 54 100 100 64 29 1 35 5 66 100 100 100 100 96 6 5 46 87 36 14 3 7 84 100 95 23 22 5 5 93
97 98 100 95 55 56 32 5 64 100 37 25 5 33 69 25 100 100 100 100 87 100 33 94 84 100 100 100 100 51 20 69 88 97 29 34 38 95 13 22 50 5 5 5 5
6 39 65 68 72 23 92 6 11 3 1 4 1 62 16 9 100 100 100 100 100 100 100 98 14 23 100 100 100 73 14 21 89 5 4 2 89 91 3 32 100 100 90 58 7
60 76 10 5 62 82 98 26 16 11 0 0 0 53 87 97 73 78 100 100 100 100 100 99 95 96 100 100 100 100 51 52 78 78 2 54 98 10 74 87 80 91 97 100 86
100 100 6 28 100 100 100 100 31 0 0 2 0 0 41 100 100 100 86 100 100 100 100 100 100 100 100 100 100 100 100 12 98 92 88 99 89 53 1 99 91 23 6 57 100
100 100 76 100 43 98 98 100 5 6 2 1 40 8 99 98 100 100 100 91 100 100 100 100 100 100 100 100 100 100 92 15 38 100 59 100 100 100 50 2 45 7 12 18 7
100 100 100 91 86 88 100 100 42 40 90 29 3 6 92 46 100 100 100 96 100 100 100 100 100 100 100 100 100 100 100 100 65 94 83 5 85 99 48 95 24 73 7 6 8
100 100 84 100 79 99 99 20 0 41 53 100 79 2 4 38 100 100 100 100 100 100 100 100 100 100 100 100 100 100 100 100 100 96 5 67 21 32 53 100 78 4 4 57 5
100 100 90 100 99 100 100 0 0 0 0 0 100 5 38 53 100 100 100 100 100 100 100 100 100 100 100 100 100 100 100 71 77 96 89 100 10 69 44 100 100 86 6 14 37
100 100 100 100 99 100 39 15 4 2 0 0 0 70 100 22 62 100 100 100 100 100 100 100 100 100 100 100 100 100 100 99 99 67 98 100 100 43 100 54 81 7 2 3 5
100 100 100 100 18 53 73 5 4 0 4 0 0 0 16 98 100 100 100 100 100 100 100 100 100 100 100 100 100 100 100 100 96 99 13 94 93 50 68 66 24 94 93 6 24
100 100 53 100 90 5 67 1 5 5 2 1 0 0 13 0 100 100 100 100 100 100 100 100 100 100 100 100 100 100 100 87 93 100 99 68 100 100 65 14 87 100 84 100 6
100 100 80 7 100 90 82 5 5 4 5 2 0 0 0 4 100 100 100 100 100 100 100 100 100 100 100 100 100 100 100 100 100 100 96 100 100 100 86 100 39 40 24 92 8
100 100 92 20 99 90 60 5 4 12 97 11 0 0 0 4 100 100 99 100 100 100 100 100 100 100 100 100 100 46 87 100 100 96 95 92 99 100 100 41 61 31 5 0 0

GFSSW_prec_cloud_039.txt.gz
Cloud_Cover
38 26 57 10 5 5 5 5 0 2 18 0 0 1 19 92 100 94 8 5 12 5 100 5 0 0 0 0 0 0 0 3 10 74 75 33 41 100 100 100 100 100 100 100 100
29 23 15 11 5 5 5 5 0 0 47 29 0 0 0 0 7 4 2 5 9 71 94 31 5 0 0 0 0 0 0 5 82 25 4 14 100 100 100 98 100 100 100 100 100
100 100 66 5 7 7 5 5 97 5 98 98 16 1 0 7 2 5 0 7 100 100 100 39 10 0 5 5 0 0 0 3 73 6 0 4 100 100 100 99 98 100 100 100 97
100 100 68 35 89 5 23 5 98 76 37 34 23 28 0 0 6 98 50 100 100 99 100 100 6 22 5 6 3 0 0 55 92 1 0 1 64 100 100 100 100 6 85 100 100
100 100 100 100 100 100 65 67 90 34 12 83 25 46 14 0 48 68 5 100 100 100 100 96 98 44 4 5 1 3 0 1 5 0 3 2 95 100 99 81 53 72 100 100 100
100 100 100 100 100 100 36 100 100 100 56 100 77 69 21 3 0 5 66 100 100 100 100 100 100 99 20 2 0 0 5 0 0 2 4 37 96 100 100 100 66 100 88 100 100
100 100 100 100 100 100 100 100 100 100 100 10 46 92 67 0 5 5 73 100 100 100 100 100 100 100 27 5 5 1 0 0 0 65 58 39 56 100 56 100 93 10 74 55 39
100 100 100 100 100 100 100 100 100 100 100 100 80 65 29 4 18 15 74 100 100 100 100 100 100 100 42 5 35 6 0 0 0 41 60 2 78 10 8 100 100 100 16 86 47
100 100 100 100 100 100 100 100 100 100 100 100 100 100 6 5 24 77 83 99 100 100 94 100 100 100 4 5 50 5 5 2 32 97 5 7 1 97 70 100 100 82 32 28 82
100 100 100 100 100 100 100 100 100 100 100 100 97 100 12 5 66 5 100 100 53 94 100 100 100 72 2 5 64 8 46 14 12 34 97 6 3 91 5 79 86 20 91 43 67
100 100 100 100 100 100 100 100 84 86 100 100 41 100 100 5 5 27 5 100 100 39 100 100 100 5 5 5 88 75 100 27 27 52 99 4 0 2 100 96 58 93 63 25 38
100 100 100 100 100 100 100 100 97 16 49 99 91 100 98 21 6 73 26 40 100 23 98 100 54 20 5 4 15 29 100 70 85 93 21 18 4 0 9 99 35 30 0 97 1
100 100 100 100 100 100 100 100 100 100 100 100 100 100 100 68 89 67 12 12 37 22 39 97 26 14 5 28 5 5 88 100 26 45 83 66 45 23 3 4 40 100 2 89 3
100 100 100 100 100 100 100 100 100 100 100 100 100 91 100 100 25 22 42 5 1 88 5 62 11 5 4 24 100 93 77 100 9 96 29 94 82 7 4 96 21 1 2 6 1
100 100 100 100 100 100 100 100 100 99 25 94 100 100 100 100 100 25 5 5 5 36 100 100 35 5 5 4 75 30 5 12 100 69 15 6 73 96 5 2 6 5 5 2 0
100 100 100 100 100 100 100 100 100 100 53 92 100 79 57 100 100 97 3 0 5 5 5 100 100 100 100 83 89 98 17 38 100 93 11 51 47 89 8 5 5 29 35 39 34
100 100 100 99 100 100 100 100 99 100 100 100 66 96 78 66 75 14 75 2 11 3 17 100 100 100 100 100 100 100 100 100 100 100 30 5 4 8 61 93 100 47 23 3 16
100 100 100 100 98 100 97 100 98 18 46 56 88 98 41 9 88 99 5 5 7 22 64 96 100 100 100 100 100 100 100 100 100 100 9 5 5 66 72 84 38 83 73 87 82
100 100 100 100 15 100 100 100 19 40 73 8 54 40 5 15 6 44 100 18 95 100 99 100 98 100 100 100 100 100 100 79 84 100 100 48 9 41 59 64 50 3 46 49 4
100 100 100 100 70 100 100 51 6 62 51 89 68 5 5 100 83 14 4 60 100 100 100 100 99 100 100 100 54 88 100 92 73 100 100 100 16 42 81 48 57 79 4 0 0
100 100 96 100 98 100 100 38 1 0 2 7 72 100 43 34 100 76 61 31 50 100 100 100 81 96 100 98 89 100 100 100 100 98 100 100 100 5 57 100 96 44 4 5 4
100 100 96 100 100 100 100 74 5 0 0 0 0 5 35 100 98 58 4 92 98 100 100 100 100 100 100 100 100 100 99 100 100 100 100 100 45 56 92 100 100 100 99 95 78
100 100 100 100 100 100 65 16 5 5 1 0 0 0 0 5 12 86 54 100 100 62 100 100 100 100 97 44 94 100 100 100 100 100 100 100 83 32 5 99 95 94 100 24 3
100 100 100 100 9 5 21 23 44 5 5 0 0 0 0 0 35 0 40 69 100 97 100 100 100 99 71 98 100 100 100 100 100 100 100 100 100 8 14 7 6 90 15 19 8
100 100 65 99 100 74 56 5 50 85 5 1 0 0 0 0 1 0 0 54 100 100 46 100 100 100 100 100 100 100 100 91 100 100 100 100 100 100 93 28 100 100 100 50 66
100 100 98 6 100 100 100 15 5 3 3 3 2 0 0 0 0 0 0 6 61 100 100 100 100 100 100 92 100 100 100 68 61 100 100 100 100 100 61 57 100 100 88 28 0
100 100 100 100 100 100 34 5 6 25 3 2 0 2 0 0 0 0 0 0 56 100 100 100 91 88 65 100 100 99 100 100 100 100 100 100 100 100 88 46 51 100 38 8 5

GFSSW_prec_cloud_042.txt.gz
Cloud_Cover
100 94 100 100 100 100 17 34 43 2 2 69 100 92 49 35 43 0 4 48 88 72 5 2 62 10 2 1 0 0 0 0 5 3 2 1 4 99 100 100 100 98 100 100 99
100 100 100 100 100 100 12 13 65 5 5 19 100 84 35 65 27 0 0 1 2 2 4 31 7 4 5 5 0 11 0 0 4 5 5 1 24 100 100 99 100 100 100 93 100
100 100 100 100 100 100 84 5 29 42 40 5 4 67 94 75 2 0 0 5 0 92 97 90 59 100 50 2 5 33 0 0 0 5 4 0 53 100 100 100 97 100 92 80 100
100 100 100 100 100 100 100 69 68 48 14 6 15 100 80 31 2 0 0 5 56 97 100 100 86 100 97 100 41 100 2 0 3 5 0 0 84 100 100 68 98 3 76 84 96
100 100 100 100 100 100 100 100 99 100 81 29 17 100 55 67 4 0 0 5 5 18 100 95 100 100 100 100 98 100 10 0 3 0 0 2 100 100 99 64 62 93 41 80 100
100 100 100 100 100 100 100 100 100 100 100 92 91 98 72 49 47 13 0 5 48 51 39 90 100 100 100 100 100 100 100 2 0 0 0 4 55 93 100 23 20 48 72 98 100
100 100 100 100 100 100 100 100 100 100 100 58 53 100 100 30 100 100 5 4 10 34 97 74 96 100 100 100 100 100 92 2 0 0 0 4 5 7 85 65 18 2 31 40 80
100 100 100 100 100 99 100 100 100 100 100 100 100 100 100 98 100 100 2 26 11 33 51 100 100 100 100 100 100 100 61 4 5 5 0 2 5 1 36 97 85 5 5 33 53
100 100 100 100 100 100 100 100 100 100 100 100 100 100 100 100 100 100 54 5 5 11 20 69 98 93 100 100 100 91 18 19 5 5 0 5 4 0 2 20 99 4 35 6 24
100 100 100 100 100 100 100 100 94 90 58 100 100 100 100 100 100 100 5 10 14 57 100 63 18 26 100 100 100 95 27 9 5 11 30 29 9 1 0 3 1 4 5 4 3
100 100 100 100 100 100 100 100 100 100 15 100 100 100 100 100 100 100 24 6 5 51 51 100 100 4 22 100 96 83 88 66 5 63 49 23 4 0 0 0 18 54 5 4 5
100 100 100 100 100 100 100 100 91 97 99 100 99 100 100 98 100 100 100 74 66 6 25 80 97 98 91 24 72 87 16 80 5 96 87 67 10 0 0 0 10 16 77 15 67
100 100 100 100 100 100 100 100 100 100 100 96 95 100 100 100 100 84 91 100 83 2 74 99 81 9 40 3 70 51 62 39 5 64 53 24 25 0 0 0 3 49 75 43 6
100 100 100 100 100 100 100 100 100 100 100 100 62 90 71 13 92 98 100 100 78 96 97 93 56 5 5 8 5 27 12 14 80 5 8 4 21 11 0 2 5 10 0 2 5
100 100 100 100 100 100 100 100 100 100 97 100 100 100 100 98 100 100 100 9 100 98 5 70 52 5 5 100 80 53 5 5 100 94 10 5 16 5 0 0 5 18 3 2 0
100 100 100 100 100 100 100 100 98 100 100 100 100 100 100 100 100 100 100 100 100 100 100 100 22 5 54 69 88 38 92 100 100 100 100 7 5 5 3 2 0 3 20 71 2
100 100 100 100 100 100 100 100 100 98 100 100 100 100 100 100 100 100 100 100 100 100 100 100 79 6 5 62 81 100 35 56 100 100 88 11 4 95 4 17 0 5 4 85 1
100 100 100 100 100 100 100 100 100 100 100 100 100 47 99 100 100 100 100 86 31 42 48 10 6 5 87 5 100 46 57 32 100 50 97 50 5 97 5 6 5 5 0 4 72
100 100 100 100 94 100 100 100 100 100 100 100 100 100 100 100 100 100 100 38 6 6 55 14 6 76 15 75 55 39 4 99 100 100 5 17 5 8 5 6 37 3 42 0 58
100 100 100 86 85 86 100 100 100 100 100 93 81 94 100 86 77 100 100 100 100 100 100 88 8 99 100 81 5 5 47 90 27 7 5 38 8 89 10 16 51 0 5 0 0
100 100 98 92 97 89 98 99 91 67 100 91 100 98 60 100 89 100 100 55 90 88 55 96 75 67 49 3 5 6 35 98 18 15 46 99 66 44 86 5 14 22 10 18 6
100 100 97 86 100 92 91 79 6 5 5 5 5 14 70 100 100 28 94 92 95 100 30 66 22 25 31 99 36 5 61 100 100 70 76 98 100 22 79 5 4 5 4 58 100
100 100 100 40 94 100 96 32 21 43 1 5 7 5 5 67 73 100 100 66 100 99 66 77 24 64 94 89 72 5 28 92 100 100 91 100 100 100 76 74 28 4 56 82 62
100 100 100 100 24 46 100 100 99 65 5 5 2 2 4 5 4 24 61 100 100 100 99 99 56 63 26 100 96 93 100 100 100 77 45 19 100 100 100 99 35 5 5 4 5
100 100 91 100 100 98 88 69 70 100 84 4 0 1 0 0 0 0 0 96 100 100 86 100 99 97 58 100 76 95 98 100 100 68 10 100 100 100 99 93 99 5 93 56 30
100 100 100 98 100 100 99 26 7 75 69 42 5 5 2 0 0 0 0 0 0 1 100 100 83 100 5 79 100 91 91 99 96 100 55 76 81 100 100 75 57 100 100 60 100
100 100 100 100 100 100 72 5 80 78 72 5 3 9 0 0 0 0 0 0 0 0 100 100 100 100 33 97 100 100 25 68 100 100 100 99 100 100 100 100 100 100 100 100 100

GFSSW_prec_cloud_045.txt.gz
Cloud_Cover
100 100 100 100 100 68 63 22 100 100 100 83 60 21 100 100 73 1 0 0 0 0 5 94 7 4 21 5 2 2 4 0 0 0 0 0 3 9 79 100 100 100 100 100 100
96 100 100 100 100 81 92 96 100 100 100 100 93 6 100 100 32 5 0 0 0 0 0 0 3 4 5 4 19 100 72 20 1 0 0 0 5 82 98 100 100 100 100 100 100
70 96 100 99 88 100 100 40 100 100 100 100 100 69 100 98 32 0 5 0 0 3 3 14 6 7 5 15 99 100 52 28 30 0 0 0 78 100 100 100 98 100 99 100 100
100 100 100 100 100 100 100 72 81 100 100 100 100 100 39 68 27 0 5 0 0 0 5 99 52 65 17 98 100 96 88 66 2 0 0 0 37 99 98 100 97 73 25 72 52
82 100 100 100 100 100 100 94 100 100 100 100 100 100 49 97 25 3 29 41 0 0 5 5 22 6 34 100 100 100 96 63 2 0 0 0 55 23 100 100 92 100 30 53 64
100 100 100 100 100 100 100 100 100 100 100 100 100 92 34 99 5 6 100 7 7 0 92 5 50 14 100 100 100 100 100 94 85 4 0 0 0 1 7 99 100 100 98 51 100
100 100 100 100 100 100 100 100 100 80 96 100 100 100 100 62 5 8 26 43 100 5 74 13 2 71 16 100 100 100 100 100 27 0 0 0 0 10 0 0 38 100 100 99 100
100 100 100 100 100 100 100 100 100 100 41 100 100 100 100 96 13 95 95 100 98 100 96 5 5 42 100 100 100 100 100 100 18 5 0 1 0 4 0 12 21 39 80 100 100
100 100 100 100 100 100 100 100 100 100 87 64 100 100 100 97 26 100 100 90 100 100 100 4 73 96 5 38 23 100 20 99 31 5 4 11 6 0 0 18 1 16 26 40 100
100 100 100 100 100 100 100 100 100 100 83 95 90 100 100 100 100 100 100 93 100 100 78 5 9 70 50 94 71 27 90 61 65 5 5 5 3 5 10 0 0 0 0 10 43
100 100 100 100 100 100 100 100 100 100 100 100 100 100 100 100 100 100 100 100 100 100 90 5 80 55 5 62 72 5 5 61 90 6 5 1 5 5 0 0 0 0 0 2 5
100 100 100 100 100 100 100 100 100 100 99 100 100 100 100 94 35 100 100 100 100 100 7 12 100 22 22 21 5 79 97 14 99 44 23 57 60 5 2 0 0 0 0 86 85
100 100 100 100 100 100 96 100 100 100 100 100 100 100 100 87 100 25 96 100 100 100 100 95 32 33 22 5 2 4 87 5 49 96 28 100 79 52 5 0 0 0 0 0 1
100 100 100 100 100 100 85 100 100 100 100 100 100 100 100 85 63 100 99 100 100 100 100 69 9 81 100 19 3 0 0 5 5 31 80 100 100 94 5 2 0 3 0 0 0
100 100 100 100 100 100 100 100 100 100 98 100 100 42 6 82 100 100 100 33 63 100 100 95 100 100 100 100 8 5 4 5 4 5 96 100 100 21 5 4 0 0 5 1 0
100 100 100 100 100 100 100 100 100 100 100 100 100 100 100 95 74 100 98 56 99 82 100 100 100 100 100 100 5 8 4 2 4 6 95 100 100 9 35 3 1 4 4 0 1
100 100 100 100 91 85 100 100 100 94 100 100 100 100 100 100 100 100 100 100 100 94 94 100 100 100 28 96 54 80 0 5 10 56 21 7 100 7 38 7 3 0 1 0 0
100 100 100 100 100 100 100 97 99 100 66 82 100 100 100 100 100 100 100 100 100 100 100 100 100 100 100 100 100 6 61 6 61 7 75 37 100 5 9 20 5 1 4 4 0
100 100 100 100 100 100 100 100 97 53 42 54 100 100 100 100 100 100 100 88 96 100 100 100 100 100 100 100 84 12 5 50 11 76 100 100 100 6 8 72 8 5 4 1 1
100 100 100 92 100 100 100 96 100 67 26 100 100 100 100 100 100 100 100 89 36 32 95 100 98 100 100 12 5 10 88 13 7 8 32 100 100 100 5 7 79 43 5 2 5
100 100 100 100 100 100 100 100 99 100 100 100 100 98 100 100 100 100 100 100 100 95 62 82 99 100 100 96 99 100 100 100 17 5 76 83 94 21 23 53 8 56 8 0 2
100 100 100 63 100 100 100 98 100 100 100 100 100 100 100 100 100 100 100 100 100 100 100 100 100 100 100 100 100 100 84 73 34 53 70 92 94 100 97 36 21 7 6 5 4
100 100 100 99 99 100 100 76 80 99 100 91 99 100 100 100 99 99 100 100 100 100 100 100 100 100 100 100 100 99 99 98 39 5 13 50 98 100 94 6 35 70 13 5 5
100 100 100 100 86 87 100 100 100 29 27 11 21 53 100 100 100 100 100 100 47 87 100 100 100 100 100 100 100 100 98 100 99 22 13 5 98 100 100 100 100 5 25 13 68
100 98 97 100 100 100 100 95 100 100 60 36 66 38 74 100 64 24 84 100 100 100 99 100 90 49 100 100 100 100 100 98 18 30 16 54 32 100 100 99 100 100 53 96 100
100 99 100 100 100 100 100 51 100 100 88 26 5 59 99 90 6 9 19 90 91 83 38 100 100 100 97 100 97 99 100 100 70 79 74 72 96 100 100 100 100 98 100 96 65
100 100 100 100 100 100 100 100 100 100 77 16 5 5 4 1 0 1 3 4 4 4 70 26 100 100 88 100 100 11 5 82 100 99 85 61 100 100 100 100 100 100 100 86 60

GFSSW_prec_cloud_048.txt.gz
Cloud_Cover
6 9 5 55 96 82 89 16 99 81 89 100 100 100 100 95 100 100 0 5 1 0 0 0 0 0 4 5 2 0 6 100 10 56 0 0 0 0 4 22 76 27 8 100 100
11 6 5 5 5 10 84 89 100 100 100 100 100 100 100 100 100 61 5 5 1 3 3 0 0 0 0 0 5 1 96 92 18 11 2 0 0 4 86 63 68 72 97 96 100
5 5 13 97 10 91 100 76 99 100 100 100 100 100 100 100 100 88 5 7 5 5 0 0 0 0 3 5 4 19 100 88 14 78 0 0 0 5 8 59 10 7 39 98 100
0 5 46 10 99 100 100 96 100 100 97 100 100 100 100 100 100 65 6 11 5 5 0 0 0 4 93 86 5 100 100 66 88 17 0 0 0 0 0 3 69 70 12 89 96
0 0 5 44 91 99 100 100 100 99 87 100 100 100 100 100 100 42 26 28 5 5 5 0 0 2 5 12 15 100 99 68 79 5 3 0 0 0 3 2 5 40 91 63 100
0 0 5 5 96 100 100 100 100 100 100 100 100 100 100 100 100 100 6 48 5 5 5 0 0 0 5 67 100 100 100 100 56 40 3 0 0 0 5 5 0 40 99 75 76
0 0 5 99 95 97 100 100 100 100 100 100 100 100 100 100 100 82 49 5 5 54 30 4 4 0 0 4 5 95 100 100 39 100 5 3 0 0 1 0 3 57 100 100 54
2 3 80 98 100 93 100 100 100 100 100 100 100 100 100 100 100 100 37 85 5 5 5 100 62 3 5 5 7 32 95 88 26 62 5 0 0 0 6 10 17 65 100 100 99
99 48 100 100 100 100 100 100 100 95 100 100 100 100 100 100 100 100 100 99 5 5 19 100 100 100 65 4 11 10 70 12 5 19 64 2 0 0 8 10 7 40 99 100 100
76 84 100 100 100 100 100 100 100 100 100 86 100 100 100 100 100 100 100 63 28 5 5 100 100 100 99 61 55 97 6 5 5 5 6 8 0 0 27 36 4 1 20 95 100
100 100 100 100 100 100 100 100 100 100 27 100 100 100 100 100 100 100 100 95 9 100 100 100 100 100 97 84 86 87 5 5 5 5 27 6 4 5 7 67 40 0 0 13 73
100 100 100 100 100 100 100 100 100 100 100 100 100 100 100 100 100 100 100 100 100 100 95 100 100 100 86 63 13 16 5 4 5 5 15 5 3 35 76 33 3 1 0 0 9
100 100 100 100 100 100 100 100 100 100 99 100 100 100 100 100 100 99 100 100 100 99 100 100 100 100 61 38 38 5 5 0 5 12 5 28 68 96 80 5 0 3 0 0 0
100 100 100 100 100 100 100 100 100 100 100 100 100 100 100 100 100 100 97 100 100 100 100 100 100 100 99 43 35 5 12 30 5 6 5 5 82 83 100 9 0 0 0 0 0
74 100 100 100 100 100 100 98 100 100 82 100 87 100 100 100 100 100 100 100 100 100 99 68 100 100 50 53 6 46 42 100 35 5 54 16 11 100 99 46 2 0 5 1 0
5 100 100 100 100 100 100 100 96 100 99 100 100 100 100 100 100 100 100 100 100 100 70 40 100 100 100 100 100 100 46 62 4 5 100 26 44 100 15 96 5 0 5 5 0
5 5 97 100 100 100 100 92 99 100 5 100 100 100 100 100 100 100 100 100 100 99 100 100 100 100 100 100 100 100 26 4 5 7 85 7 87 100 7 58 30 5 4 1 5
5 5 5 100 100 100 100 100 99 55 99 85 100 100 100 100 100 100 100 100 100 99 98 93 100 100 100 100 99 34 5 5 87 100 12 99 100 97 5 5 97 43 46 4 5
12 10 23 20 100 100 100 100 100 48 100 94 90 100 100 100 100 100 100 100 100 100 100 100 100 100 100 100 98 97 18 100 6 92 100 100 78 74 64 18 16 79 100 10 5
6 72 28 26 100 100 100 100 100 100 100 100 100 100 100 100 100 100 100 100 100 100 100 96 82 100 100 42 10 97 94 100 100 100 100 79 73 100 28 5 99 100 100 96 6
41 100 80 8 100 100 100 99 100 100 100 100 100 100 100 100 100 100 100 100 98 97 100 100 100 100 100 100 100 100 100 100 100 93 63 100 100 100 43 26 66 100 100 100 16
100 100 99 99 100 100 100 100 80 100 100 100 100 100 99 100 100 100 100 100 100 99 100 84 84 100 100 100 100 100 100 100 63 29 52 98 98 100 98 5 34 99 100 100 98
100 100 100 100 100 100 100 97 65 100 100 100 100 100 100 78 100 100 100 83 100 88 100 100 76 91 100 100 100 100 100 96 55 27 14 93 90 100 100 42 24 100 92 100 100
100 100 93 100 100 100 100 100 95 30 100 100 100 100 100 100 100 100 100 100 100 100 100 100 96 100 100 100 100 100 100 100 100 100 100 91 100 100 100 93 7 5 22 100 100
100 100 100 100 100 99 95 100 100 100 83 95 100 100 100 100 100 100 100 100 100 100 100 100 100 100 100 100 100 100 100 100 100 100 18 71 18 100 100 99 8 5 37 98 100
100 100 100 100 98 96 100 100 100 100 100 96 28 98 100 100 100 100 99 100 100 100 100 100 100 100 100 100 100 100 100 100 63 35 5 5 5 13 80 100 5 5 81 100 100
100 100 100 97 100 100 100 100 100 100 100 100 100 100 99 100 100 100 100 91 100 53 46 48 77 85 66 100 100 96 100 100 100 67 5 4 38 95 68 100 82 79 63 100 100

GFSSW_prec_cloud_051.txt.gz
Cloud_Cover
100 100 100 90 12 2 4 0 1 2 4 10 66 8 95 74 100 100 100 71 100 8 0 6 6 1 0 0 0 0 0 2 25 27 3 4 0 0 0 0 5 23 8 4 15
100 94 9 1 5 5 5 5 5 5 34 8 29 21 100 100 100 100 100 100 100 12 0 18 17 5 0 0 0 0 4 27 97 5 2 0 0 0 0 0 0 5 5 3 24
5 5 0 0 0 5 5 5 5 5 17 11 100 96 100 100 100 100 100 100 100 18 0 28 51 3 0 0 0 2 13 82 93 5 4 0 0 0 0 0 0 4 2 12 90
5 0 0 0 0 0 4 81 5 5 6 29 47 100 100 100 100 100 100 100 100 30 0 5 8 5 4 0 3 4 90 100 40 36 0 3 0 0 0 0 0 2 1 14 12
3 0 0 0 0 0 0 5 99 82 62 82 100 100 100 100 100 100 100 100 100 45 3 34 10 5 1 0 3 5 68 100 3 97 5 24 1 0 0 0 0 4 65 100 65
0 1 0 0 0 0 2 5 22 100 92 100 100 100 100 100 100 100 100 100 100 9 5 54 11 5 5 0 0 0 99 100 66 6 45 64 5 0 0 0 0 16 97 96 100
0 0 0 0 0 0 1 5 22 18 100 100 100 100 100 100 100 100 100 100 100 9 13 39 6 5 5 5 0 2 0 93 11 39 38 18 5 5 0 0 0 39 95 100 88
0 5 5 0 0 0 4 5 5 99 100 100 100 100 100 100 100 100 100 100 100 58 5 25 5 5 5 52 4 0 3 93 83 8 15 5 5 5 0 0 0 9 78 99 100
3 1 0 2 4 2 3 87 53 52 100 100 100 100 100 100 100 100 100 100 100 96 36 5 5 5 5 91 7 3 5 92 63 52 5 6 5 5 4 5 0 0 0 68 100
0 0 0 5 5 5 5 90 100 77 100 100 100 97 100 100 100 100 100 100 100 76 5 5 28 58 100 99 74 50 44 27 65 28 5 5 2 5 5 5 5 0 0 19 99
4 0 0 5 5 5 88 15 100 100 100 100 100 100 100 100 100 100 100 100 100 100 94 94 24 97 14 22 88 100 19 26 5 5 11 21 4 5 5 5 5 0 0 0 12
0 0 4 5 5 5 93 100 100 100 100 100 100 100 100 100 100 100 100 100 100 100 100 91 100 100 5 4 100 100 89 5 5 18 30 5 12 5 5 5 5 3 0 0 0
0 0 5 20 5 13 72 100 100 100 100 100 86 100 100 100 100 100 100 73 100 100 100 100 100 100 78 5 100 100 100 8 5 79 45 12 7 5 18 5 20 1 0 0 0
0 0 1 5 5 10 100 100 100 100 100 100 95 100 100 100 100 100 100 100 100 100 100 100 100 100 98 5 91 100 97 5 52 5 49 33 83 5 5 5 4 5 0 0 0
0 0 5 9 100 76 100 19 100 100 100 100 100 100 100 100 100 100 100 100 100 100 100 100 100 100 96 90 14 100 6 20 59 5 15 13 100 100 5 5 2 1 0 5 5
1 0 5 23 100 48 80 5 100 100 100 100 100 100 100 100 100 100 100 100 100 100 74 100 100 100 100 84 37 100 71 6 5 5 100 16 96 100 80 0 21 1 0 0 2
0 2 5 9 95 87 72 9 100 100 100 100 100 100 100 100 100 100 100 100 100 100 100 100 100 100 100 100 100 100 100 100 12 5 100 71 84 100 100 34 4 5 5 4 5
4 0 2 5 92 100 94 86 99 100 100 100 100 100 100 100 100 100 100 100 100 100 100 100 100 100 100 100 100 100 99 56 39 5 90 74 98 100 100 100 8 5 5 1 5
5 2 22 10 81 94 100 100 7 99 100 100 100 100 100 100 100 100 100 100 100 100 100 100 100 100 100 100 100 94 47 99 36 5 52 100 100 100 100 100 100 11 4 5 0
86 91 3 0 31 71 100 97 32 60 100 100 100 100 100 100 100 100 100 100 100 100 100 100 100 100 100 100 64 100 100 79 6 5 28 90 100 100 100 100 100 98 5 4 0
100 81 2 4 63 100 100 84 72 58 58 100 100 100 100 100 100 100 100 100 100 100 100 100 100 100 100 100 100 100 100 20 5 5 73 76 100 100 100 100 78 86 5 43 6
30 99 78 70 100 100 100 100 45 34 7 78 100 100 100 100 100 100 100 98 100 100 100 100 100 100 100 100 99 9 29 10 5 4 8 100 100 100 100 100 100 23 35 50 100
100 100 7 99 100 100 100 70 23 5 5 80 98 100 100 100 100 100 100 100 100 100 100 100 100 100 100 100 100 80 88 94 45 23 73 100 100 100 100 100 93 80 100 100 100
100 92 100 94 21 91 96 78 37 5 5 100 90 100 100 100 100 100 100 100 100 100 100 100 100 100 100 100 100 100 100 100 100 100 100 100 100 100 100 100 100 16 5 31 21
100 100 35 96 99 90 90 100 40 36 41 100 87 100 100 96 100 100 100 100 100 100 100 100 100 100 100 100 100 100 100 30 32 61 72 41 8 40 100 100 100 100 96 87 97
100 100 100 5 7 98 100 100 47 68 100 100 80 100 100 100 100 95 98 59 100 98 100 93 100 100 100 100 100 100 100 100 66 46 74 65 91 72 97 100 100 100 100 26 91
100 100 100 29 66 50 76 90 99 100 100 100 100 100 100 100 100 100 42 62 100 100 100 96 98 99 100 100 100 100 100 100 100 100 85 8 100 100 100 100 100 100 100 99 77

GFSSW_prec_cloud_054.txt.gz
Cloud_Cover
100 100 100 100 100 100 100 89 18 0 0 0 0 0 4 3 66 37 17 3 5 63 98 26 5 96 2 90 5 2 0 0 0 0 5 5 0 0 0 0 0 0 0 1 5
100 100 100 100 100 6 1 4 0 0 0 0 0 0 6 18 8 40 90 99 62 99 100 100 94 100 0 45 5 5 0 0 0 26 35 5 4 0 0 0 0 0 0 0 3
100 100 100 100 100 8 2 1 0 0 3 4 0 2 5 64 62 60 85 100 100 100 79 100 100 65 1 79 11 5 0 0 5 7 9 26 2 0 0 0 0 0 0 0 0
100 100 100 100 48 3 0 0 0 0 0 5 5 5 5 98 100 100 100 86 100 89 100 100 100 60 16 92 19 5 4 1 10 11 10 32 1 4 0 0 0 0 0 0 0
100 91 77 10 3 0 0 0 0 0 0 2 7 20 13 9 100 100 91 80 100 82 100 100 100 23 78 79 11 5 4 0 50 34 6 85 3 96 4 0 0 0 0 0 0
7 5 2 0 0 0 0 0 0 0 0 5 5 83 93 52 97 100 100 100 100 87 100 100 100 0 98 17 5 81 5 2 0 95 5 29 100 87 3 0 0 0 0 0 4
44 5 0 0 0 0 0 0 0 0 0 4 14 13 94 100 100 100 100 100 100 100 100 100 100 5 98 42 9 98 5 5 5 65 95 12 3 0 4 0 0 0 0 0 0
5 4 0 0 0 0 0 0 0 0 0 5 29 75 100 100 86 100 100 100 100 100 100 100 100 22 93 31 29 49 46 8 4 5 64 14 2 1 5 0 0 0 0 0 0
9 4 2 5 0 0 0 0 0 0 2 9 74 68 100 100 100 100 100 100 100 100 100 100 100 73 94 68 61 100 75 5 4 5 77 40 9 0 0 5 0 0 0 0 0
5 5 1 0 3 0 0 0 0 4 47 17 82 100 100 100 100 100 100 100 100 100 100 100 100 99 78 88 94 60 51 88 3 11 47 7 26 6 1 5 0 0 0 0 0
97 5 5 5 5 0 3 0 0 11 6 46 43 100 100 100 100 100 100 100 100 43 100 100 100 99 100 8 14 60 100 100 5 2 14 59 5 5 0 2 1 0 0 0 0
5 16 11 5 5 4 3 16 37 31 100 91 100 100 100 100 100 100 100 100 100 95 100 100 100 100 100 32 42 100 100 94 78 5 4 84 10 5 0 0 3 4 0 0 0
14 6 28 35 5 5 5 15 5 39 100 55 100 100 100 100 100 100 100 100 100 100 100 100 100 100 100 20 95 100 100 100 63 6 56 38 77 0 0 0 5 5 0 0 0
8 15 10 43 43 5 84 5 1 52 93 100 91 100 100 100 100 100 100 100 100 99 100 100 100 100 100 61 100 94 100 98 98 93 100 67 74 5 5 5 4 3 0 0 0
8 5 6 99 46 87 28 3 2 81 26 100 100 100 100 100 100 100 100 98 72 100 90 100 100 100 100 100 98 100 100 5 5 100 100 71 22 5 5 2 0 0 0 4 0
25 31 8 54 40 11 6 0 13 33 90 100 100 100 100 100 100 100 100 100 100 99 100 100 100 100 100 100 100 100 95 8 80 100 100 96 50 100 6 5 3 0 0 5 1
6 16 7 68 91 5 40 2 32 0 49 86 100 100 100 100 100 100 100 100 100 67 90 100 100 100 100 100 100 96 100 100 100 94 100 63 58 100 100 99 1 0 4 4 5
6 5 2 8 53 12 64 29 5 0 39 97 100 100 100 100 100 100 100 100 100 100 100 100 100 100 100 100 100 100 100 100 46 5 98 21 100 100 100 100 10 0 30 32 5
5 10 5 5 4 68 92 64 0 22 56 97 100 100 100 100 100 100 100 100 100 100 100 100 100 100 100 100 100 57 25 100 100 19 18 81 99 100 100 100 50 5 8 88 22
87 100 5 3 1 72 99 23 5 5 5 78 93 100 100 100 100 100 100 100 100 100 100 100 100 100 100 100 100 90 66 18 5 20 97 100 98 100 100 100 63 6 48 95 16
100 90 5 4 59 100 90 38 19 1 3 7 100 86 100 100 100 100 100 100 100 100 100 100 100 100 100 100 100 100 84 63 74 84 93 98 100 99 100 100 100 11 97 100 22
87 93 26 37 100 100 100 57 72 5 0 3 62 100 100 100 100 100 100 100 100 100 100 100 100 100 100 100 100 100 100 100 100 91 93 81 100 100 100 100 100 100 100 100 7
90 100 7 78 96 100 88 61 98 53 17 68 38 78 100 100 100 100 100 100 100 100 100 100 100 100 100 100 100 100 100 100 79 54 47 84 78 89 100 100 100 100 6 79 32
71 83 45 30 89 93 100 56 96 5 67 95 38 5 88 98 100 100 100 100 100 100 100 100 100 100 100 100 100 100 94 100 84 51 31 58 74 100 100 100 100 100 100 100 90
97 54 92 98 63 76 98 56 88 100 78 74 64 5 76 51 100 99 100 100 100 100 100 100 100 100 100 100 100 100 100 100 100 97 89 100 74 90 100 100 100 100 100 92 100
100 96 49 96 100 97 62 82 89 100 100 88 45 96 42 36 80 100 96 100 60 100 100 100 100 100 100 100 100 100 100 100 100 100 100 100 95 45 100 100 100 100 100 100 99
88 81 81 29 90 100 80 62 35 83 82 100 100 100 44 100 95 99 100 78 100 88 100 100 100 100 100 100 100 100 100 100 100 100 100 100 100 100 97 88 98 100 100 100 100

GFSSW_prec_cloud_057.txt.gz
Cloud_Cover
99 100 100 100 100 100 100 100 100 100 100 100 34 4 0 0 0 0 0 0 0 0 0 0 0 1 4 4 48 18 65 8 5 0 0 0 0 3 4 0 0 0 0 0 0
100 100 100 100 100 100 100 100 100 100 100 44 3 0 0 0 0 0 0 4 1 2 3 0 0 5 36 17 100 100 29 5 5 0 0 0 0 5 4 5 3 0 0 0 0
100 100 100 100 100 100 100 100 100 60 4 0 0 0 0 0 0 5 5 7 18 5 3 5 3 93 100 100 100 100 39 5 5 0 0 0 1 5 40 2 5 3 0 0 0
100 100 74 100 100 100 99 96 51 3 0 0 0 0 0 0 19 0 5 53 100 100 100 99 100 100 100 100 100 100 5 5 5 5 0 0 4 22 5 56 0 0 0 0 0
36 100 100 81 6 5 5 15 6 5 1 0 0 1 0 0 6 8 5 71 100 100 100 100 100 100 100 100 100 98 5 5 5 5 1 0 3 22 52 100 0 0 0 0 0
100 100 77 62 10 5 36 4 3 3 1 0 0 12 0 0 3 41 5 64 100 64 100 100 100 100 100 100 100 47 40 15 5 5 23 1 3 24 100 97 0 0 0 0 0
100 100 97 100 7 7 5 3 5 4 0 0 7 8 0 0 0 5 91 100 100 100 94 100 51 81 100 100 100 98 23 5 5 5 3 1 1 100 3 1 0 0 0 0 0
99 100 100 100 100 22 5 5 4 0 0 0 13 0 0 0 0 5 70 100 100 100 100 100 100 100 100 100 100 100 8 5 21 5 20 74 7 5 2 0 0 0 0 0 0
100 67 70 83 100 98 18 55 4 0 0 3 15 0 2 5 1 18 99 100 100 100 100 100 100 100 100 100 100 100 53 59 37 14 16 2 1 2 2 4 0 1 0 0 0
98 90 74 38 96 100 92 26 1 1 2 2 1 1 28 15 3 100 100 100 100 100 100 100 100 100 100 100 100 100 31 5 71 86 18 5 1 7 2 0 0 0 4 0 0
100 98 87 100 100 72 54 29 0 2 2 0 0 0 0 48 79 100 100 100 100 100 100 100 100 100 100 100 100 100 100 96 99 99 5 5 1 7 2 5 0 0 5 0 0
100 100 40 18 73 100 84 6 12 32 33 0 0 0 3 36 100 87 100 100 100 100 100 99 94 100 100 100 100 100 84 5 91 86 5 5 2 0 4 5 2 5 5 0 0
100 100 100 87 95 99 100 52 39 100 16 0 0 0 72 100 100 100 100 100 100 100 100 100 100 100 100 100 98 99 78 9 99 95 96 8 5 0 0 0 0 0 5 5 0
100 100 96 100 59 66 94 20 48 100 30 0 0 0 98 100 100 100 100 100 100 100 100 100 100 100 100 100 100 94 100 88 100 100 50 70 91 5 1 3 5 0 1 3 0
64 100 100 100 100 81 21 24 44 90 7 0 0 0 3 100 100 100 100 100 100 100 100 100 100 100 100 100 100 81 100 100 100 100 98 100 100 21 5 5 5 1 2 5 0
100 94 90 53 100 98 100 31 88 77 2 0 0 0 5 100 100 100 100 100 100 100 100 100 100 100 100 100 100 100 83 100 94 100 100 100 100 100 7 37 43 1 4 3 0
100 100 100 100 100 100 78 100 35 4 0 0 0 0 6 100 100 100 100 100 100 100 82 100 100 100 100 100 100 100 100 100 100 100 100 100 100 100 31 16 98 25 2 5 5
100 100 100 100 100 99 72 56 16 3 0 0 0 0 38 100 100 100 100 100 100 100 100 100 100 100 100 100 100 100 100 100 100 100 100 100 100 100 100 39 52 100 53 4 7
100 100 98 23 25 20 98 62 10 3 0 0 1 0 96 80 100 100 100 100 100 100 100 100 100 100 100 100 100 100 100 100 100 100 100 100 100 100 100 100 100 100 73 5 5
76 77 100 60 64 60 94 4 4 2 3 0 5 4 8 100 75 100 100 100 100 100 100 100 100 100 100 100 100 100 100 100 100 100 100 100 100 100 100 100 100 100 97 12 46
59 75 59 99 78 100 88 12 12 0 4 3 5 5 4 100 60 100 100 100 100 100 100 100 100 100 100 100 100 100 100 100 100 100 100 100 100 100 100 100 100 100 98 84 5
49 94 28 5 95 98 80 5 7 5 5 5 1 5 5 65 100 96 100 100 100 100 100 100 100 100 100 100 100 100 100 100 100 100 100 100 100 100 100 100 100 100 100 18 4
50 80 63 8 98 100 99 93 57 37 6 31 5 5 1 43 100 100 100 100 100 100 100 100 100 100 100 100 100 100 100 100 100 100 100 100 100 100 95 100 100 100 100 44 5
97 94 92 34 79 82 100 100 100 94 98 100 100 94 82 7 33 100 100 100 100 100 100 100 100 100 100 100 100 100 100 100 100 100 100 100 100 100 80 100 100 100 76 51 5
100 43 91 95 97 95 71 33 100 100 99 99 100 100 100 81 96 100 100 100 100 92 100 100 100 100 100 100 100 100 100 100 100 100 100 100 100 100 100 100 96 100 100 100 74
100 81 95 61 100 100 96 36 93 100 99 100 100 100 100 100 100 100 95 100 97 99 100 100 100 100 100 100 100 100 100 100 100 100 100 100 100 100 96 82 99 100 100 100 100
32 63 76 93 97 100 100 96 100 100 100 96 100 100 99 100 98 84 82 100 100 80 100 100 100 100 100 100 100 100 100 100 100 100 100 100 100 100 74 27 99 100 100 100 100

GFSSW_prec_cloud_063.txt.gz
Cloud_Cover
73 100 100 100 100 87 100 100 100 100 100 100 100 100 100 100 98 77 100 87 60 16 4 1 0 0 0 0 0 0 0 0 0 0 5 3 61 93 4 0 0 0 0 0 0
60 61 59 100 100 100 100 100 100 100 100 100 100 98 100 100 100 100 100 100 98 25 2 0 0 0 0 0 0 0 0 0 0 0 4 5 98 100 5 5 0 0 1 0 0
43 15 100 94 100 100 100 100 100 100 100 100 100 100 100 100 100 100 100 64 5 0 0 0 0 0 0 0 0 3 0 0 4 27 0 2 81 63 6 24 0 0 4 3 0
100 83 14 79 100 100 100 100 100 100 100 100 100 100 100 100 69 95 75 28 4 0 0 0 4 5 0 0 70 97 12 81 95 9 0 3 23 74 10 5 0 0 5 1 3
100 88 99 100 90 96 100 100 100 96 100 87 51 87 100 96 92 5 20 1 0 0 0 3 5 77 5 5 97 31 75 100 100 20 0 17 24 58 93 2 0 0 5 5 94
100 97 100 97 100 98 99 100 72 76 61 5 13 83 100 45 37 5 37 1 0 0 0 2 72 60 14 51 50 100 96 100 100 88 5 87 100 91 72 0 0 2 5 5 100
100 100 52 100 100 100 100 73 22 26 84 76 88 100 100 69 52 22 0 0 1 0 0 0 52 90 5 42 100 100 30 46 93 97 94 100 100 100 76 5 0 5 5 43 100
100 100 100 100 100 100 97 97 89 100 100 100 100 100 60 8 6 2 3 78 3 0 0 5 34 21 92 92 99 82 99 100 100 100 100 100 100 100 34 5 0 5 29 97 0
100 100 100 100 100 97 62 100 100 96 100 100 100 100 100 98 90 26 77 50 1 0 0 23 9 56 81 76 94 99 90 100 100 100 100 98 100 100 5 5 5 4 82 7 0
100 100 100 100 100 100 99 100 100 100 100 100 99 100 100 27 5 62 94 42 0 0 0 3 66 66 100 74 22 100 100 100 100 100 100 100 100 100 56 3 0 5 99 14 0
100 100 100 100 100 100 100 100 100 100 99 100 7 79 70 96 5 37 17 5 0 0 0 1 57 38 100 100 100 100 100 58 100 27 100 100 100 100 99 16 2 93 60 1 0
100 100 100 100 100 100 100 100 100 100 100 84 100 100 100 100 100 100 84 66 0 0 2 26 100 100 100 100 100 100 95 62 100 100 100 100 89 100 100 52 5 0 0 1 0
100 100 100 100 100 100 100 98 100 100 99 100 100 100 100 100 40 17 3 0 4 5 4 96 66 100 100 100 100 100 100 100 100 100 100 100 78 95 100 99 8 5 0 0 0
100 100 100 100 100 100 100 100 42 82 97 100 100 96 9 44 62 12 5 4 5 2 12 88 55 100 100 100 100 69 100 100 100 100 100 100 100 81 94 72 32 6 5 3 4
100 100 100 100 100 100 100 100 95 85 96 49 42 2 8 57 100 66 5 5 0 7 5 98 88 100 100 100 100 99 100 100 100 100 100 100 78 92 56 70 86 38 5 5 5
100 100 100 100 100 100 100 100 99 97 83 4 2 0 43 100 100 99 4 89 0 3 91 66 63 100 100 100 100 100 100 100 100 100 100 100 100 31 100 100 84 100 97 5 5
90 75 14 55 81 99 100 100 87 100 5 4 2 5 85 63 100 91 32 93 0 0 100 54 66 99 100 100 100 100 100 100 100 98 100 100 100 100 82 96 81 69 77 11 5
100 100 100 100 10 85 73 63 98 75 100 98 5 73 100 99 93 22 54 47 0 0 100 100 97 100 100 100 100 100 100 100 100 100 100 100 100 100 85 85 100 100 100 30 5
90 100 99 99 1 5 35 100 12 93 100 88 4 100 100 100 100 96 100 20 65 18 100 100 100 100 100 100 100 100 100 100 100 100 100 100 100 100 100 100 95 58 100 93 14
5 5 3 0 7 43 90 28 15 100 100 96 6 100 100 97 65 49 45 52 88 92 100 100 100 100 100 100 100 100 100 100 100 100 100 100 100 100 100 99 100 100 100 100 100
5 8 0 7 76 64 90 14 2 0 77 96 42 75 54 100 100 100 99 21 73 100 100 100 100 100 100 100 100 100 100 100 100 99 100 100 100 100 100 100 100 100 100 100 61
34 69 4 44 92 96 58 5 0 0 0 27 55 69 21 100 100 100 26 87 7 8 100 100 100 100 100 100 100 100 100 100 100 100 100 100 100 100 100 100 100 100 100 100 68
100 89 0 99 100 59 5 5 1 0 0 22 93 98 100 100 88 100 18 61 6 6 100 100 100 100 100 100 100 100 100 100 100 100 100 100 100 100 100 100 100 100 100 95 65
98 94 12 4 23 100 96 19 5 2 1 3 6 100 100 100 100 18 19 81 40 44 100 100 100 100 100 100 100 100 100 100 100 100 100 88 100 100 100 100 100 100 100 91 74
97 95 46 98 22 5 13 5 86 81 7 3 1 91 100 100 100 100 79 96 14 75 100 100 100 100 100 100 100 100 100 100 100 100 100 100 100 100 100 100 100 100 100 95 100
100 92 5 5 25 100 96 6 5 99 100 68 78 65 96 100 100 100 30 84 5 4 60 100 100 100 100 100 100 100 100 100 100 100 100 100 100 100 100 100 100 100 100 100 14
94 90 83 78 79 47 56 100 26 5 90 100 100 49 7 84 46 74 98 66 99 7 50 100 100 100 100 100 100 100 100 100 100 100 100 100 100 100 100 100 100 90 93 99 78

GFSSW_prec_cloud_066.txt.gz
Cloud_Cover
100 100 100 98 9 69 98 59 100 100 100 90 100 99 50 87 100 100 100 100 100 95 100 100 100 100 100 86 26 2 0 0 0 0 0 80 0 0 20 2 1 2 29 1 0
100 100 100 100 98 6 74 100 99 100 100 100 96 83 100 100 100 100 100 100 100 100 100 100 100 82 8 4 0 0 0 0 0 0 0 55 0 0 16 5 2 2 90 4 0
100 100 100 100 100 100 22 100 100 96 100 100 100 100 99 97 90 100 100 100 100 100 100 100 56 4 0 0 0 0 0 0 0 0 3 78 1 0 0 5 0 50 77 4 0
100 100 100 100 100 100 98 32 42 91 97 100 100 100 100 100 56 83 95 98 96 98 94 21 5 2 0 0 0 0 0 0 0 0 96 100 18 0 0 0 3 48 99 1 0
100 100 100 100 100 100 100 100 99 73 79 100 100 100 100 100 87 97 93 39 65 100 73 50 5 0 0 0 1 0 0 0 0 41 100 100 6 0 0 5 1 65 40 1 0
100 100 100 100 100 100 100 100 99 100 100 100 100 100 100 82 96 60 96 48 42 22 15 2 0 0 0 0 0 0 0 0 0 100 96 4 30 1 2 74 2 100 5 0 0
99 100 100 100 100 100 100 100 100 100 100 100 100 100 100 79 64 96 100 100 100 88 3 1 0 0 0 0 4 5 0 0 47 100 90 5 38 50 100 94 34 99 4 0 4
100 100 100 100 100 99 100 100 100 100 100 100 100 100 100 37 100 100 100 100 100 100 100 17 2 0 0 2 5 5 0 4 95 100 100 60 51 100 100 100 99 78 2 0 0
100 100 100 100 100 100 100 100 100 100 100 100 100 100 100 100 100 100 100 100 100 100 0 1 1 0 0 3 5 5 2 85 100 100 100 40 100 100 100 100 54 8 5 0 4
100 100 100 100 100 100 100 100 100 100 98 100 100 100 100 100 100 100 100 100 100 14 4 5 0 2 0 5 2 20 7 63 100 100 100 85 100 100 71 100 34 14 5 2 6
100 100 100 100 100 100 100 100 100 100 100 100 100 100 100 100 100 100 100 100 100 6 5 0 0 0 0 12 8 17 5 77 100 61 2 4 100 100 74 97 17 5 5 52 7
100 100 100 100 100 100 100 100 100 100 100 100 100 100 100 100 100 100 100 100 98 100 100 69 44 0 4 24 96 99 10 72 100 100 94 60 100 100 81 97 5 5 10 74 80
100 100 100 100 100 100 100 100 100 100 100 100 100 100 100 100 100 100 81 60 72 55 20 4 3 61 59 34 91 100 65 100 100 80 99 60 98 82 100 95 5 5 10 83 84
100 100 100 100 100 100 100 100 100 100 100 100 100 100 100 100 100 100 100 96 43 5 0 5 0 10 7 100 90 100 99 100 100 35 4 53 64 100 100 40 26 71 43 19 5
99 100 100 100 100 100 100 100 100 100 100 100 100 100 100 100 100 94 45 5 0 3 20 56 1 5 56 100 100 100 100 100 100 3 17 51 100 100 100 100 100 73 87 65 8
100 91 97 100 100 100 100 100 100 100 100 100 100 100 100 100 100 100 56 5 0 4 100 47 0 4 42 97 100 100 100 100 60 50 20 92 100 100 100 97 56 9 73 89 69
54 90 100 37 97 100 97 100 100 100 100 100 100 100 100 100 98 11 3 3 0 4 94 66 0 1 92 100 100 100 100 100 81 36 92 100 100 100 100 100 89 62 32 38 54
100 91 86 100 96 74 98 100 91 100 100 100 67 54 24 76 100 41 0 0 0 97 100 83 0 0 100 100 100 100 100 100 100 89 100 100 100 100 100 100 87 13 99 39 59
81 5 3 1 4 85 95 82 41 61 100 100 100 100 27 100 0 3 5 8 70 100 100 90 1 9 100 100 100 100 100 100 100 100 100 97 100 100 80 100 80 24 12 90 33
5 5 2 0 44 98 100 16 61 100 100 90 100 75 76 5 5 22 42 64 100 100 100 33 4 13 19 100 100 100 100 100 100 100 100 100 100 100 95 100 100 5 5 66 100
5 28 3 91 76 95 87 63 0 0 0 12 54 88 64 98 76 100 99 58 100 100 100 99 28 38 89 97 100 100 100 100 100 100 100 100 100 100 100 33 76 7 74 100 100
5 70 55 100 70 100 100 49 0 0 0 0 100 94 90 96 100 100 100 96 76 100 100 96 100 12 100 100 100 100 100 100 100 100 100 100 100 100 100 100 100 99 87 81 100
99 5 0 81 100 66 28 74 20 1 0 0 26 100 97 100 61 100 100 98 74 15 97 96 72 5 100 100 100 100 100 100 100 100 100 100 100 100 100 100 100 98 100 97 100
100 76 3 5 92 100 100 99 31 20 6 5 4 100 98 100 100 92 100 65 5 6 9 96 96 0 96 100 100 100 100 100 100 100 100 100 100 100 100 100 76 74 100 100 100
100 52 6 84 95 98 99 100 100 100 100 69 6 92 99 84 100 100 100 11 68 5 72 5 5 4 24 100 100 100 100 100 100 100 90 100 100 100 100 100 100 100 90 79 100
81 58 9 6 100 100 100 100 70 87 99 100 99 7 99 87 91 79 100 100 96 95 99 97 5 5 23 100 100 100 100 100 100 100 100 100 100 100 100 100 100 100 100 95 100
100 85 67 8 70 98 99 100 66 100 100 100 99 90 5 4 100 84 99 100 100 100 55 66 98 46 23 100 100 100 100 100 100 100 100 100 100 100 100 100 100 100 100 100 100

GFSSW_prec_cloud_069.txt.gz
Cloud_Cover
3 2 7 2 48 21 26 98 72 12 100 100 98 100 100 92 99 60 61 42 77 100 100 99 100 100 96 97 100 100 100 93 99 89 98 6 2 0 0 0 0 27 63 5 0
15 5 61 100 98 20 57 68 100 89 79 100 100 100 100 100 100 100 100 100 99 53 99 100 100 100 100 100 96 74 0 7 10 4 0 0 0 0 0 0 0 2 81 36 0
80 100 77 6 100 100 100 100 24 11 99 80 100 98 95 100 84 100 100 100 100 100 100 100 90 44 62 92 93 24 18 5 7 0 0 0 0 0 0 5 2 0 5 1 0
97 99 48 76 38 9 24 47 34 5 82 47 100 100 100 85 100 100 100 100 100 100 100 100 97 70 90 41 5 0 0 0 0 0 0 0 0 0 5 5 0 0 0 20 0
96 99 10 57 5 5 9 5 12 18 75 100 100 100 100 96 78 100 100 100 100 100 98 67 31 8 6 5 2 0 0 0 0 0 0 0 0 0 5 0 2 0 74 100 3
100 88 25 5 5 5 5 26 91 96 100 100 100 100 100 100 100 100 100 92 100 100 21 23 26 18 81 25 18 5 5 0 0 0 0 0 0 5 5 5 0 33 100 99 7
41 84 16 5 5 14 55 97 100 100 100 100 100 100 100 100 100 100 100 100 100 100 100 11 24 99 100 100 100 99 2 0 0 0 0 0 0 5 73 5 95 100 100 100 31
92 100 100 61 5 5 55 100 97 100 100 100 100 100 100 100 100 100 100 100 99 100 100 100 100 100 100 100 97 51 0 0 0 0 0 100 2 100 90 97 62 100 100 100 79
90 99 71 54 59 76 98 100 100 100 100 100 100 100 100 100 100 100 100 100 100 100 100 100 100 100 100 56 2 0 0 0 0 0 35 86 1 100 100 86 7 100 100 99 87
97 100 100 68 87 100 100 100 100 100 100 100 100 100 100 100 100 100 100 100 100 100 100 100 100 100 94 5 0 0 0 0 0 28 24 11 5 100 86 82 100 100 100 38 100
100 100 100 100 100 100 100 100 100 100 100 100 100 100 100 100 100 100 100 100 100 100 100 100 100 100 11 5 0 0 2 0 0 5 17 65 60 100 1 3 100 100 70 8 99
100 100 100 100 100 100 100 100 100 94 100 100 100 100 100 100 100 100 100 100 100 100 100 100 100 83 6 15 35 3 0 3 100 89 16 14 62 100 0 91 100 100 100 82 18
100 100 100 100 100 100 100 100 100 100 48 100 100 100 100 100 100 100 100 100 100 100 100 100 100 40 41 5 3 0 0 11 100 100 66 39 98 46 4 96 100 100 100 83 6
100 100 100 100 100 100 100 100 100 100 100 100 100 100 100 100 100 100 100 100 100 100 100 100 100 91 4 5 5 4 3 15 94 30 5 0 95 0 40 91 80 81 62 13 0
100 100 100 100 100 100 100 74 67 100 100 100 100 100 100 100 100 100 100 100 100 100 100 100 32 5 0 2 20 58 16 99 100 67 96 0 6 89 4 99 100 34 100 100 100
100 100 100 99 100 93 28 98 5 57 99 100 100 100 100 100 100 100 100 100 100 100 100 29 5 3 0 0 38 5 81 100 100 71 84 1 76 100 100 100 100 100 100 100 100
22 77 100 100 30 22 9 46 27 69 100 100 100 100 100 100 100 100 100 100 100 100 74 31 7 4 0 6 100 7 100 100 100 100 44 11 100 100 100 100 100 100 100 100 100
98 26 94 28 17 20 82 12 27 99 100 65 100 100 100 100 99 100 100 100 100 100 98 98 7 0 0 8 100 6 100 100 97 98 25 76 100 100 100 99 61 6 16 100 100
37 5 18 6 33 40 10 97 7 5 14 91 100 93 100 100 100 100 100 100 100 84 20 15 11 3 4 43 82 66 100 100 100 100 48 100 100 100 100 79 36 18 39 100 100
5 7 0 0 0 5 42 3 4 33 5 0 14 5 100 100 100 100 98 67 50 65 5 48 8 10 66 100 78 96 100 100 100 100 99 100 100 100 100 78 74 87 47 97 100
5 6 0 5 9 8 96 15 2 0 0 0 2 0 82 100 99 89 28 28 97 31 29 59 99 78 100 100 78 100 100 100 100 100 100 100 100 100 100 73 40 100 14 73 100
6 43 0 86 96 53 17 6 5 14 0 0 0 0 77 100 100 100 78 100 100 100 100 99 100 100 100 100 85 100 100 100 100 100 100 100 100 100 99 29 79 100 63 74 100
78 47 0 2 49 92 83 16 51 5 1 7 1 67 79 78 100 100 100 14 58 100 100 100 100 100 100 100 44 94 100 100 100 100 100 100 100 100 100 100 61 98 100 100 100
99 83 5 38 17 37 100 90 99 94 47 40 87 5 48 93 100 100 100 90 68 100 91 74 89 100 100 100 100 100 100 100 100 100 100 100 100 100 100 98 100 100 100 100 100
100 58 21 68 91 100 100 72 100 100 96 100 100 100 99 76 100 100 100 100 100 99 100 48 18 100 100 100 46 100 100 100 100 100 100 100 100 100 100 100 100 99 99 100 100
99 89 73 6 5 96 99 62 100 100 96 100 81 100 100 97 100 100 100 100 100 100 100 100 99 100 100 97 65 82 77 100 100 100 100 100 100 100 100 100 100 100 100 100 100
100 99 58 11 5 6 99 51 83 99 100 100 100 98 99 5 100 100 100 100 95 74 100 100 100 100 100 100 14 64 28 100 100 100 100 100 100 100 100 100 100 100 100 100 100

GFSSW_prec_cloud_072.txt.gz
Cloud_Cover
77 46 42 50 9 4 5 5 5 5 39 5 63 5 86 7 100 100 100 43 21 82 42 87 77 26 37 94 100 94 43 95 100 100 58 55 26 6 3 0 0 0 0 0 3
94 42 86 69 83 100 100 68 20 5 30 92 100 86 5 0 21 100 100 100 98 47 17 49 67 25 7 98 50 98 100 100 100 75 75 8 39 80 14 1 0 0 3 4 0
100 100 100 99 100 100 99 100 98 33 5 5 25 5 5 2 7 69 100 100 100 100 59 100 100 100 99 100 100 100 100 100 63 17 35 20 14 8 0 0 0 0 18 4 0
100 100 100 100 100 100 100 100 99 86 18 7 6 17 100 100 96 83 69 100 100 88 100 97 78 100 100 100 100 100 100 100 100 20 3 5 0 0 0 0 2 2 5 0 0
100 100 100 100 100 100 100 100 100 97 100 33 7 94 60 93 100 98 100 100 100 100 42 100 100 100 100 100 24 5 76 82 61 2 4 5 1 2 0 0 0 5 5 1 0
100 100 100 100 100 100 100 98 76 87 79 5 53 100 27 76 89 100 100 100 100 100 100 96 100 100 82 100 39 21 51 5 5 50 74 43 42 0 0 0 0 4 2 0 78
100 100 100 100 100 100 100 94 34 46 12 15 96 100 100 100 100 100 100 100 100 100 100 100 100 100 68 100 98 80 11 11 84 100 99 17 0 0 0 0 0 0 0 27 100
96 100 100 100 100 98 76 82 73 15 5 17 86 100 100 100 100 100 100 100 100 100 100 100 100 100 100 100 100 14 4 32 100 100 93 0 0 0 0 0 0 0 0 100 99
51 7 5 5 5 21 46 5 5 5 5 19 42 91 100 100 100 100 100 100 100 100 100 100 100 100 100 100 100 100 29 96 100 100 4 1 0 0 0 4 67 5 74 100 12
99 89 5 5 5 14 58 33 5 5 30 34 86 100 100 100 100 100 100 100 100 100 100 100 100 100 100 100 100 98 100 100 100 93 0 0 0 0 1 5 5 5 100 82 95
99 29 5 5 94 10 62 60 16 5 98 100 87 86 100 100 100 100 100 100 100 100 100 100 100 100 100 99 49 48 100 100 100 5 0 0 0 0 48 1 4 100 89 82 100
99 75 10 5 52 29 98 100 96 32 100 100 59 59 100 100 100 100 100 100 100 100 100 100 100 100 100 100 79 100 100 100 32 0 0 0 0 0 100 3 5 4 50 100 100
99 96 59 35 11 100 100 100 100 100 100 100 19 12 100 100 100 100 100 100 100 100 100 100 100 100 100 100 100 100 100 76 2 0 0 0 0 64 100 5 0 66 100 100 100
100 80 94 97 84 98 100 100 100 100 90 100 100 100 27 100 100 100 100 100 100 100 98 98 100 100 100 100 100 100 36 16 5 3 0 2 23 97 91 0 17 100 100 100 100
100 100 100 100 100 100 100 100 100 100 100 100 100 96 100 68 100 100 100 100 100 100 100 100 100 100 100 100 100 100 100 91 90 37 6 0 56 100 42 0 84 100 100 100 100
100 100 100 52 89 63 10 5 58 83 99 100 96 100 100 100 100 100 100 100 100 100 100 100 100 100 100 100 100 75 84 89 100 60 69 5 96 100 37 5 100 100 100 100 100
100 100 100 80 40 20 8 7 5 99 82 5 7 47 15 100 100 100 100 100 100 100 100 100 100 100 100 100 100 47 73 98 95 100 68 99 41 99 89 65 100 100 100 100 92
100 88 6 5 4 5 3 1 0 2 11 5 5 5 20 16 26 100 100 100 100 100 100 100 100 100 100 89 6 5 61 97 100 46 6 100 8 96 88 100 100 72 100 100 16
5 5 5 2 0 0 4 5 0 0 1 3 29 15 1 4 39 95 100 100 100 100 100 100 100 100 98 34 5 33 80 65 100 100 99 100 82 100 90 100 100 70 100 99 95
4 2 0 0 0 2 8 2 0 3 4 2 0 0 1 5 62 38 96 100 100 100 100 100 100 100 100 79 5 12 100 100 100 100 100 100 100 68 100 100 99 91 100 100 100
0 5 4 5 5 5 68 5 3 0 0 0 3 2 1 1 33 100 57 44 100 100 100 100 100 100 100 100 28 49 83 100 100 100 100 100 100 100 100 100 100 100 100 100 100
5 33 0 5 23 73 88 5 4 2 0 3 0 0 0 3 2 12 99 96 84 100 100 100 100 100 100 78 70 91 81 100 100 100 100 100 100 100 100 100 100 100 100 100 100
13 26 3 2 5 86 26 78 83 5 1 17 24 12 69 98 46 5 95 100 67 87 100 95 100 100 100 90 42 88 100 86 100 100 100 100 100 100 100 100 100 100 100 100 100
17 64 5 20 26 96 93 54 43 22 32 65 14 5 5 30 100 14 5 100 92 85 100 100 100 100 100 96 73 100 100 100 100 100 100 100 100 100 100 100 100 100 100 100 100
83 61 40 85 79 84 72 45 12 86 98 90 91 99 100 67 6 34 43 100 100 100 100 50 100 100 100 100 56 100 100 100 100 100 100 100 100 100 100 100 100 100 100 100 100
97 69 71 18 5 5 5 88 95 100 55 99 100 100 100 80 32 100 95 100 100 100 71 88 89 100 100 46 88 100 100 98 100 100 85 100 100 100 100 100 100 100 100 100 100
98 98 96 99 49 5 4 23 92 99 11 92 100 100 100 80 80 26 100 100 100 100 100 100 100 99 100 57 66 100 100 100 86 100 100 98 100 100 100 100 100 100 100 100 100

GFSSW_prec_cloud_075.txt.gz
Cloud_Cover
100 98 21 97 100 100 99 45 92 51 65 80 99 100 49 21 10 11 4 0 0 1 2 44 78 17 5 47 24 45 72 96 100 100 100 73 5 25 26 5 2 1 0 0 0
100 100 100 100 100 100 100 100 100 100 100 100 100 98 10 82 54 82 3 2 0 0 0 73 100 5 84 15 59 94 94 71 100 100 100 64 89 78 22 40 5 0 0 4 5
100 100 100 100 100 100 100 100 100 100 100 100 100 100 100 100 100 97 87 94 84 25 5 23 98 100 100 100 91 67 85 100 100 100 100 100 97 100 86 5 0 10 5 1 0
100 100 100 100 100 100 100 100 100 100 100 100 100 100 100 100 98 47 30 5 66 100 80 100 100 100 100 80 93 18 98 100 100 100 100 100 100 100 83 53 43 2 0 0 0
100 100 100 80 87 100 100 100 100 100 100 100 100 100 90 100 90 5 5 5 6 81 93 100 100 100 100 100 100 100 100 100 100 100 100 94 89 32 0 50 100 3 0 0 0
100 100 44 4 8 100 100 100 100 100 100 100 100 100 100 95 12 6 4 5 92 100 97 100 100 100 100 100 100 100 100 100 100 67 57 34 19 0 91 99 14 3 0 0 0
97 81 41 100 100 99 100 100 100 100 81 84 100 100 78 29 5 5 5 42 100 100 100 100 100 100 100 100 100 100 100 100 100 97 97 71 4 50 96 100 100 0 0 0 0
99 95 100 100 100 33 59 94 56 11 93 6 100 98 81 5 5 5 69 62 85 100 100 100 100 100 100 100 100 100 100 100 100 100 100 76 2 100 93 100 13 0 0 0 0
90 32 66 100 51 5 5 5 37 100 88 95 91 94 20 5 5 42 96 100 100 100 100 100 100 100 100 100 100 100 100 100 100 100 100 85 18 91 80 89 0 0 0 0 0
81 5 94 18 53 42 5 5 14 15 99 97 99 78 5 5 5 79 100 100 100 100 100 100 100 100 100 100 100 100 100 100 100 100 66 4 0 5 100 17 0 0 0 0 0
5 31 100 100 39 13 56 100 8 77 42 5 5 7 9 5 60 100 100 100 100 100 100 100 100 100 100 100 100 100 100 100 100 100 97 8 0 95 100 5 0 0 0 1 100
98 72 100 100 79 100 90 5 5 5 65 10 5 5 88 5 26 98 80 100 100 100 100 100 100 100 100 100 66 100 100 100 99 99 12 57 16 99 91 2 0 0 5 70 61
27 45 100 100 100 24 45 5 5 8 96 100 79 34 81 58 77 73 36 100 100 100 100 100 100 100 100 100 100 100 100 100 95 100 90 15 14 100 36 0 0 3 3 94 7
92 100 5 83 89 34 5 26 5 63 88 100 100 100 82 100 100 100 100 100 100 100 100 100 100 100 100 100 100 100 100 96 100 100 100 3 17 100 29 0 61 1 0 68 100
100 95 90 80 67 44 5 37 88 65 5 4 5 86 100 100 100 100 100 86 100 100 100 100 100 100 100 100 100 100 100 100 100 96 79 98 44 98 0 48 88 3 5 100 100
100 100 99 100 96 7 37 53 39 25 4 0 3 4 100 100 100 100 100 68 71 100 100 100 100 100 100 100 100 100 100 100 95 60 99 100 22 5 17 16 65 4 11 100 98
100 100 100 100 100 100 100 28 3 0 0 0 0 0 4 100 100 100 100 100 48 100 100 100 100 100 100 100 100 100 100 100 99 96 66 94 7 2 16 35 77 3 96 100 15
100 100 92 24 40 13 5 0 0 0 0 0 0 0 0 4 50 9 5 36 38 97 100 100 100 100 100 100 100 100 100 100 91 84 69 34 7 0 13 41 13 5 96 100 57
100 82 60 15 5 4 0 0 0 3 0 0 0 0 0 0 1 5 12 5 69 99 100 100 100 100 100 100 100 100 100 51 99 19 100 60 4 4 74 75 77 28 100 100 100
100 100 100 96 5 0 2 0 0 1 0 0 0 3 5 0 0 0 4 5 9 100 100 100 100 100 100 100 100 100 100 100 100 68 67 52 9 70 100 100 43 99 100 100 100
100 97 26 5 5 5 4 4 0 0 0 0 4 3 1 0 0 3 5 5 5 27 93 100 100 100 100 100 100 100 100 100 100 81 91 88 99 100 100 94 92 100 100 100 100
99 30 5 5 10 24 5 5 4 0 0 0 0 0 0 0 5 5 17 76 58 69 27 84 100 100 100 100 100 100 100 99 100 100 100 99 34 100 100 100 100 100 100 100 100
39 5 5 0 5 71 17 5 5 5 5 5 5 1 35 41 12 3 5 49 100 59 98 94 100 100 100 100 100 100 100 99 100 100 100 94 100 100 100 100 100 100 100 100 100
8 5 4 5 10 5 5 20 6 93 82 98 61 24 53 7 57 10 5 5 8 100 100 77 33 100 100 100 100 100 100 54 93 100 100 100 100 100 100 100 100 100 100 100 100
37 24 6 85 75 5 6 4 5 39 41 29 99 100 100 97 28 4 1 4 5 98 100 86 18 100 100 100 100 100 100 66 100 100 97 94 100 100 100 100 100 100 100 100 100
46 51 60 27 5 5 3 0 5 41 32 4 94 100 100 100 100 100 100 94 6 100 100 100 48 100 100 100 30 99 99 14 100 100 100 100 100 100 100 100 100 100 100 100 100
91 90 10 14 18 5 2 0 0 3 3 5 5 5 100 100 99 100 91 100 100 100 100 100 100 100 100 94 29 41 100 99 100 100 100 100 100 100 100 100 100 100 100 100 100

GFSSW_prec_cloud_078.txt.gz
Cloud_Cover
34 96 65 100 100 100 100 100 100 100 55 77 100 80 92 100 100 100 100 100 100 100 100 94 49 6 0 0 0 5 1 1 0 32 85 100 100 6 6 44 75 10 5 5 0
66 100 100 100 100 100 100 100 100 100 30 5 100 100 100 100 100 100 100 100 100 100 100 100 75 47 5 0 0 1 62 1 0 3 48 94 96 53 43 69 71 98 6 57 5
62 77 99 97 100 100 100 100 100 100 99 36 79 100 100 100 100 100 100 100 100 100 100 100 99 39 59 5 1 3 45 84 14 5 5 30 100 97 65 100 100 100 14 6 5
100 100 76 99 66 64 96 100 99 62 77 6 40 22 100 100 100 100 100 100 100 7 100 100 10 5 5 11 10 4 74 100 100 99 94 38 100 100 100 98 71 100 37 31 26
100 100 99 44 70 91 51 35 88 91 28 77 100 100 100 100 100 100 100 96 97 16 95 96 48 5 18 25 98 96 96 100 100 99 100 96 97 100 28 78 100 100 83 43 0
100 100 77 67 90 34 67 47 6 70 88 66 100 100 100 100 100 100 14 66 54 5 5 5 36 52 51 100 100 89 100 100 100 100 100 69 100 100 100 93 7 5 2 0 0
94 85 90 85 5 5 5 7 48 90 57 100 100 100 100 94 48 44 71 13 11 5 50 100 66 78 77 100 100 98 100 100 100 100 100 70 67 100 100 5 5 14 4 0 0
100 100 46 93 18 62 21 13 100 60 75 100 94 59 16 43 77 68 100 7 5 18 98 86 92 99 100 100 100 100 62 100 100 100 100 73 100 100 100 100 100 62 30 5 0
100 65 40 81 100 100 100 100 42 4 5 21 49 32 75 100 100 67 4 5 5 46 69 61 100 100 100 100 100 100 100 99 100 100 100 100 100 100 100 100 100 100 100 16 0
100 95 8 100 100 100 28 32 5 15 24 83 88 94 6 26 32 2 0 5 5 5 84 100 100 100 100 100 100 100 100 100 100 100 100 100 100 100 100 100 81 35 20 3 5
100 12 100 37 39 5 0 0 0 18 12 77 33 5 5 5 5 3 2 0 5 35 100 100 100 100 100 100 100 100 100 100 100 100 100 100 100 100 100 100 96 5 5 66 65
100 100 100 100 100 28 6 5 5 64 98 56 5 4 5 2 11 5 5 2 5 66 100 100 100 100 100 100 100 100 100 100 100 100 100 100 100 100 100 100 13 26 80 21 0
100 100 100 100 100 84 95 79 100 100 100 61 5 1 3 3 30 58 66 9 9 5 83 77 100 100 100 100 100 100 100 100 100 100 100 100 100 100 100 79 6 13 96 0 0
100 100 100 85 47 65 97 100 100 100 44 11 3 76 42 5 0 5 100 100 54 98 19 81 100 100 100 100 100 100 100 100 100 100 100 94 80 100 100 77 33 2 1 0 0
100 100 100 100 100 7 96 100 94 60 5 2 7 17 40 5 0 0 4 100 100 100 100 98 100 100 100 100 100 100 100 100 100 100 99 100 46 100 100 99 2 4 2 0 0
100 100 100 100 100 88 100 55 21 6 4 5 9 5 3 0 0 0 4 100 100 100 100 100 100 100 100 100 100 100 100 100 100 100 100 100 96 69 100 100 8 5 0 0 0
100 100 100 100 100 30 84 65 5 5 5 3 3 0 0 0 0 0 0 37 100 100 100 100 100 100 100 100 100 100 100 100 100 100 100 100 99 100 100 96 5 3 0 0 3
100 100 100 100 100 100 90 58 5 5 5 5 5 0 0 0 0 0 0 0 32 100 100 100 100 100 100 100 100 100 100 100 100 100 100 100 100 100 78 4 0 3 0 2 4
100 100 100 100 96 58 41 16 5 5 5 5 0 0 0 0 0 0 0 0 1 28 95 86 100 100 100 100 100 100 100 100 100 100 100 100 100 58 48 6 0 0 0 5 5
100 100 100 79 68 73 72 7 5 5 5 0 0 0 0 2 0 0 0 4 11 4 4 14 20 81 100 100 100 100 100 100 100 100 100 100 99 100 83 71 18 25 46 88 98
100 100 100 96 33 45 87 39 13 5 0 0 0 1 0 0 0 0 0 21 4 65 6 1 12 63 100 100 100 100 100 100 100 100 100 95 97 100 100 87 100 98 95 100 100
100 99 80 100 100 100 100 47 5 5 5 4 4 5 1 3 0 0 0 58 89 73 50 46 65 5 100 100 100 100 100 100 100 100 100 95 85 100 100 100 100 100 100 100 100
100 92 100 100 100 100 95 32 5 32 98 92 99 99 42 38 90 14 13 2 6 95 100 100 47 8 62 100 100 100 100 100 100 100 100 100 99 100 100 100 100 100 100 100 100
100 100 100 100 100 96 5 5 5 48 44 8 80 83 90 97 98 57 69 50 3 51 95 100 100 12 68 99 100 100 100 100 100 100 100 43 82 100 100 100 100 100 100 100 100
100 100 100 100 94 9 5 5 5 16 4 20 84 55 78 90 88 99 99 9 5 30 61 100 100 95 75 72 100 100 100 100 100 100 100 91 100 69 69 100 100 100 100 100 100
90 100 39 79 19 5 3 5 6 88 5 12 31 74 36 90 100 100 93 84 83 49 57 100 100 100 97 88 100 100 100 100 100 100 100 98 100 95 62 100 100 100 100 100 100
96 46 70 41 81 10 71 53 5 5 11 63 49 5 7 46 48 100 56 100 47 98 100 100 100 98 100 100 100 100 95 97 100 100 100 92 100 100 100 100 100 100 100 100 100

GFSSW_prec_cloud_081.txt.gz
Cloud_Cover
5 5 5 82 98 70 98 74 14 46 81 70 98 100 100 100 100 74 100 100 100 100 100 100 100 100 100 100 100 100 100 100 99 17 0 0 1 0 0 0 0 3 92 80 82
5 7 29 30 39 71 99 100 98 94 61 59 100 100 100 100 89 13 24 90 100 100 100 100 100 100 100 100 100 97 100 100 100 95 0 0 2 2 0 0 0 21 98 100 100
90 93 93 99 100 94 100 100 99 100 70 84 5 7 100 100 100 94 87 100 100 100 100 100 100 100 100 100 100 60 26 100 100 99 6 1 1 5 4 0 5 5 91 100 100
100 100 100 100 100 100 82 86 65 68 70 12 73 43 79 97 98 100 100 100 100 100 100 100 100 100 100 100 75 15 62 100 71 14 5 5 65 94 93 42 98 100 100 76 10
100 100 100 100 100 92 97 100 94 100 50 66 71 15 5 5 100 68 100 100 100 100 100 100 98 85 81 100 44 5 11 13 88 98 36 15 68 100 79 5 82 100 100 21 100
100 99 100 100 100 100 100 100 99 100 47 86 8 81 89 92 82 99 88 61 52 30 94 42 20 38 5 14 56 63 5 3 42 8 63 85 71 100 100 66 71 97 94 99 100
100 86 89 100 100 100 100 100 100 100 95 94 29 75 100 97 100 100 73 49 94 94 60 57 97 12 5 6 5 52 64 72 80 100 89 93 36 100 100 100 100 100 100 100 78
100 100 100 100 92 100 100 100 73 100 100 17 80 83 52 100 100 100 85 69 40 41 37 13 5 28 85 52 89 100 37 54 91 99 93 90 66 100 100 100 60 100 100 100 100
100 100 100 100 100 91 100 100 82 100 100 100 59 5 33 100 98 20 8 5 22 87 18 1 5 26 95 100 100 100 70 95 100 99 100 80 73 100 97 100 100 100 100 100 100
99 100 100 99 100 92 75 100 100 100 100 68 5 5 64 4 1 5 5 96 13 5 3 0 0 5 74 100 100 100 99 100 100 98 100 68 78 100 100 100 100 100 100 100 100
100 88 93 74 71 18 69 5 87 42 2 5 3 78 31 3 3 60 80 75 5 5 0 0 0 2 100 84 100 100 92 100 100 100 77 100 54 100 100 100 100 100 100 100 100
100 96 51 14 94 61 36 90 7 4 18 90 73 32 23 28 91 100 16 0 1 1 0 2 0 5 24 100 100 100 100 100 99 99 40 100 94 100 100 100 100 100 100 100 100
100 100 100 100 100 100 100 86 69 100 100 100 98 98 100 98 99 50 3 0 0 0 1 5 50 46 92 100 100 100 100 100 100 100 100 100 75 100 100 100 100 100 100 100 80
100 100 100 100 100 100 100 100 99 72 99 39 100 100 68 5 5 3 0 0 0 0 5 5 95 42 100 99 100 100 100 100 100 100 100 100 100 100 100 100 100 100 100 100 20
100 100 100 100 100 100 100 100 100 100 100 46 99 36 10 5 0 10 0 0 0 0 0 7 100 100 100 100 100 100 100 100 100 100 100 100 100 100 100 100 100 100 100 84 100
100 100 100 100 100 100 100 100 100 100 18 62 5 14 1 0 0 0 0 1 0 0 0 4 43 100 100 100 100 100 100 100 100 100 100 100 100 100 100 100 100 100 100 93 25
100 100 100 100 100 100 100 100 98 79 99 5 5 1 1 2 3 2 3 5 2 38 34 92 99 100 100 100 100 100 100 100 100 100 100 100 100 100 100 100 100 100 100 76 37
100 100 100 100 100 100 100 100 96 100 100 5 4 5 5 4 0 0 0 0 3 16 5 9 87 92 100 100 100 100 100 100 100 100 100 100 100 100 100 100 100 100 100 100 100
100 100 100 100 100 100 100 100 100 46 5 5 6 5 6 5 0 5 0 0 0 87 100 98 100 30 100 100 100 100 100 100 100 100 100 100 100 100 100 100 100 100 100 85 58
100 100 100 100 100 100 98 87 8 5 5 6 62 36 66 26 4 5 3 3 83 54 44 4 61 99 97 100 100 100 100 100 100 100 100 100 100 100 100 100 100 100 100 88 87
100 100 100 100 100 100 100 94 44 48 60 82 99 93 18 6 3 0 0 44 96 20 100 93 100 54 100 85 100 100 100 100 100 100 100 100 100 100 100 100 100 100 87 96 100
100 100 100 100 100 100 100 100 100 30 80 99 88 48 5 3 5 5 3 0 95 54 30 96 37 100 100 98 100 100 100 100 100 100 100 100 100 100 100 100 100 100 87 84 100
100 100 100 100 100 100 100 100 100 100 100 95 34 56 34 97 89 12 10 25 4 33 49 69 16 96 100 90 98 84 100 100 100 100 100 100 100 100 100 100 96 100 48 74 100
100 100 100 100 100 100 100 100 100 90 78 42 89 78 98 94 100 94 100 100 73 98 45 84 19 86 70 100 86 100 100 100 100 100 100 100 100 100 100 100 98 53 85 100 100
100 100 100 100 100 100 100 95 34 40 16 85 43 35 55 89 27 100 99 95 45 100 49 41 81 71 61 46 90 15 98 100 100 100 100 100 100 100 100 100 72 100 100 98 100
100 100 100 100 100 100 51 8 5 70 5 99 4 62 100 94 84 59 97 80 100 100 100 81 39 100 6 72 97 5 100 100 100 100 100 100 100 100 99 98 100 97 100 100 100
100 98 95 100 100 61 98 54 5 5 5 11 98 99 100 100 98 12 5 29 58 100 78 87 88 100 17 100 98 18 100 96 100 100 100 100 99 46 100 60 100 100 100 100 100

GFSSW_prec_cloud_084.txt.gz
Cloud_Cover
100 100 100 100 90 9 12 97 81 95 83 92 96 100 8 5 5 43 97 93 12 12 34 100 100 100 100 100 100 100 100 97 100 100 100 100 100 79 54 100 7 0 0 0 0
63 81 100 63 77 90 42 26 71 100 100 99 100 100 11 5 5 5 82 12 5 12 5 5 5 8 62 100 100 100 100 100 100 97 76 6 4 3 45 100 16 0 0 0 0
11 11 52 84 100 100 100 100 100 100 100 100 100 100 9 51 62 5 16 100 100 100 100 100 100 94 100 90 100 100 98 100 100 100 100 52 1 5 67 57 11 0 0 0 0
5 5 56 39 57 98 100 100 100 100 100 100 100 100 15 6 27 95 30 14 10 61 70 100 100 100 100 100 100 100 100 100 99 31 20 5 20 64 4 51 58 10 1 4 1
45 52 26 48 78 100 100 100 100 92 100 100 100 100 99 86 54 46 50 56 71 97 77 100 100 100 100 100 96 59 24 37 63 69 24 3 1 5 9 18 5 5 4 4 59
98 89 30 100 100 100 97 96 96 92 97 100 100 100 100 100 100 100 16 75 84 94 95 35 80 100 89 100 82 5 4 2 5 30 1 3 4 5 33 100 39 37 5 2 5
100 100 64 80 100 100 100 100 100 100 100 96 48 16 86 100 100 100 54 35 78 100 99 15 5 5 5 5 5 5 4 5 1 5 5 99 5 5 69 100 64 5 2 5 98
100 100 100 100 100 100 100 100 92 100 100 100 100 100 100 91 100 100 100 100 93 100 100 6 26 20 5 4 5 4 1 1 3 100 25 100 0 5 84 100 99 17 13 92 100
100 100 100 100 100 89 99 100 85 100 84 82 100 99 99 8 55 100 100 100 88 64 31 5 4 4 1 30 13 2 0 5 3 82 92 75 0 5 95 90 11 96 98 100 100
100 100 100 100 100 100 71 40 42 78 89 28 7 11 15 52 22 5 28 26 54 41 5 31 60 5 91 10 1 3 16 66 29 63 100 99 81 60 100 97 100 100 58 98 100
100 100 100 100 100 100 100 98 75 63 98 97 38 5 5 6 5 3 22 28 47 37 45 74 5 94 47 2 1 0 0 0 76 100 100 88 100 11 100 60 100 100 100 100 100
100 100 100 100 100 100 86 90 98 95 100 85 63 42 44 4 2 11 41 19 5 10 38 5 54 3 2 5 5 9 0 0 81 100 95 80 59 100 100 100 100 100 100 100 100
100 100 100 100 100 100 100 100 100 100 97 84 100 94 70 100 99 100 23 14 31 42 5 5 4 93 72 3 4 11 5 19 100 93 79 85 50 78 100 100 100 98 100 100 100
100 100 100 100 100 100 100 100 100 100 100 100 100 100 100 97 90 99 17 28 51 7 3 2 2 4 34 15 5 5 91 15 100 85 36 100 6 72 99 98 99 100 100 100 100
100 100 100 100 100 100 100 100 100 100 100 66 100 98 100 51 10 13 45 5 2 5 0 0 1 1 0 1 2 9 81 7 99 70 5 100 82 100 100 100 100 100 100 100 100
100 100 100 100 100 100 100 100 100 100 100 100 93 100 100 97 34 5 9 14 5 1 0 0 0 0 0 0 4 92 89 11 66 100 25 100 100 100 100 100 100 100 100 100 100
100 100 100 100 100 100 100 100 100 100 100 100 100 99 93 95 71 54 4 5 4 5 5 46 28 5 36 0 0 92 100 90 100 100 100 100 100 100 100 100 100 100 100 100 100
100 100 100 100 100 100 100 100 100 100 100 100 100 93 96 92 38 5 4 0 2 5 5 23 9 80 100 3 0 32 100 100 100 100 100 100 100 100 100 99 99 100 100 100 100
100 100 100 100 100 100 100 100 100 100 100 100 100 100 100 74 5 3 5 5 5 13 88 86 99 98 48 56 13 5 100 100 100 100 100 100 100 100 100 99 100 100 100 100 100
100 100 100 100 100 100 100 100 100 100 100 100 100 100 90 96 4 0 5 5 18 65 5 5 42 4 65 55 18 5 85 100 100 100 100 100 100 100 100 100 100 100 100 100 100
100 100 100 100 100 100 100 100 100 100 100 100 100 100 100 100 82 5 5 12 4 17 98 96 51 5 21 83 83 96 65 100 100 100 100 100 100 100 100 100 100 100 100 100 100
100 100 100 100 100 100 100 100 100 100 100 100 100 100 100 99 65 50 5 5 2 6 76 96 46 64 5 35 55 92 66 100 100 100 100 100 100 100 100 100 100 100 100 100 100
100 100 100 100 100 100 100 100 100 100 100 100 100 100 100 99 20 5 5 12 1 0 94 32 5 89 11 51 26 81 93 99 100 100 100 100 100 100 100 100 99 100 100 100 100
100 100 100 100 100 100 100 100 100 100 100 100 100 96 44 66 25 49 7 85 4 61 4 10 18 99 45 99 100 95 71 94 100 100 100 100 100 100 100 100 100 100 100 100 100
100 100 100 100 100 100 100 100 100 100 100 100 100 28 5 67 99 92 100 18 39 55 4 96 64 41 99 40 100 86 93 94 100 100 100 100 100 100 100 100 100 100 100 100 100
100 100 100 100 100 100 100 100 100 100 100 69 5 7 80 58 98 99 94 100 5 20 6 100 45 5 5 24 85 100 100 80 99 100 100 100 100 100 100 100 100 100 100 100 100
100 100 100 100 100 100 100 100 100 100 18 5 11 54 62 53 46 49 5 2 2 4 5 100 100 100 4 77 84 20 3 72 100 100 100 96 92 100 100 100 100 100 100 100 100

GFSSW_prec_cloud_087.txt.gz
Cloud_Cover
100 100 99 6 46 98 88 100 100 94 94 36 46 54 62 100 100 75 49 19 9 5 5 5 5 5 4 5 4 4 7 26 96 95 99 60 100 100 67 21 55 89 71 92 91
100 100 100 100 100 34 8 18 37 100 100 100 96 100 100 100 100 100 100 100 100 95 40 26 22 5 2 5 2 4 4 94 49 13 99 100 100 100 100 100 100 100 48 1 0
100 100 100 100 100 42 6 5 27 48 94 100 100 100 100 100 100 100 100 100 100 61 7 22 41 6 9 45 93 51 67 83 100 100 100 100 100 100 50 100 51 7 35 26 0
7 5 5 6 5 67 59 99 98 100 100 96 100 100 100 100 100 100 100 100 100 100 100 100 100 100 88 100 89 100 100 100 42 24 94 100 100 100 40 2 37 98 76 6 11
100 99 100 96 100 52 92 81 100 100 100 100 58 100 65 99 97 91 100 93 100 100 100 100 100 100 100 100 99 100 100 99 16 0 1 0 2 3 39 4 4 6 55 80 10
100 100 100 100 100 100 87 93 95 100 99 46 99 100 94 100 95 100 100 100 97 100 100 100 100 100 100 100 100 100 76 11 5 0 0 0 0 0 0 2 0 5 28 98 82
100 100 100 100 100 100 100 64 100 100 100 100 100 100 100 100 100 100 100 100 100 100 100 100 100 84 46 96 100 100 83 5 3 1 3 0 0 0 0 6 15 6 99 100 100
100 100 100 100 100 100 100 100 100 100 100 78 100 100 100 100 100 15 49 81 72 77 96 98 71 87 6 63 91 5 3 1 26 16 0 3 0 0 0 2 5 100 99 98 98
100 100 100 100 100 100 100 100 100 100 100 100 98 100 100 8 83 97 70 61 89 16 96 5 4 35 33 18 5 5 6 7 80 0 0 2 0 0 0 1 4 66 86 24 95
100 100 100 100 100 100 100 100 100 100 100 100 94 84 100 29 28 21 9 91 89 6 5 5 5 6 5 5 5 5 16 55 0 0 1 0 0 0 2 5 4 100 100 100 100
100 100 100 100 100 100 100 100 100 100 100 100 100 100 100 11 96 9 5 5 3 3 5 5 11 57 92 100 45 5 5 5 0 0 5 5 1 0 37 98 72 95 87 55 49
100 100 100 100 100 100 100 100 100 97 97 86 100 100 91 75 14 34 5 5 9 31 93 82 99 100 56 6 2 5 49 2 0 0 4 0 0 0 5 83 26 100 100 100 98
67 100 99 100 100 100 100 100 100 100 100 100 99 100 94 27 23 16 19 17 33 88 100 98 98 11 12 29 66 5 2 0 3 0 0 2 0 0 16 100 100 100 100 100 23
100 100 100 100 94 94 100 100 100 100 100 95 100 100 81 98 66 100 100 100 100 100 5 18 6 15 86 99 99 5 3 0 0 0 0 1 1 5 89 89 100 100 100 100 90
73 100 100 100 100 78 100 100 100 100 99 48 83 100 100 100 100 100 100 100 100 100 40 6 19 5 5 5 0 0 0 0 0 0 0 47 11 96 85 61 100 100 83 77 50
100 100 100 100 100 100 100 100 100 100 100 99 100 100 100 100 100 100 100 100 100 100 100 88 6 2 0 0 0 0 0 4 0 0 2 36 73 100 88 34 97 62 100 100 57
100 100 100 98 100 100 100 100 100 100 100 100 100 100 100 100 100 100 100 100 100 100 95 8 10 5 1 0 0 0 0 4 2 2 32 4 100 100 100 100 100 98 100 100 100
100 100 100 100 100 100 100 100 100 100 100 100 100 100 100 100 100 73 67 98 77 21 16 60 2 0 1 3 3 5 1 4 5 5 34 36 100 100 100 100 100 100 100 100 100
100 100 100 100 100 100 100 100 100 100 100 100 100 100 100 100 100 97 83 100 50 5 5 3 0 0 5 1 1 0 4 0 40 10 57 100 100 100 100 100 100 100 100 100 100
100 100 100 100 100 100 100 100 100 100 100 100 100 100 100 100 100 100 100 100 100 27 66 79 4 4 58 70 19 3 14 4 28 83 100 100 100 100 100 100 100 100 100 100 100
100 100 100 100 100 100 100 100 100 100 100 100 100 100 100 100 100 96 9 67 84 35 63 60 46 1 3 91 13 37 9 0 2 43 99 100 100 100 100 100 100 100 100 100 100
100 100 100 100 100 100 100 100 100 100 100 100 100 100 100 100 100 100 100 100 100 100 22 5 0 0 0 7 46 8 78 97 43 98 100 100 100 100 100 100 100 100 100 100 100
100 100 100 100 100 100 100 100 100 100 100 100 100 100 100 100 100 100 100 100 100 91 5 0 0 5 0 0 2 9 49 99 100 99 100 100 100 100 100 100 100 100 100 100 100
100 100 100 100 100 100 100 100 100 100 100 100 100 100 100 100 100 100 100 87 32 8 4 3 0 2 48 1 71 98 100 100 96 100 99 79 100 100 100 100 100 100 100 100 100
100 100 100 100 100 100 100 100 100 100 100 100 100 100 100 100 100 83 14 10 25 0 2 69 7 20 5 1 60 100 76 100 96 100 100 100 100 100 100 100 100 100 100 100 100
100 100 100 100 100 100 100 100 77 100 100 100 100 100 100 100 92 5 4 1 4 0 0 5 5 5 5 0 4 97 5 41 100 97 100 100 100 100 100 100 100 100 100 100 100
100 100 100 100 100 100 100 100 100 100 100 100 100 100 87 5 2 0 0 0 3 0 0 0 5 91 84 100 87 57 95 100 100 100 50 100 100 100 100 100 100 100 100 100 100

GFSSW_prec_cloud_090.txt.gz
Cloud_Cover
100 100 96 28 88 100 100 100 74 31 5 5 5 84 99 60 77 36 93 100 52 36 92 100 100 100 100 68 3 2 0 8 18 4 5 15 5 5 5 0 48 100 97 91 80
74 55 5 5 5 100 100 100 100 100 99 60 5 5 25 5 62 91 75 87 89 19 6 80 100 98 100 100 88 98 100 12 8 8 35 11 83 92 29 2 4 50 100 100 100
5 88 5 5 5 50 100 100 100 97 100 74 50 5 5 18 98 96 20 100 100 100 100 100 100 100 100 100 100 100 100 100 99 98 97 100 100 100 92 90 8 6 1 4 93
89 100 72 11 13 45 20 100 100 66 5 5 5 16 5 14 92 5 99 100 100 100 100 100 100 100 100 100 100 100 100 100 100 100 100 100 100 100 100 58 57 5 0 0 0
100 98 100 100 100 100 100 97 81 100 56 35 11 5 6 62 87 13 100 100 100 100 100 100 100 97 98 100 89 100 100 100 100 100 100 96 35 31 42 47 26 0 0 0 0
100 100 95 100 100 100 100 100 98 100 100 100 91 99 68 97 5 91 78 54 57 100 100 100 48 65 90 100 97 82 100 100 100 98 31 4 11 8 94 16 5 1 2 4 4
100 100 100 100 100 100 100 100 100 100 49 41 76 100 100 96 9 100 100 99 19 62 100 100 100 100 91 70 66 30 86 65 69 18 16 1 25 6 7 31 1 4 0 0 3
100 100 100 100 100 100 100 100 100 100 100 25 83 100 99 100 75 7 94 100 100 100 100 100 97 78 96 72 58 77 6 8 10 5 2 0 4 26 6 81 5 0 0 0 0
100 100 100 100 100 100 100 100 100 100 100 100 87 100 66 93 100 100 14 76 100 100 100 100 100 32 11 10 82 6 7 38 11 5 5 0 0 5 5 1 0 0 0 0 1
100 100 100 100 100 100 100 100 100 100 98 100 55 79 48 50 61 68 5 48 100 100 100 100 86 12 5 5 20 87 63 32 5 5 5 4 0 0 0 0 0 0 0 0 2
100 100 100 100 100 100 100 100 100 100 100 92 81 94 100 100 100 100 78 94 100 100 100 100 100 100 100 5 7 5 12 60 56 100 5 7 0 0 0 0 0 0 5 1 4
100 100 100 100 100 100 99 100 100 99 80 96 99 100 100 100 100 100 100 91 97 99 100 100 100 25 5 4 4 31 81 94 15 5 5 0 0 0 0 0 0 0 0 35 92
100 100 100 100 100 99 69 100 100 95 21 88 99 100 92 88 100 100 100 100 72 88 38 46 99 96 13 6 91 100 100 97 100 18 3 0 0 0 0 0 0 0 24 51 99
100 100 96 100 66 35 79 99 100 98 89 60 91 69 100 98 100 100 100 100 100 80 7 17 100 43 13 98 100 100 100 100 28 5 0 0 1 0 0 1 1 4 0 87 100
100 98 87 80 78 76 97 77 100 84 99 99 85 94 98 100 94 100 100 100 100 100 100 100 61 5 100 100 100 100 100 100 98 3 0 0 0 0 0 36 8 80 100 100 100
97 79 94 100 94 100 100 100 97 98 94 91 100 100 95 100 99 100 100 100 99 98 62 100 80 100 100 100 100 100 94 8 3 0 0 0 0 12 21 98 100 78 68 100 100
100 88 99 100 100 100 100 100 96 100 71 55 89 100 100 100 100 100 100 100 94 85 99 100 100 100 100 88 100 89 26 5 4 0 0 0 2 19 90 100 100 100 100 100 100
100 100 100 100 100 100 100 100 100 100 100 91 100 100 100 100 100 100 100 100 100 100 100 100 100 100 100 72 52 8 90 65 5 0 0 0 0 3 81 100 100 100 100 100 100
100 100 100 100 100 100 100 100 100 100 100 100 100 100 100 100 100 100 100 100 100 100 100 100 100 100 100 99 9 6 7 48 61 3 18 3 15 91 100 100 100 100 100 100 100
100 100 100 100 100 100 100 100 100 100 100 100 100 100 100 73 82 100 100 100 100 100 96 76 62 84 81 5 5 21 92 100 95 31 25 2 7 100 100 100 100 100 100 100 100
100 100 100 100 100 100 100 100 100 100 100 100 100 100 100 100 100 100 100 100 82 76 92 100 9 0 13 97 99 99 70 100 9 27 73 44 13 100 100 100 100 100 100 100 100
100 100 100 100 100 100 100 100 100 100 100 100 100 100 100 100 82 100 100 100 100 100 100 70 1 3 6 99 97 96 83 90 100 41 53 5 62 100 100 100 100 100 100 100 100
100 100 100 100 100 100 100 100 100 100 100 100 100 100 100 100 100 100 100 100 100 100 58 5 10 5 2 35 96 15 60 100 100 100 91 100 100 100 100 100 100 100 100 100 100
100 100 100 100 100 100 100 100 100 100 100 100 100 100 100 100 100 100 100 100 100 100 85 93 100 12 5 2 1 1 25 100 100 99 76 49 100 100 100 100 100 100 100 89 100
100 100 100 100 100 100 100 100 100 100 100 100 100 100 100 100 100 83 33 52 20 13 5 5 5 5 1 0 0 0 0 69 100 60 100 67 100 100 100 100 100 100 100 100 100
100 100 100 100 100 100 100 100 100 100 100 100 100 100 100 100 100 18 5 5 20 10 2 1 3 3 0 0 0 5 0 14 97 52 84 100 100 100 100 100 100 100 100 99 100
100 100 100 100 100 100 100 100 100 100 100 100 100 100 97 65 11 18 17 5 2 0 0 0 3 5 0 2 4 5 0 0 90 99 100 99 100 100 100 100 100 100 100 100 100

GFSSW_prec_cloud_093.txt.gz
Cloud_Cover
22 100 100 100 100 100 100 100 100 53 10 15 97 100 7 46 47 13 8 4 5 5 5 5 5 4 0 5 5 5 3 36 100 100 98 100 97 20 5 6 33 59 73 7 4
100 100 82 100 100 100 100 100 100 18 57 5 28 100 100 100 91 5 9 5 5 5 5 24 4 3 5 5 5 29 3 22 100 100 100 100 35 100 7 30 98 100 79 90 19
100 100 44 48 96 100 89 100 100 28 5 4 7 91 99 100 100 70 85 34 35 5 5 5 5 5 28 5 29 5 76 100 100 100 65 98 98 100 70 100 100 100 100 76 5
100 100 100 97 29 100 100 53 47 10 5 5 5 5 5 58 83 20 34 99 82 48 35 15 5 19 54 16 100 100 76 82 17 74 21 12 30 91 78 100 100 100 100 12 5
100 98 100 100 100 100 100 100 87 78 9 5 30 73 40 90 100 6 82 100 54 57 100 96 32 5 5 26 99 100 100 100 74 55 38 5 81 27 93 78 6 5 32 32 5
100 100 100 97 95 82 85 100 100 84 75 18 6 81 92 93 100 72 79 98 57 18 27 62 41 15 54 76 100 100 100 97 98 100 100 99 78 41 98 68 20 36 66 79 5
100 100 100 100 100 80 98 100 100 94 100 23 21 52 86 100 70 100 100 74 93 51 5 57 90 100 100 100 100 100 100 100 100 100 5 5 97 39 6 40 42 5 67 95 10
100 100 100 100 100 92 100 100 100 100 100 18 98 84 58 100 23 100 100 100 76 6 14 18 26 31 100 100 100 100 100 100 100 100 100 13 98 5 5 4 5 10 5 5 5
100 100 100 100 100 100 100 100 100 100 100 97 88 73 77 31 98 38 93 96 65 81 98 53 65 17 68 100 100 100 100 100 100 100 42 3 78 7 88 6 40 5 4 35 1
100 100 100 100 100 100 100 100 100 100 100 100 66 63 57 5 90 84 48 91 99 100 100 98 12 12 100 100 87 100 100 100 100 100 93 63 21 26 64 5 5 5 0 0 0
100 100 70 100 100 100 100 100 100 100 100 98 55 100 60 10 55 99 100 90 100 100 100 100 98 100 96 100 100 100 100 100 100 37 74 89 5 5 6 96 47 0 5 0 0
100 100 100 99 100 100 100 100 100 100 65 27 63 99 68 23 98 100 90 97 96 100 100 100 100 99 20 71 97 57 35 80 77 99 67 41 5 5 51 12 5 4 0 0 0
100 100 100 100 100 98 100 100 99 100 87 5 5 22 100 11 88 100 100 65 99 99 100 100 100 100 100 92 87 55 40 100 80 100 100 88 1 97 100 34 4 0 2 1 0
100 100 100 100 100 100 84 88 75 100 99 2 5 1 49 6 9 100 100 62 38 93 74 91 100 45 91 100 100 98 100 99 100 96 91 36 65 96 88 5 0 0 4 4 0
100 100 100 100 100 91 81 88 100 100 100 5 4 5 9 5 20 15 97 100 100 100 64 66 97 66 46 100 96 100 100 100 100 99 67 100 10 5 65 0 0 0 1 14 2
100 100 100 100 100 100 100 100 96 87 42 99 13 0 2 34 29 93 41 100 100 65 13 100 100 77 100 100 100 100 100 100 100 100 100 89 7 16 1 0 0 1 0 25 65
100 100 100 100 100 100 100 97 100 64 39 53 60 46 80 100 100 100 100 72 14 62 29 100 100 100 100 100 100 100 100 100 100 100 100 100 19 5 0 0 3 3 100 96 100
100 100 100 100 100 100 100 100 98 5 99 95 97 100 100 94 100 100 100 64 32 100 100 100 100 100 100 100 100 100 100 100 100 100 100 86 4 0 0 3 5 44 97 100 100
100 100 100 100 100 100 100 100 100 100 100 100 100 100 100 99 100 100 99 100 100 100 100 100 100 100 100 100 100 100 100 100 100 94 61 2 0 0 0 2 31 100 100 96 100
100 100 100 100 100 100 100 100 100 100 100 100 100 100 100 100 100 100 100 100 100 100 100 100 100 100 100 100 100 100 100 97 86 71 94 0 0 4 0 4 100 87 100 100 100
100 97 99 100 100 100 100 100 100 100 100 100 100 100 100 100 100 100 100 94 100 100 100 100 100 100 100 100 100 100 100 100 31 88 100 27 4 2 0 86 100 100 100 100 100
98 98 100 96 100 100 100 100 100 100 100 100 100 100 100 100 100 100 100 100 99 100 100 100 100 46 99 100 100 100 100 92 97 100 100 96 19 5 5 100 100 100 100 100 100
97 89 93 98 100 100 100 100 100 100 100 100 100 100 100 100 100 100 100 100 100 100 100 100 100 100 86 29 100 100 100 100 91 80 75 89 23 5 28 100 100 100 100 100 100
100 86 100 100 100 100 100 100 100 100 100 100 100 100 100 100 100 100 100 100 100 100 100 93 53 40 26 100 100 80 21 3 34 58 51 40 8 3 69 100 100 100 100 100 100
96 96 100 100 100 100 100 100 100 100 100 100 100 100 100 100 100 100 100 100 100 100 100 98 42 7 4 0 0 0 0 0 0 0 3 0 4 5 100 100 100 100 100 100 100
100 100 100 100 100 100 100 100 100 100 100 100 100 100 100 100 100 100 100 100 100 93 75 100 98 12 0 0 0 0 0 0 0 0 0 15 1 65 100 100 100 100 100 100 100
100 100 100 100 100 100 100 100 100 100 100 100 100 100 100 100 100 100 100 100 100 92 6 12 7 5 0 0 1 0 29 78 19 0 0 35 8 100 100 100 100 100 100 100 100

GFSSW_prec_cloud_096.txt.gz
Cloud_Cover
100 100 100 100 100 100 95 100 100 99 100 100 100 100 100 100 87 11 100 100 68 100 26 9 6 5 5 5 3 0 0 5 7 5 5 98 7 25 95 100 84 100 79 4 9
100 100 100 100 100 100 100 100 100 100 100 100 100 100 100 88 47 5 5 100 100 100 100 55 37 86 32 6 4 1 5 5 5 20 28 97 65 100 14 10 92 21 5 31 15
100 100 100 100 100 100 100 100 98 5 41 100 88 90 100 94 51 32 31 72 100 94 96 81 94 94 24 5 5 5 5 34 70 100 5 5 100 100 47 5 5 17 12 5 21
100 100 100 100 100 100 100 100 99 100 91 55 5 33 5 28 96 23 8 60 6 5 5 5 5 5 5 8 5 5 8 90 10 7 97 99 4 8 5 8 22 38 37 4 0
100 100 100 100 100 100 100 100 99 94 97 30 5 9 99 55 86 5 5 18 97 81 5 5 5 4 5 5 16 6 17 5 5 98 100 61 77 47 94 100 86 66 24 6 2
92 100 100 100 100 100 100 100 100 80 52 72 37 7 92 50 100 18 5 7 25 38 66 91 6 5 5 14 56 20 7 60 51 100 100 100 60 89 100 100 98 100 100 99 6
73 100 100 100 100 100 100 100 96 98 93 94 24 34 45 90 7 5 80 92 7 96 33 13 5 21 11 98 98 76 12 29 98 100 92 45 100 100 100 100 100 100 60 7 5
100 100 100 100 100 79 100 100 100 100 100 100 52 93 15 73 5 5 8 52 88 8 21 97 32 85 99 97 100 61 67 97 99 5 52 100 100 100 100 100 100 73 15 54 90
100 100 100 100 100 55 100 100 100 100 100 100 98 40 9 5 5 18 5 75 30 20 6 31 42 72 100 100 100 100 35 9 60 93 67 5 78 100 100 100 100 100 100 97 33
100 100 100 100 100 78 99 81 100 86 100 100 100 93 5 5 5 5 6 66 61 100 19 8 68 44 73 100 100 69 68 99 100 100 43 56 98 100 100 100 100 100 76 12 5
100 100 100 100 100 100 100 100 100 100 100 100 100 44 68 7 5 44 5 58 97 100 100 48 5 54 100 100 100 100 100 100 100 100 20 7 99 100 100 99 67 12 5 1 5
100 100 100 100 100 100 68 100 97 95 100 100 100 89 95 100 59 70 60 46 100 100 69 5 40 100 39 32 95 100 100 100 100 100 38 15 20 100 100 56 17 4 2 4 3
100 100 100 100 100 100 100 100 100 100 100 87 28 100 100 100 93 100 81 100 100 100 96 100 92 63 23 53 54 99 100 100 100 100 86 23 28 100 100 32 5 0 0 0 0
100 100 100 100 100 99 100 100 100 100 97 1 63 93 100 100 57 100 90 100 58 100 100 8 78 92 99 80 73 29 100 100 100 100 100 90 4 36 93 99 7 5 6 5 6
100 100 100 100 100 100 100 100 100 78 100 2 0 0 69 46 2 99 100 51 50 100 88 5 18 8 28 98 34 94 51 43 96 100 79 83 99 5 100 100 70 68 100 97 19
100 100 100 100 100 100 100 100 100 100 85 86 5 0 0 2 4 60 44 27 67 60 44 84 38 61 98 93 99 99 100 100 88 57 5 95 24 5 100 100 100 100 100 20 10
100 100 100 100 100 100 100 100 100 100 100 100 77 67 37 78 91 100 100 100 44 5 5 100 100 100 100 100 100 100 100 96 59 18 6 76 5 98 100 100 100 100 21 3 2
100 100 100 100 100 100 100 100 100 49 98 53 67 96 98 51 98 100 86 47 95 100 100 100 100 100 100 100 100 100 96 97 6 18 57 99 99 100 100 100 100 98 1 1 5
100 100 100 100 100 100 100 100 100 100 100 97 100 100 100 98 100 100 99 73 100 100 100 100 100 100 100 100 100 100 89 100 100 100 100 100 100 100 100 100 92 7 0 2 16
100 100 100 100 100 100 100 99 100 100 99 100 100 100 100 100 100 100 100 100 100 100 100 100 100 100 100 100 98 100 100 100 100 100 100 100 100 76 63 16 3 70 50 56 96
96 98 100 100 100 100 100 100 100 100 99 100 100 100 100 100 100 100 100 100 100 100 100 100 100 100 100 100 100 100 100 100 100 99 86 25 5 57 74 46 77 100 100 94 99
98 99 100 100 100 100 100 100 100 100 100 100 100 100 100 100 100 100 100 100 100 100 100 100 100 100 100 100 100 100 100 86 27 53 53 98 20 6 17 73 100 100 100 100 100
100 100 100 99 98 100 100 100 100 100 100 100 100 100 100 100 100 100 100 100 100 100 100 100 100 100 100 100 100 100 100 69 15 11 14 67 3 17 27 87 92 100 100 100 100
100 93 100 100 100 99 100 100 100 100 100 100 100 100 100 100 100 100 100 100 100 100 100 100 100 100 100 100 100 100 100 100 100 100 57 4 2 5 4 99 100 100 100 100 100
100 100 100 96 100 100 100 100 100 100 100 100 100 100 100 100 100 100 100 100 100 100 100 100 100 100 100 100 100 100 100 100 94 5 4 0 0 0 1 69 100 100 100 100 100
100 100 100 100 98 97 100 100 100 100 100 100 100 100 100 100 100 100 100 100 100 100 100 99 100 100 100 81 26 6 5 5 2 31 28 0 0 0 64 100 100 100 100 100 100
100 100 100 100 100 100 100 100 100 100 100 100 100 100 100 100 100 100 100 100 100 100 100 100 100 100 100 36 5 0 5 41 52 29 44 99 2 5 100 100 100 100 100 100 100

GFSSW_prec_cloud_099.txt.gz
Cloud_Cover
100 100 100 100 100 99 99 100 100 100 100 100 100 100 86 68 93 100 83 100 44 7 5 9 16 99 10 65 11 36 55 96 96 75 33 25 5 85 9 3 43 34 4 3 4
100 100 100 100 100 92 84 100 100 100 100 100 100 100 100 100 100 100 100 100 100 100 45 42 22 66 100 89 25 28 22 99 52 7 5 5 5 21 0 4 18 7 5 5 5
100 100 100 100 100 100 100 100 100 100 100 100 100 100 100 100 100 100 100 100 100 100 47 6 65 100 100 100 80 57 100 100 100 98 41 15 58 5 11 22 56 12 54 5 5
100 100 100 100 100 100 100 100 100 100 100 100 100 100 100 100 100 99 10 11 90 6 5 5 6 5 91 100 81 96 98 61 9 5 14 5 5 78 12 100 100 13 50 10 5
100 100 100 100 100 100 100 100 100 100 100 100 100 100 100 100 100 100 100 100 30 5 4 5 5 5 5 6 58 43 21 40 42 5 5 5 5 5 96 100 91 76 36 11 5
100 100 100 100 100 100 100 100 100 100 100 100 100 100 100 100 100 100 100 100 100 100 5 5 5 5 19 27 5 5 18 22 19 100 5 6 2 5 82 100 100 80 98 37 6
99 100 100 100 100 100 100 100 100 100 91 100 100 66 82 100 100 75 9 15 8 100 100 8 5 5 5 21 33 17 6 17 58 100 45 4 5 96 100 96 64 47 12 99 92
96 82 100 100 100 100 100 100 100 95 96 92 74 60 60 37 92 48 5 5 5 5 5 9 5 10 5 11 5 5 7 79 100 82 31 32 75 93 96 52 92 100 100 100 100
100 70 98 57 100 100 100 100 100 100 100 97 73 82 11 11 9 48 41 8 17 5 21 5 5 5 4 12 40 6 18 11 55 100 100 100 88 100 95 20 85 64 59 80 68
98 100 100 100 100 100 100 100 100 100 100 98 92 79 52 38 69 82 32 36 50 8 6 5 5 5 2 75 94 53 0 3 100 96 80 99 96 6 62 70 91 12 10 7 94
64 97 100 100 100 100 100 100 100 100 72 20 99 13 5 24 93 99 100 100 78 14 30 14 5 2 57 100 15 0 0 1 55 86 52 100 100 100 100 100 95 5 5 8 16
90 100 100 100 100 100 100 100 100 100 83 10 17 1 5 96 56 100 86 100 71 20 100 91 4 5 100 52 4 2 5 64 100 83 5 78 100 100 100 100 95 5 15 100 79
44 100 100 100 100 100 100 100 97 100 100 2 1 0 0 17 21 99 100 100 100 100 100 100 92 93 79 81 5 5 12 100 96 59 12 5 77 100 100 100 100 95 96 29 5
100 100 100 100 100 100 100 100 100 100 100 2 0 0 0 1 21 100 100 100 100 73 100 94 84 97 100 100 28 8 100 88 8 5 85 23 26 18 28 86 13 72 96 11 5
100 100 100 100 100 100 100 100 100 100 100 16 0 3 5 2 0 0 100 100 100 100 100 100 100 100 100 100 100 46 100 8 5 5 5 36 57 99 14 100 18 17 4 5 5
100 100 100 100 100 100 100 100 100 100 100 100 18 96 2 25 38 19 100 100 100 100 100 100 100 100 100 100 100 100 91 96 27 36 4 60 9 5 5 61 98 98 55 6 6
100 100 100 100 100 100 100 100 100 100 87 100 100 84 19 67 100 100 89 94 100 100 100 100 100 100 100 100 100 100 100 99 51 8 5 77 28 5 13 77 44 7 7 89 52
100 100 100 100 100 100 100 100 100 54 100 100 86 27 33 44 100 100 100 100 99 99 100 100 99 95 100 100 100 100 94 99 81 79 50 13 5 36 9 5 32 70 100 100 91
100 99 97 100 100 100 100 100 84 99 100 100 93 100 30 78 79 100 100 100 100 100 100 100 100 100 100 100 100 91 48 84 91 25 21 51 85 68 6 79 89 100 100 100 60
95 100 91 100 100 100 100 91 100 100 100 100 100 100 96 100 100 100 100 100 100 100 100 100 100 100 100 100 100 96 92 100 91 78 100 99 85 100 100 100 100 100 100 87 24
100 100 90 100 100 100 100 100 100 100 100 85 100 100 100 100 100 100 100 100 100 100 100 100 99 100 100 100 100 100 100 100 100 100 100 100 90 100 100 100 96 98 100 38 47
89 98 91 100 100 100 100 100 100 100 100 100 100 100 100 100 100 100 100 100 100 100 100 100 100 100 100 100 100 100 100 100 100 100 100 100 100 100 100 68 57 6 31 72 66
100 97 97 100 100 100 100 100 100 91 100 100 100 100 100 100 100 100 100 100 100 100 100 100 100 100 100 100 100 100 100 100 100 100 100 100 100 92 100 86 100 100 99 66 79
100 100 100 98 100 84 98 100 100 100 97 100 100 100 100 100 100 100 100 100 100 100 100 100 100 100 100 100 100 100 100 100 100 100 84 11 10 99 8 1 30 100 100 77 82
98 100 100 95 100 100 99 100 100 100 100 100 100 100 100 100 100 100 100 100 100 100 100 100 100 100 100 100 100 100 100 100 100 98 49 94 20 100 5 5 29 100 91 51 57
89 99 100 100 100 100 100 100 100 100 100 100 100 100 100 100 100 100 100 100 100 100 100 100 100 100 100 100 99 100 100 100 100 100 97 37 59 37 4 70 47 69 96 100 89
98 100 68 78 100 100 99 100 100 100 100 100 100 100 100 100 100 100 100 100 100 100 100 100 100 100 100 100 79 49 58 28 47 7 50 94 64 89 98 64 84 86 99 100 100

GFSSW_prec_cloud_102.txt.gz
Cloud_Cover
100 100 100 100 100 99 100 100 94 100 89 79 100 100 5 53 31 16 57 100 69 57 88 37 15 53 44 70 60 42 5 80 100 100 85 87 74 17 6 24 12 1 0 0 0
99 90 100 100 100 100 100 100 100 100 100 100 100 24 100 99 58 99 100 100 100 100 100 100 100 88 100 79 16 13 19 99 100 94 56 16 58 28 9 5 5 5 2 0 0
99 100 100 100 100 100 100 100 100 100 100 100 90 79 97 86 100 100 100 100 100 100 100 100 100 100 100 100 83 26 88 100 100 100 90 100 100 100 28 77 6 5 0 0 0
100 100 100 100 100 100 100 100 100 100 100 100 100 100 79 69 100 100 100 100 100 100 100 100 98 72 100 90 92 48 71 95 100 100 100 100 88 100 99 87 16 5 5 6 5
100 100 100 100 100 96 100 100 100 100 100 100 100 100 100 100 100 63 94 100 100 100 100 100 100 100 23 20 71 66 74 57 70 55 64 36 15 85 27 34 5 5 14 38 5
100 100 100 100 100 100 100 100 100 100 100 100 100 100 100 100 84 100 44 20 93 100 100 100 100 100 78 100 76 30 13 29 51 100 98 34 16 40 88 5 26 23 5 13 24
100 100 100 100 100 100 98 100 100 100 97 100 90 100 72 94 5 25 6 5 8 10 75 100 91 99 72 98 85 86 28 5 5 28 15 6 96 83 41 70 98 27 5 22 6
82 74 100 14 21 100 100 100 100 100 29 100 100 38 98 100 94 15 47 99 6 5 16 5 39 61 5 5 5 11 4 5 11 83 5 47 34 62 26 98 99 83 26 50 6
99 54 100 77 96 99 100 100 85 100 100 100 88 57 11 3 4 23 5 5 48 5 29 47 18 18 54 61 20 5 9 6 49 17 5 1 2 5 5 59 100 100 88 100 85
99 100 100 100 100 100 100 100 100 100 100 90 86 94 0 0 0 0 3 0 5 35 8 97 100 89 20 74 7 56 5 21 5 2 5 2 0 0 56 9 18 63 87 100 30
46 100 100 70 100 100 100 100 100 100 100 56 2 0 0 0 3 4 5 5 5 76 27 83 100 6 81 98 88 86 88 87 5 5 15 4 4 5 85 5 38 100 100 86 5
80 100 100 100 100 100 100 100 98 18 45 3 0 1 0 4 4 3 5 44 80 77 100 100 53 44 100 100 100 100 34 82 81 98 4 5 6 12 85 17 58 92 100 83 59
100 100 100 100 100 100 100 100 70 80 100 2 0 0 7 2 0 4 6 41 15 98 100 100 58 100 100 100 100 100 92 100 100 86 58 5 10 14 89 74 14 5 21 25 6
80 85 100 100 100 100 100 100 100 100 100 2 2 0 0 28 40 0 9 77 75 33 100 74 100 100 100 88 100 100 100 100 100 83 99 6 96 5 100 90 4 2 5 28 5
100 100 100 99 88 100 100 100 100 100 100 2 1 0 0 0 2 2 13 89 97 100 99 100 100 100 100 100 100 100 100 100 100 73 100 82 100 100 100 99 5 4 3 12 94
100 100 100 100 94 100 100 100 100 100 100 75 1 0 0 0 35 12 3 100 100 100 100 100 100 100 100 100 100 100 100 73 93 100 64 100 100 100 31 5 5 5 5 5 5
100 100 100 100 100 100 100 100 100 100 52 61 4 4 1 5 5 5 42 92 100 100 100 100 100 100 100 100 100 100 100 100 100 100 84 100 100 100 44 5 22 6 38 84 22
100 100 100 100 100 100 100 100 100 86 100 91 85 5 5 5 5 5 94 100 100 100 100 100 100 100 100 100 100 100 100 100 100 100 100 84 100 100 49 76 100 100 100 90 98
100 100 100 100 100 100 100 100 100 100 100 100 100 88 100 86 5 20 84 100 100 100 100 100 100 100 100 100 100 100 100 100 100 100 100 100 100 99 100 99 100 100 100 99 79
100 100 100 100 100 100 100 95 80 100 100 100 100 71 100 100 77 100 91 79 100 100 100 100 100 100 100 100 100 100 100 100 100 100 100 100 100 100 92 96 100 100 100 89 100
100 100 100 100 100 100 100 100 76 100 100 100 100 100 100 98 99 99 100 75 100 100 100 100 100 100 100 100 100 100 100 100 95 100 100 100 100 99 52 98 100 63 95 100 100
100 100 100 100 100 100 100 100 53 96 100 100 100 100 99 100 100 94 92 100 100 100 100 100 100 100 100 100 100 80 14 24 95 100 100 100 97 99 100 100 100 97 100 83 89
100 100 100 100 100 100 100 80 72 99 100 100 97 93 100 100 100 95 100 100 100 100 100 100 100 100 100 100 100 100 100 100 100 100 100 100 100 100 100 100 100 100 100 100 100
100 100 100 100 96 98 100 96 99 100 100 100 99 98 90 100 100 100 100 100 100 100 100 100 100 100 100 100 100 100 100 100 100 100 100 100 100 100 100 100 100 100 53 19 96
100 100 88 92 98 99 100 100 100 100 100 90 99 84 100 100 97 100 100 100 100 100 100 100 100 100 100 100 100 100 100 100 100 100 100 100 100 100 74 44 8 76 58 61 79
100 96 100 92 100 100 96 96 100 100 100 100 100 100 100 100 100 100 100 100 100 100 100 100 100 100 100 100 100 100 100 100 100 100 47 98 100 96 14 66 86 100 66 100 100
100 100 100 78 87 100 95 100 100 100 100 100 87 100 100 100 100 100 100 100 100 100 100 100 100 100 100 100 100 100 100 100 86 70 57 35 76 66 72 100 100 100 99 100 100

GFSSW_prec_cloud_105.txt.gz
Cloud_Cover
100 100 100 100 100 91 99 100 100 100 37 100 100 100 100 100 100 100 100 50 5 5 5 4 5 64 68 64 59 23 7 49 100 91 100 90 96 88 15 98 50 6 5 4 9
100 100 100 84 100 100 98 100 100 100 100 95 99 13 14 100 100 100 100 100 100 98 35 4 5 90 60 52 64 83 60 100 68 96 84 71 86 100 18 94 7 38 6 5 17
100 100 100 100 100 100 99 100 100 100 100 100 100 85 24 37 100 41 100 100 100 100 100 100 97 93 100 31 29 29 68 100 100 100 14 42 99 100 100 98 91 89 100 98 19
100 100 100 100 100 100 91 100 100 100 100 100 100 100 100 100 100 100 100 100 100 100 100 100 99 95 100 100 100 35 98 100 100 100 100 100 83 98 96 100 100 100 100 100 96
100 100 100 100 100 100 100 100 100 100 100 100 100 100 100 100 100 100 100 100 100 100 100 100 100 100 100 100 100 100 100 45 96 81 97 93 19 18 23 58 97 86 67 5 5
100 100 100 100 100 100 100 100 100 100 100 100 100 100 100 100 100 100 100 100 100 100 100 100 100 100 94 100 100 100 100 100 100 40 35 33 31 33 100 98 20 71 59 40 17
100 100 100 100 100 99 99 100 100 100 96 100 100 98 52 52 7 5 11 100 94 97 93 100 100 24 6 12 6 8 56 100 100 100 100 95 5 35 54 87 97 24 9 33 47
100 100 100 98 100 86 93 79 100 100 100 100 99 96 54 5 4 3 2 0 5 5 5 5 5 46 41 46 30 29 7 5 10 5 32 23 81 86 6 64 92 64 5 5 5
100 100 100 100 78 93 93 100 100 100 100 100 100 100 69 28 7 0 2 1 0 1 0 32 98 46 5 40 85 79 54 68 28 5 11 27 11 5 5 10 98 75 30 5 5
100 100 100 100 100 33 100 100 100 100 100 100 97 98 100 83 7 5 4 0 1 5 5 5 6 6 4 54 19 80 100 94 5 100 6 4 1 5 22 7 16 27 9 1 4
100 100 100 100 100 100 100 100 100 100 100 100 45 100 100 80 4 5 5 4 0 2 2 5 42 5 5 35 57 78 100 99 81 100 72 5 5 5 5 3 5 8 5 5 5
57 98 100 99 100 100 100 100 94 78 64 100 100 100 100 98 22 92 5 2 5 4 5 81 59 4 48 100 100 98 100 87 100 100 97 53 5 56 18 5 5 9 17 100 100
75 68 100 100 100 100 88 100 100 92 87 70 90 95 100 97 46 32 21 4 4 36 4 70 4 17 33 100 100 42 100 100 87 100 100 91 5 16 70 98 42 21 31 6 5
5 18 81 100 100 100 100 100 98 100 100 5 75 80 22 15 2 1 0 8 82 34 100 87 23 99 50 18 100 100 100 100 100 100 89 100 57 100 95 11 87 100 99 9 8
92 76 100 55 100 100 100 100 100 100 100 0 5 27 88 92 4 0 1 3 65 96 100 6 28 12 61 28 100 100 100 100 100 100 100 97 100 100 99 28 97 100 96 77 7
100 100 100 100 100 100 100 100 100 100 90 85 3 0 1 3 2 1 1 41 97 89 99 72 99 54 57 100 100 100 100 100 100 100 100 73 100 100 100 100 100 100 100 94 100
100 100 100 100 100 84 97 100 100 100 61 96 99 65 5 10 5 0 69 100 41 94 75 91 77 90 100 100 100 100 100 100 100 100 100 100 100 100 100 100 100 100 86 100 100
100 100 100 100 100 100 100 100 100 100 98 98 100 100 71 72 51 71 87 100 100 93 99 100 100 80 97 100 100 100 100 100 100 100 100 100 100 100 100 85 100 100 100 100 89
100 100 100 100 100 100 100 100 100 100 100 100 89 99 99 100 100 100 100 87 100 98 100 100 99 96 100 100 100 100 100 100 100 100 100 100 100 100 100 100 100 100 100 100 100
100 100 100 100 100 100 100 92 100 100 92 100 96 44 100 100 100 100 100 100 100 100 100 100 100 100 100 97 100 100 100 100 100 100 100 100 100 100 100 100 100 100 100 100 100
100 100 100 100 100 100 100 100 100 100 100 93 71 100 100 100 100 100 100 82 99 84 96 100 100 100 79 100 100 100 100 100 100 100 100 100 100 100 100 100 100 100 100 100 100
100 100 100 100 100 100 85 100 100 100 68 78 73 93 100 100 100 100 100 100 62 43 51 100 100 100 98 100 100 100 100 100 100 100 100 100 100 100 100 100 100 87 100 45 53
100 100 100 100 100 100 92 100 92 95 100 100 99 96 100 100 100 100 100 19 7 47 100 100 100 100 100 100 100 100 100 100 100 100 100 100 100 100 100 100 100 53 5 52 92
100 100 100 100 100 98 96 100 100 100 100 95 73 97 100 100 100 100 97 34 83 100 100 100 100 100 100 100 100 100 100 100 100 100 100 100 100 100 100 88 81 70 98 62 92
100 96 39 94 100 85 100 99 100 100 99 98 89 100 100 100 100 100 100 100 100 100 100 100 100 100 100 100 95 98 100 98 100 100 95 100 100 100 50 95 99 100 100 100 100
100 100 100 100 99 100 100 95 100 100 100 100 71 100 100 100 100 100 100 100 100 100 100 100 100 100 100 100 100 100 100 100 100 100 100 100 100 100 100 100 100 100 100 100 100
99 100 98 100 100 100 91 97 100 100 72 96 100 100 100 100 83 100 100 100 100 100 100 100 100 96 79 100 100 100 100 100 100 100 87 100 76 86 71 96 100 100 100 100 100

GFSSW_prec_cloud_108.txt.gz
Cloud_Cover
100 100 100 100 100 100 100 100 100 98 100 100 99 29 99 100 100 100 100 50 98 93 5 5 1 5 5 33 13 5 5 39 13 27 5 47 4 84 99 57 100 17 23 5 5
100 100 100 100 100 90 96 100 100 100 100 100 73 7 43 92 100 100 100 100 98 100 100 19 14 5 3 5 5 5 5 23 4 5 5 50 69 5 4 38 27 39 100 92 51
100 100 100 100 100 100 100 100 100 100 100 100 96 97 5 5 100 77 100 100 100 100 100 59 58 6 98 29 85 52 68 100 99 51 18 46 97 59 42 16 34 92 11 90 100
100 100 100 100 100 100 75 100 100 100 100 100 100 99 100 98 100 100 100 100 100 99 69 100 100 100 100 100 100 100 100 100 100 100 100 100 100 100 100 100 56 29 10 87 94
100 100 100 100 100 100 100 100 100 100 100 100 100 100 100 100 100 100 100 100 100 100 100 100 100 100 100 100 100 100 100 100 100 100 100 100 100 100 60 97 100 100 100 45 7
100 100 100 100 79 100 100 100 100 100 100 100 100 100 100 92 100 68 38 69 98 70 38 20 27 61 100 100 100 100 100 100 100 100 100 100 100 100 100 100 100 97 75 62 14
100 100 100 94 98 100 100 100 100 100 100 100 100 100 99 100 100 98 9 85 5 5 5 5 0 5 41 26 29 44 100 70 100 100 100 99 38 100 99 100 100 100 100 100 100
100 100 100 100 100 91 75 100 100 100 100 99 60 98 97 36 8 13 39 5 28 74 73 16 7 5 5 5 5 1 1 5 11 4 12 63 45 31 16 4 3 26 98 86 55
100 100 100 100 100 100 98 100 100 100 100 100 100 67 6 35 96 5 5 21 5 5 94 100 76 86 66 16 3 5 9 5 2 5 1 68 4 100 50 8 55 41 51 5 5
100 100 100 100 100 100 100 100 100 100 100 100 100 75 60 13 29 5 8 8 79 92 33 70 100 100 100 80 4 1 5 5 4 11 76 69 85 4 5 7 5 6 100 9 5
100 100 100 100 100 100 100 100 89 100 100 35 21 93 100 66 14 5 22 5 36 62 90 99 36 99 100 15 5 5 6 25 5 22 100 94 52 100 100 100 98 10 86 93 100
100 100 100 100 100 100 93 90 23 78 33 5 5 5 5 5 2 5 5 5 5 5 13 67 38 80 100 70 35 98 95 20 5 3 23 99 70 100 100 100 100 50 100 100 100
100 100 100 100 100 100 100 99 99 100 32 4 5 9 1 2 78 100 6 5 5 7 64 7 8 50 76 20 35 5 66 5 53 53 59 97 40 100 78 96 100 100 100 100 88
100 100 100 100 100 100 100 100 100 100 49 2 1 4 5 63 8 99 97 60 5 2 32 5 9 71 5 9 96 96 67 98 70 87 82 92 76 39 30 60 100 100 100 100 100
100 100 100 100 98 100 100 100 100 100 84 4 0 5 12 8 100 96 99 100 100 61 52 4 34 94 3 0 93 100 58 80 92 99 100 99 100 0 72 100 100 100 100 100 63
100 100 100 100 100 100 100 100 100 100 28 4 3 5 5 5 5 50 34 78 98 62 100 9 12 33 27 36 28 57 59 68 100 100 96 93 100 100 100 100 100 100 100 100 100
100 100 100 100 100 100 100 100 100 100 99 94 82 5 5 4 5 5 5 88 87 72 43 5 5 8 10 36 90 53 67 100 100 100 77 100 100 100 100 100 100 100 100 100 100
100 100 100 100 100 100 100 100 100 89 100 100 77 5 5 5 11 91 94 47 99 100 84 100 66 7 21 33 94 92 45 100 100 100 100 100 100 100 100 100 100 100 100 100 100
100 100 100 100 100 100 100 100 99 100 100 100 100 20 49 79 42 100 100 99 100 62 41 100 88 94 23 15 74 33 96 100 100 100 100 100 100 100 100 100 100 100 100 100 100
100 100 100 100 100 100 100 100 100 100 100 100 100 100 100 95 99 100 92 42 92 57 100 100 88 53 97 88 25 3 16 100 100 100 100 100 100 100 100 100 100 100 100 100 100
100 100 100 100 100 100 100 79 89 100 100 100 100 100 100 100 76 82 100 99 88 96 100 100 100 44 96 79 80 100 74 100 100 100 100 100 100 100 100 100 100 100 100 100 100
100 100 100 100 100 100 100 100 100 100 100 100 100 100 100 99 100 100 82 100 100 100 100 100 98 76 97 100 94 14 94 100 100 100 100 100 100 100 100 100 100 100 100 100 100
100 100 100 100 100 100 97 100 100 100 100 100 100 100 100 100 100 10 100 52 100 100 100 100 100 98 74 85 100 41 88 100 100 100 100 100 100 100 100 100 100 100 100 100 100
100 100 100 100 100 100 98 100 100 91 92 100 100 100 99 99 100 56 83 100 100 100 100 100 100 96 100 97 90 100 96 100 100 100 100 100 100 100 100 100 100 100 100 100 100
100 100 37 94 100 94 100 60 100 100 86 89 100 100 96 97 95 100 100 100 100 100 100 100 100 100 100 92 80 100 100 100 96 100 100 100 100 100 79 100 100 100 100 95 90
100 100 100 88 86 100 100 53 100 100 100 100 99 100 100 80 83 100 100 100 100 100 98 100 100 100 100 100 85 23 68 99 100 100 100 100 100 34 65 100 100 100 100 100 100
100 95 100 29 100 95 27 34 86 100 100 100 100 99 100 73 100 100 100 100 100 99 99 100 100 100 100 96 100 100 99 100 100 100 100 100 97 100 100 100 100 100 100 100 100

GFSSW_prec_cloud_111.txt.gz
Cloud_Cover
100 100 100 100 100 100 100 100 68 100 95 100 97 30 5 92 98 67 77 65 100 15 5 26 11 33 21 2 2 0 4 5 5 5 30 35 86 90 4 0 3 4 5 78 7
100 100 100 100 100 100 100 100 100 100 100 100 100 100 100 99 13 58 93 22 25 87 5 4 5 62 66 64 82 4 9 58 5 10 12 6 7 60 1 5 4 5 5 5 6
100 100 100 100 100 100 100 100 98 75 100 100 100 100 100 100 100 100 97 5 13 11 99 98 73 86 100 100 100 95 97 100 100 100 92 100 99 100 78 8 70 20 22 6 87
100 100 100 100 100 100 100 100 100 100 100 100 100 100 100 99 100 100 100 97 100 100 100 100 100 100 100 100 100 100 100 100 100 100 100 100 100 100 100 100 100 100 100 100 100
100 100 100 100 100 100 100 100 100 100 100 100 100 66 83 100 100 77 100 100 100 100 100 90 100 100 100 100 100 100 100 100 100 100 100 100 100 100 100 100 100 100 100 100 77
100 100 100 100 78 46 100 100 100 100 100 92 100 98 100 100 100 100 100 94 100 100 99 84 95 32 25 5 3 4 7 44 63 67 100 100 100 100 100 100 100 100 100 100 100
100 100 100 100 100 93 100 100 99 99 100 100 100 93 97 100 100 74 100 10 13 50 58 86 99 14 33 6 3 2 0 6 31 56 5 6 50 100 100 100 100 100 100 100 100
100 100 100 99 100 98 100 61 96 44 100 96 100 100 100 97 98 13 85 100 100 100 100 100 95 93 5 5 2 5 2 0 5 0 2 4 1 5 87 93 100 84 85 91 50
100 100 100 100 100 100 100 100 97 97 100 72 100 99 84 98 100 88 99 79 69 38 59 100 99 92 88 36 9 5 1 0 0 0 4 100 8 3 5 28 35 24 5 5 5
100 100 100 100 100 100 100 100 100 100 100 96 99 74 26 5 16 5 22 15 5 5 5 13 21 5 16 100 8 5 5 0 0 28 100 100 98 6 8 6 9 92 27 5 40
100 100 100 100 100 100 100 100 100 100 67 75 5 7 13 5 5 5 5 5 5 5 5 5 5 2 19 2 0 1 3 5 0 0 5 5 15 2 1 99 100 46 100 100 100
100 100 100 100 100 100 100 100 100 100 60 56 5 46 100 6 4 31 5 9 5 5 42 19 2 1 5 0 4 20 26 2 0 0 17 1 0 0 4 5 69 100 100 100 100
100 100 100 100 100 100 100 100 100 100 98 37 100 100 5 4 30 5 2 5 5 5 5 2 3 43 5 7 100 17 100 4 3 3 0 0 0 0 0 0 77 100 99 98 100
100 100 100 100 100 100 100 100 100 100 100 91 87 56 12 6 5 5 5 5 2 3 5 3 12 5 1 5 92 1 64 81 5 4 5 7 73 0 0 22 1 75 100 100 100
100 100 100 100 72 100 100 100 100 100 100 83 5 11 8 90 100 100 68 60 100 100 65 41 6 0 4 3 3 0 5 31 4 5 14 5 59 0 0 9 96 78 100 100 100
100 100 93 100 100 96 100 100 100 100 70 15 5 5 63 50 95 100 100 96 100 100 100 100 50 28 0 0 4 4 0 2 5 40 90 16 39 0 2 2 85 100 100 100 100
100 100 100 100 100 100 100 100 100 73 6 22 92 76 85 23 96 89 100 5 23 83 77 18 7 5 5 5 5 5 5 66 63 98 37 3 20 44 38 90 14 100 100 100 78
100 100 100 100 100 100 100 100 100 54 42 100 100 100 100 100 100 100 100 84 8 89 82 82 83 21 5 4 5 6 5 72 34 41 65 43 55 23 100 100 100 100 100 100 100
100 100 100 100 100 100 100 100 100 100 100 100 100 99 82 25 94 98 98 80 89 23 30 93 7 13 6 36 34 36 74 96 100 6 24 86 43 100 100 100 100 100 100 100 100
100 100 100 100 100 100 100 100 99 100 100 100 95 93 14 90 87 100 60 23 9 94 79 97 63 26 57 83 44 88 21 87 99 97 19 89 68 100 100 100 100 100 100 100 100
100 98 82 100 100 100 100 94 74 86 100 100 82 97 8 7 100 96 18 61 37 75 53 95 100 91 89 81 100 96 40 95 94 95 100 95 100 100 100 100 100 100 100 100 100
100 100 69 100 100 100 100 100 97 69 44 48 91 58 12 51 90 100 100 98 62 88 100 100 97 100 96 100 100 100 50 99 100 95 100 100 100 100 100 100 100 100 100 100 100
100 100 100 100 100 100 98 100 94 26 64 100 100 26 38 76 91 98 100 95 31 16 100 98 100 100 100 96 100 97 61 76 81 100 100 100 97 100 100 100 100 100 100 100 100
100 100 100 100 100 93 46 60 100 50 76 88 90 100 100 99 73 96 100 99 46 11 49 100 94 64 100 100 100 78 100 48 100 100 97 100 71 98 85 100 100 100 100 100 100
100 100 99 92 100 100 97 64 73 100 79 93 73 46 43 50 19 5 96 68 31 20 100 100 100 100 100 100 100 100 97 100 100 100 100 100 50 76 37 29 100 100 100 100 100
100 100 99 15 12 100 99 100 53 77 100 96 85 96 6 5 26 82 93 100 38 42 100 100 100 100 100 100 79 98 89 100 100 100 100 46 96 100 100 100 100 100 95 100 100
100 100 100 81 77 100 100 5 20 23 16 77 14 57 38 31 100 94 56 32 92 90 100 100 100 100 100 100 100 48 100 100 100 100 100 100 60 100 100 100 100 100 100 100 100

GFSSW_prec_cloud_117.txt.gz
Cloud_Cover
100 100 100 100 67 98 82 5 85 100 100 100 100 100 100 16 5 7 7 5 9 94 6 100 100 89 52 34 54 43 36 5 3 5 6 0 8 2 0 5 5 3 1 5 4
100 100 100 100 94 100 99 34 26 100 100 100 100 100 100 100 50 5 4 5 5 5 79 88 100 100 100 100 100 49 73 10 5 5 100 98 94 10 0 1 14 0 1 3 5
100 100 100 100 100 95 100 14 60 69 78 100 100 100 100 100 69 5 5 5 5 5 5 15 77 55 5 4 5 5 64 5 5 5 100 100 94 96 99 100 100 100 100 15 21
100 100 100 100 100 100 97 100 90 69 21 96 98 100 99 98 31 5 35 15 2 9 5 5 5 79 45 11 15 67 83 5 99 100 100 100 100 100 100 100 100 3 4 4 12
100 100 100 100 100 100 97 100 100 93 83 46 100 100 100 100 100 100 100 100 100 20 5 5 5 66 100 100 91 62 53 60 100 100 71 70 77 83 100 93 65 3 1 0 3
100 100 100 100 93 100 80 100 96 100 100 100 100 100 100 100 100 100 100 100 63 5 5 5 5 70 80 100 76 86 62 93 41 25 5 4 16 5 14 5 3 4 8 4 0
47 93 100 100 100 98 92 100 100 96 60 99 100 100 100 100 100 100 100 95 8 5 5 28 98 65 21 97 99 82 72 94 100 100 95 23 66 72 5 5 5 7 5 0 0
100 100 100 100 100 98 97 100 100 100 100 100 100 99 89 63 79 19 42 89 76 39 5 5 34 99 100 100 100 100 100 100 100 100 10 4 6 5 5 5 5 5 5 31 42
100 88 94 56 100 100 100 99 100 100 100 92 62 94 90 56 84 20 36 80 100 100 97 8 52 83 100 100 41 100 100 96 96 100 95 6 83 5 5 5 5 5 1 0 0
100 99 100 98 79 94 92 96 85 100 92 100 92 62 5 12 21 81 90 100 93 100 100 96 5 6 100 12 78 100 18 11 58 31 5 27 22 64 5 1 2 0 0 0 0
100 100 100 100 100 100 98 100 100 71 100 100 100 100 20 46 100 70 50 98 100 100 100 12 20 56 64 85 96 100 49 10 76 61 5 5 5 100 1 0 0 0 0 0 0
96 94 100 100 100 100 100 100 98 98 100 100 100 100 85 32 11 87 65 28 9 83 99 54 74 100 100 100 100 100 97 88 5 5 5 4 1 5 1 0 0 0 0 0 0
30 41 18 96 96 100 100 84 5 94 60 94 38 64 57 5 10 60 12 46 15 71 86 5 35 100 100 100 100 100 100 74 25 5 5 2 0 5 4 0 0 0 0 0 0
49 80 12 54 89 92 100 12 42 59 52 43 37 67 42 5 14 23 12 26 85 76 54 91 100 100 64 94 92 34 14 5 5 5 5 5 11 5 1 0 0 2 2 0 12
94 94 24 90 96 100 100 100 73 82 5 41 54 58 99 6 52 62 23 72 77 9 5 48 99 98 100 96 18 24 99 20 5 5 5 5 30 5 1 82 100 92 52 75 88
100 100 90 97 100 100 100 100 99 83 22 5 26 69 32 6 52 83 30 9 27 6 7 77 30 25 55 75 98 100 100 99 80 23 71 5 5 4 100 100 100 100 100 100 100
100 100 100 100 100 100 100 100 100 50 42 5 5 5 5 5 21 23 5 8 36 68 100 25 18 93 86 77 69 40 100 100 70 83 37 5 5 86 100 100 100 100 100 100 100
100 100 100 100 100 100 100 100 85 45 88 96 81 5 5 5 5 2 5 6 84 100 72 75 98 100 100 100 100 100 100 100 20 17 7 5 4 98 100 95 88 100 100 100 100
100 100 100 100 100 100 100 100 8 72 32 60 100 100 6 5 6 5 5 5 5 86 100 100 57 100 100 100 100 100 100 90 98 90 93 5 94 100 100 100 100 100 96 100 100
100 100 100 100 100 100 100 100 61 85 99 90 87 96 77 81 39 6 5 2 5 5 90 97 91 51 37 30 23 40 32 79 98 83 78 4 30 47 100 100 100 100 100 100 100
100 100 100 100 100 100 100 67 100 94 100 97 87 96 100 100 42 61 5 5 10 5 17 78 78 43 98 32 7 5 52 73 62 50 24 37 22 5 100 100 100 100 100 100 100
100 100 100 100 100 100 100 100 100 100 100 100 100 100 100 100 100 90 23 11 38 63 56 31 89 44 82 99 63 90 88 100 82 66 79 54 18 90 58 99 100 100 100 100 100
100 100 100 100 100 100 100 100 100 100 100 96 88 94 98 77 48 96 100 100 27 33 5 20 96 52 22 10 31 99 95 100 100 46 17 58 19 85 96 100 97 100 100 100 100
100 100 100 100 100 100 100 100 100 99 100 100 95 89 31 6 60 32 100 100 100 100 37 86 97 99 83 47 5 30 92 100 100 75 99 29 28 99 100 99 37 100 100 100 100
100 100 100 100 100 100 100 100 100 100 93 100 100 98 83 98 100 87 88 100 100 100 100 100 100 100 100 72 26 58 100 100 100 100 100 55 19 96 37 20 78 92 76 91 100
100 100 100 90 100 100 100 100 100 100 100 100 100 100 100 100 100 100 100 100 100 100 100 100 100 100 100 69 90 76 100 97 100 67 100 100 94 69 97 16 88 100 98 100 100
100 99 100 42 83 99 100 97 100 100 100 100 100 100 100 100 100 100 100 100 98 91 100 100 100 100 79 43 98 100 8 86 100 100 95 96 36 100 98 82 100 100 100 71 98

GFSSW_prec_cloud_120.txt.gz
Cloud_Cover
100 100 100 100 100 100 100 100 100 100 96 100 100 52 55 96 90 100 50 100 24 5 6 38 46 5 5 5 5 5 5 90 89 97 99 17 0 0 4 5 0 0 0 0 1
100 100 100 100 100 100 100 100 100 100 100 100 100 100 90 100 51 59 67 49 6 5 5 5 29 37 5 5 5 19 5 5 5 38 26 0 0 2 5 2 5 5 0 0 29
100 100 100 100 100 100 100 100 100 100 100 100 100 100 100 87 97 6 20 32 22 6 3 5 5 38 58 29 5 6 5 5 5 77 99 8 0 5 5 40 10 5 4 3 5
100 99 100 100 100 100 100 100 100 100 100 100 100 100 100 99 17 53 100 59 100 98 100 100 98 95 94 11 5 5 5 6 98 100 100 99 88 19 23 100 72 72 100 98 1
100 100 100 100 100 99 100 100 100 100 100 100 100 100 100 100 7 90 100 100 95 28 98 27 6 12 8 5 2 5 5 8 100 100 11 23 100 100 100 70 36 4 3 4 5
100 94 100 94 95 76 89 100 100 100 55 100 100 100 100 97 40 95 82 100 84 60 82 5 5 5 5 5 2 5 5 5 5 5 82 94 100 100 100 100 86 92 100 17 2
100 71 93 14 6 100 100 83 70 6 8 100 100 98 100 100 98 77 100 91 36 22 5 5 5 2 5 4 5 3 3 5 37 5 99 100 100 100 100 100 100 100 75 5 5
100 100 85 5 5 94 100 56 68 96 99 9 99 100 100 100 100 97 100 97 17 7 5 5 1 4 4 3 8 34 5 8 72 100 100 100 100 100 100 100 100 89 90 95 76
93 91 100 90 76 100 100 66 73 66 91 100 100 100 100 100 100 96 96 100 28 5 5 5 4 2 5 14 5 5 5 57 100 100 100 37 90 100 100 94 57 33 10 14 5
100 85 97 100 100 100 100 100 100 100 100 100 100 100 100 100 100 100 100 100 100 9 65 12 48 6 99 4 5 5 5 41 62 77 5 94 100 43 71 95 100 99 89 37 8
100 100 100 100 95 100 98 98 31 100 100 94 100 100 100 100 100 100 100 21 100 100 100 100 34 5 5 99 5 5 5 5 6 23 26 100 100 87 6 5 5 5 5 5 1
100 100 67 91 100 86 100 91 100 97 100 100 100 100 100 100 100 100 94 48 96 98 62 36 5 18 68 17 5 5 4 37 95 100 86 100 100 99 70 18 5 5 4 0 25
95 75 97 87 99 97 100 17 72 95 72 100 100 100 100 100 100 100 5 22 8 73 30 10 7 54 5 6 78 19 14 5 5 19 16 10 94 29 32 5 5 30 62 74 80
100 32 89 41 90 99 100 98 11 11 13 69 72 92 93 91 100 48 15 92 11 39 76 78 100 30 24 92 95 99 99 60 27 5 13 14 53 5 5 5 51 100 100 100 100
100 100 66 58 99 100 91 64 63 26 5 58 56 100 64 69 99 100 70 63 100 99 99 82 100 60 51 90 52 84 100 96 14 41 75 35 33 5 11 94 100 100 100 100 100
100 99 100 95 100 100 100 92 90 34 43 14 30 83 44 73 96 100 100 100 100 68 5 24 13 57 70 81 62 48 27 50 86 82 86 54 6 5 100 100 100 100 100 100 100
100 100 100 100 100 100 100 100 100 40 8 5 8 5 5 76 97 96 76 96 89 96 94 98 66 22 30 16 11 25 22 77 45 95 37 5 5 5 100 100 100 100 100 100 100
100 100 100 100 100 100 100 100 92 5 9 5 31 5 50 64 72 86 46 97 94 97 99 99 100 100 89 5 5 6 28 90 39 20 5 6 5 7 98 97 98 99 100 100 100
100 100 100 100 100 100 100 100 10 82 19 8 5 5 8 34 19 5 5 10 80 99 100 50 17 6 5 5 5 49 83 24 100 92 86 8 59 97 100 100 100 100 100 100 100
100 100 100 100 100 100 100 100 95 26 78 95 99 97 100 99 48 7 5 5 10 87 89 48 6 5 9 21 14 9 21 96 100 100 100 7 8 21 100 100 100 100 100 100 100
100 100 100 100 100 100 100 100 100 100 100 100 100 100 86 100 100 91 28 72 100 93 91 19 80 35 79 67 65 5 65 77 64 73 98 65 7 4 43 100 100 100 100 96 100
100 100 100 100 100 100 100 100 100 100 100 100 100 100 100 100 100 100 75 72 100 100 100 100 100 100 53 6 33 9 97 100 100 84 70 62 18 5 10 94 99 100 100 100 100
100 100 100 100 100 100 100 100 100 100 100 100 100 100 100 100 100 100 100 95 100 97 58 99 100 100 100 98 89 100 97 90 71 100 72 100 8 99 90 62 100 100 100 100 23
100 100 100 100 100 100 100 100 100 100 100 100 100 100 100 100 100 39 84 100 99 90 76 97 85 62 11 51 63 64 32 40 92 100 92 100 96 100 84 100 100 100 96 33 9
100 100 100 100 100 100 100 100 100 100 99 100 100 100 100 100 100 99 99 100 98 95 100 100 100 100 92 92 100 79 46 100 100 100 100 99 100 96 92 100 99 96 98 66 86
100 100 100 100 100 100 100 100 99 40 100 83 95 100 100 100 100 100 100 94 76 58 77 100 100 100 74 77 100 100 100 60 61 100 100 100 58 100 100 98 78 100 70 96 96
100 97 16 33 40 100 100 100 100 100 100 100 100 100 100 100 100 100 100 100 97 98 94 100 100 100 99 100 100 88 56 62 78 30 3 48 93 100 100 100 82 100 96 92 88

GFSSW_prec_cloud_123.txt.gz
Cloud_Cover
100 99 100 100 100 100 99 100 100 100 100 100 100 100 100 100 37 50 42 81 100 9 8 52 6 5 5 13 5 5 5 15 5 5 5 5 5 5 3 2 5 5 5 5 5
92 99 84 100 100 100 100 100 100 100 100 100 100 100 100 98 100 74 93 98 94 100 49 30 32 26 16 6 5 5 29 6 25 10 26 5 5 5 4 4 4 5 5 5 3
39 95 79 100 100 100 100 100 78 100 100 100 100 100 100 100 90 100 90 40 90 100 100 88 35 7 63 90 47 38 47 27 74 9 5 5 5 5 75 3 5 5 12 24 5
100 88 46 7 98 100 100 100 99 77 100 100 100 100 100 100 96 100 100 11 97 91 60 100 82 100 95 5 7 47 17 34 6 5 5 5 52 5 71 90 82 5 1 4 5
24 63 100 94 100 100 96 43 52 34 57 93 100 100 100 100 100 100 88 64 56 84 85 100 100 73 61 36 11 5 65 91 60 5 5 50 98 10 18 4 5 4 2 4 34
77 70 97 100 36 99 100 100 32 15 12 5 72 69 100 100 100 98 94 68 96 50 30 76 92 90 65 74 54 15 9 10 34 5 5 80 100 100 97 71 81 55 30 3 65
88 99 100 92 100 94 100 94 87 81 67 35 55 89 92 77 48 36 73 74 99 44 5 37 78 98 66 30 98 96 22 15 60 9 5 5 67 100 100 100 100 100 100 93 74
99 94 100 100 100 32 100 100 93 83 100 86 74 58 100 66 60 98 99 97 96 67 28 100 100 100 97 71 36 29 12 74 18 5 3 5 18 100 100 100 100 100 100 100 100
55 77 96 59 99 55 98 18 100 100 96 100 94 63 77 84 99 84 62 100 98 86 100 99 63 99 88 79 25 52 94 85 100 80 5 5 5 100 100 67 100 100 100 100 100
58 100 89 86 100 100 61 65 100 99 100 95 100 100 100 100 99 99 62 100 100 98 87 99 98 100 100 23 47 54 15 60 35 8 5 22 5 45 99 99 100 100 72 99 100
77 98 100 100 93 100 100 34 54 34 100 100 100 100 100 100 100 100 88 100 100 100 100 46 29 90 25 67 35 5 5 5 21 5 5 5 5 5 5 32 85 100 100 100 100
100 100 100 100 99 100 100 100 97 97 100 100 100 100 100 100 100 100 100 100 100 100 92 100 35 71 96 59 26 6 5 12 29 7 5 5 5 5 100 100 100 100 100 100 100
100 100 100 100 100 100 100 76 49 100 94 100 100 100 100 98 100 75 99 100 99 91 86 27 50 99 83 90 36 6 17 5 5 5 5 5 5 43 71 86 100 100 100 100 100
100 100 99 100 100 100 91 78 74 81 83 100 100 100 75 51 91 100 100 72 5 35 6 71 95 51 90 86 76 56 6 5 5 5 5 35 5 5 5 24 91 93 100 100 100
100 100 100 100 100 100 100 100 99 70 73 95 100 100 100 100 100 100 100 96 5 5 15 74 79 80 100 100 100 100 100 46 7 32 37 70 30 31 12 10 96 100 100 94 99
100 100 100 100 100 100 100 100 100 98 56 87 100 100 86 100 100 100 96 100 18 5 9 47 7 80 100 100 100 82 94 91 43 13 39 12 5 12 37 18 100 90 90 73 97
100 100 97 100 100 100 100 100 100 77 82 71 99 93 74 100 100 100 100 100 100 99 100 99 74 100 100 100 100 70 59 50 40 83 9 5 10 6 36 84 35 49 90 100 100
100 100 100 100 100 100 100 100 100 100 100 53 97 99 100 100 100 100 100 100 100 100 100 100 100 100 100 86 90 64 5 43 7 27 5 5 5 5 58 100 67 57 60 99 100
100 100 100 100 100 100 100 100 100 100 100 94 98 100 100 100 100 100 100 100 100 100 100 100 95 98 100 100 94 62 91 8 27 78 84 23 4 65 89 100 80 86 94 100 100
100 100 100 100 100 100 100 100 100 100 100 100 100 100 100 100 100 100 100 42 98 100 100 88 85 44 54 51 70 88 10 58 85 69 99 5 1 0 100 100 100 100 100 100 100
100 100 100 100 100 100 100 100 100 100 100 100 100 100 100 100 100 100 100 100 100 100 100 96 97 27 5 63 86 67 43 67 75 97 66 55 1 0 2 12 100 100 100 100 95
86 100 100 100 100 100 100 100 100 100 100 100 100 100 100 100 96 88 51 89 100 100 85 74 73 15 7 14 74 62 18 45 100 92 99 100 4 0 5 3 98 100 100 100 100
71 97 100 100 100 100 100 100 100 100 100 100 100 100 100 100 100 100 100 100 100 100 100 100 84 30 89 63 23 68 84 97 100 100 67 100 11 5 6 61 100 100 100 100 100
100 100 100 100 100 100 81 100 100 100 100 100 100 100 100 100 100 100 100 100 100 100 100 100 100 72 29 92 100 100 95 86 100 76 59 10 92 21 93 100 100 100 100 100 97
100 100 100 100 100 100 100 95 92 100 100 100 100 100 100 100 100 100 100 100 100 100 100 100 100 89 6 21 55 98 5 43 90 54 99 48 94 97 100 100 100 100 100 100 82
100 100 100 100 100 100 100 100 97 100 100 100 100 100 100 100 100 100 100 100 100 100 100 100 99 100 94 94 76 72 5 5 5 98 88 100 13 100 100 100 100 100 100 100 100
100 100 100 56 89 100 100 100 100 100 100 100 100 100 100 98 100 100 100 100 100 100 100 100 100 100 96 100 100 100 12 5 5 72 100 96 100 6 55 86 70 100 100 100 100

GFSSW_prec_cloud_129.txt.gz
Cloud_Cover
100 100 100 100 100 100 100 100 100 100 100 100 100 98 99 95 88 100 79 21 82 51 100 100 100 98 87 10 31 100 71 4 5 5 68 100 70 5 7 5 5 5 5 5 5
100 100 100 100 100 100 100 100 100 100 100 100 100 100 64 57 52 78 94 100 100 100 100 100 100 100 100 100 83 6 5 4 5 10 42 81 100 16 5 5 5 5 5 5 5
100 100 100 100 100 100 100 100 100 100 100 100 100 100 100 14 5 59 16 47 100 100 97 100 100 100 100 100 100 92 90 90 5 5 94 100 100 65 20 22 5 4 5 5 5
100 100 100 100 78 99 100 100 100 100 100 100 100 100 100 100 5 5 29 5 5 6 5 56 98 100 100 100 100 100 100 99 77 5 91 100 92 37 14 12 6 15 8 5 5
100 89 97 90 98 100 98 100 100 100 78 97 100 100 100 100 10 13 5 5 5 5 5 0 3 5 71 20 5 5 6 5 5 5 94 100 100 100 100 100 100 5 0 4 50
100 100 100 99 82 100 100 100 100 100 100 100 95 26 100 69 52 5 5 5 5 2 4 0 5 5 5 5 5 5 5 5 5 77 100 100 100 100 100 60 5 5 0 1 6
100 100 100 100 100 100 97 100 100 100 100 100 100 98 9 35 21 5 5 5 5 4 4 0 3 5 5 4 5 5 5 5 38 100 100 86 36 50 90 18 5 5 5 5 13
100 100 100 84 94 77 74 100 100 100 100 100 100 100 73 11 8 56 29 5 23 5 5 6 5 5 5 5 5 5 5 32 70 37 7 59 99 17 96 9 5 5 0 5 5
100 100 100 100 100 96 74 100 100 100 100 100 100 100 88 90 69 77 100 5 5 5 5 11 5 5 15 82 21 80 47 96 10 18 5 34 46 6 5 6 33 5 5 5 5
100 100 100 100 100 100 46 100 100 100 100 100 100 100 97 100 78 86 30 28 5 12 5 57 54 91 100 88 81 68 100 100 100 96 81 70 90 57 35 33 6 5 5 5 5
100 100 100 100 100 100 100 100 100 100 100 100 71 100 69 100 100 77 88 80 100 100 68 34 100 100 100 100 100 100 100 100 100 100 30 94 9 19 9 76 5 5 5 4 1
100 100 100 100 100 100 100 100 100 100 98 100 67 100 62 100 98 89 100 100 100 68 6 90 84 92 95 100 100 100 100 100 72 24 96 60 46 56 14 32 5 5 5 5 5
100 100 100 100 100 100 100 100 100 100 100 100 99 33 98 27 100 100 100 100 100 96 94 98 73 87 81 33 45 77 58 76 97 39 97 15 26 7 19 45 5 5 5 11 6
100 100 100 100 100 100 100 100 100 100 100 84 100 69 62 100 81 100 100 100 100 100 100 28 81 95 88 5 5 5 5 82 25 90 100 85 100 88 5 51 94 41 100 7 5
100 100 100 100 100 100 100 100 100 100 100 46 58 100 100 100 100 100 100 100 100 100 100 98 96 26 25 98 10 22 10 9 99 100 100 100 18 100 100 33 90 100 6 5 5
100 100 100 100 100 100 100 100 100 100 84 21 99 100 100 100 100 100 100 100 100 100 100 100 100 100 54 10 100 68 92 100 95 100 15 89 6 100 29 99 69 82 5 11 5
100 100 100 100 100 100 100 100 100 100 100 63 96 100 100 93 100 100 100 100 100 100 100 100 87 100 100 100 89 87 99 86 100 99 89 20 10 100 99 100 96 11 5 5 9
100 100 100 100 100 100 100 100 100 96 100 100 93 100 100 83 100 100 100 100 100 100 100 100 100 100 100 100 100 90 100 100 100 100 93 92 99 100 100 99 11 25 14 4 65
100 100 100 100 100 100 100 100 100 100 100 100 97 44 73 100 99 100 100 100 100 100 100 100 100 100 100 100 100 100 100 100 100 100 100 100 100 100 100 86 31 98 4 16 89
100 100 100 100 100 100 100 100 100 100 100 100 100 100 100 100 100 100 100 100 100 100 100 100 100 100 100 100 100 100 100 100 100 100 100 100 100 100 100 100 23 5 5 70 100
100 100 100 100 100 100 100 100 100 100 100 100 100 100 100 100 100 100 100 100 100 100 100 100 100 100 100 100 100 100 100 100 100 88 100 100 100 100 100 98 8 3 5 40 100
100 100 100 100 100 100 100 84 98 100 100 100 100 100 100 100 100 100 100 100 100 100 100 100 100 100 100 100 100 100 100 100 100 100 49 60 41 83 8 42 18 2 5 26 99
100 100 100 100 100 79 74 12 100 100 100 100 100 100 100 100 100 100 100 100 100 100 100 100 100 100 100 100 100 100 100 100 100 100 21 100 34 61 28 75 56 56 5 47 72
100 100 100 100 100 100 100 100 100 94 100 100 100 100 100 100 100 100 100 100 100 100 100 100 100 100 100 100 100 100 100 100 100 99 56 70 96 100 93 76 97 100 7 3 96
100 100 100 100 100 75 95 96 100 100 100 100 100 100 100 100 100 100 100 100 100 100 100 100 100 100 100 100 100 100 100 100 95 97 100 54 100 99 100 100 100 98 24 45 75
100 100 100 100 100 100 100 100 100 99 100 51 100 100 100 100 100 100 100 100 100 100 100 100 100 100 100 100 100 100 100 100 100 100 100 100 91 100 100 100 100 68 37 48 82
100 100 100 100 100 100 100 100 100 100 100 36 96 100 100 100 100 100 100 100 100 100 100 100 100 100 100 100 100 99 100 100 100 100 100 100 100 100 100 100 87 99 17 99 100

GFSSW_prec_cloud_132.txt.gz
Cloud_Cover
100 100 100 100 100 100 100 100 100 100 100 100 100 100 100 100 100 100 100 94 100 50 68 6 6 62 100 100 100 100 100 84 35 37 0 19 5 5 5 5 5 10 12 5 5
100 100 100 100 100 100 100 100 100 100 100 100 100 100 100 100 99 88 100 100 100 98 74 13 5 5 5 72 100 100 100 100 100 100 100 100 100 100 20 44 100 100 69 7 5
100 100 100 100 100 100 100 100 100 100 100 100 100 100 100 100 99 100 100 100 100 100 85 43 5 5 5 12 100 100 100 100 100 100 100 100 100 10 81 100 100 97 92 24 5
100 100 100 100 100 100 100 100 100 100 100 100 100 100 100 91 100 100 77 98 100 100 100 12 11 5 5 5 5 5 5 58 70 91 47 5 5 5 24 99 100 100 100 100 100
100 100 100 100 100 100 100 100 100 100 100 100 99 72 71 43 76 100 65 36 90 100 100 83 6 5 18 5 5 5 5 3 5 15 1 5 5 5 6 10 100 100 100 100 100
100 100 100 100 82 99 100 100 100 100 100 100 98 100 29 97 100 100 99 100 98 71 46 39 5 5 5 5 5 5 0 0 1 0 2 5 5 6 34 100 100 100 100 100 71
100 100 100 100 100 99 100 100 100 100 100 100 100 100 64 100 100 100 89 82 100 100 56 5 5 5 9 3 1 5 5 4 2 0 5 35 7 5 93 100 95 54 40 5 5
100 100 100 100 100 100 100 92 100 100 100 100 99 36 31 44 100 100 99 100 93 78 79 15 5 5 5 4 78 4 3 5 5 5 5 5 58 4 5 100 89 7 0 5 14
100 100 100 100 100 100 100 100 97 100 100 100 94 6 42 75 100 100 100 99 78 100 100 24 6 55 8 35 5 5 5 4 12 4 7 100 100 82 82 100 100 100 98 100 96
100 100 100 100 100 100 100 100 100 98 72 74 80 37 77 95 100 100 97 100 67 79 70 99 40 50 74 95 16 37 7 31 29 5 99 100 100 100 100 100 100 100 58 9 5
100 100 100 100 100 100 100 100 100 76 64 92 62 93 100 69 100 100 100 100 81 100 100 100 5 99 100 100 100 84 31 5 100 100 96 100 100 100 100 100 9 63 1 0 5
100 100 100 100 100 100 100 100 100 94 86 100 82 99 96 100 86 100 100 100 100 54 44 40 100 100 100 100 100 99 69 37 68 100 100 90 82 99 95 7 84 5 26 39 7
100 100 100 100 100 100 100 100 100 100 75 66 100 18 100 15 100 100 100 100 94 100 68 99 100 100 100 100 100 100 98 84 20 5 5 12 54 21 100 20 97 100 63 57 6
100 100 100 100 100 100 100 100 100 100 100 86 100 86 43 98 97 100 100 100 100 100 100 35 100 100 100 100 100 100 100 30 92 52 5 2 10 98 72 5 13 94 88 60 5
100 100 100 100 100 100 100 100 100 100 100 60 18 100 100 43 99 100 84 94 100 100 100 100 85 100 99 100 100 100 100 100 100 100 8 34 7 100 59 2 5 5 100 100 100
100 100 100 100 100 100 100 100 100 100 100 28 8 73 73 93 100 95 100 100 100 100 100 100 100 100 100 100 100 100 100 100 100 98 10 100 100 98 82 50 9 5 97 93 100
100 100 100 100 100 100 100 100 100 100 86 96 15 49 85 100 100 100 100 99 100 100 100 100 100 100 100 100 100 100 100 73 36 44 76 100 46 100 100 100 98 96 64 24 90
100 100 100 100 100 100 100 100 100 46 100 99 100 94 65 100 93 100 100 100 100 100 100 100 100 97 100 100 100 100 82 91 84 95 59 17 100 100 100 100 100 100 58 99 100
100 100 100 100 100 100 100 100 95 100 100 100 100 100 12 97 100 100 100 98 100 100 100 100 100 100 100 100 100 100 100 100 100 100 99 97 100 100 98 100 100 96 41 100 100
53 100 100 100 100 100 100 100 100 100 100 100 100 100 100 87 100 100 100 100 100 100 100 100 100 100 100 100 100 100 100 100 100 100 100 100 100 100 100 100 98 68 100 100 76
97 100 100 100 100 100 100 100 100 100 100 100 100 100 100 100 100 100 100 96 100 100 100 100 100 100 98 100 100 100 100 100 100 100 100 100 100 100 100 74 19 20 32 28 76
100 98 100 100 100 100 100 100 50 100 100 100 100 100 100 100 100 100 100 100 100 100 100 100 100 100 98 62 100 100 100 100 100 100 100 100 69 100 100 100 96 84 69 79 6
100 94 100 100 100 100 44 5 65 71 91 100 100 100 100 100 100 100 100 100 100 100 100 100 100 100 100 96 100 100 100 100 100 100 95 89 97 100 100 99 86 100 41 57 91
100 95 96 100 100 100 100 89 96 46 100 100 100 100 100 100 100 100 100 100 100 100 100 100 100 100 100 100 100 100 100 100 100 100 100 100 100 100 100 100 100 100 100 86 36
100 78 33 100 100 100 100 100 100 100 100 100 100 98 100 100 100 100 100 100 100 100 100 100 100 100 100 100 100 100 100 100 100 100 100 100 100 100 100 100 100 100 100 95 57
100 100 100 100 100 100 100 100 100 100 100 100 22 100 100 100 100 100 100 100 100 100 100 100 100 100 100 100 100 100 100 100 100 100 100 100 100 100 100 100 100 100 100 13 8
100 97 94 100 100 100 95 100 100 96 100 100 100 100 100 98 100 100 100 100 100 100 100 100 99 100 99 100 100 100 100 100 100 100 100 100 100 100 100 100 100 100 44 66 100